     2.11           OBSERVATION DATA    G (GPS)             RINEX VERSION / TYPE
teqc 2010Oct21 OPUS Account 20111028 19:53:19UTC            PGM / RUN BY / DATE
Q 1527                                                      MARKER NAME
3075                                                        MARKER NUMBER
CSMIDDLETON NGS                                             OBSERVER / AGENCY
4624K01583 TRIMBLE NETR5 4.41                               REC # / TYPE / VERS
60154430 TRM41249.00 NONE                                   ANT # / TYPE
  -714880.5839 -5594498.3954  2968430.9108                  APPROX POSITION XYZ
        2.0000        0.0000        0.0000                  ANTENNA: DELTA H/E/N
     1     1                                                WAVELENGTH FACT L1/2
     5    L1    L2    C1    P1    P2                        # / TYPES OF OBSERV
    15                                                      LEAP SECONDS
  2011     8    26     0     0    0.0000000     GPS         TIME OF FIRST OBS
                                                            END OF HEADER
 11  8 26  0  0  0.0000000  0  9G04G10G12G17G05G25G09G02G30
 114726457.65918  89397367.01355  21831698.367                    21831707.613
 109698708.74818  85479639.82456  20874942.336                    20874951.285
 112472202.92218  87640775.40417  21402755.195                    21402763.090
 122161693.36217  95190926.24216  23246575.414                    23246585.293
 114603030.85817  89301195.19417  21808207.969                    21808217.738
 126367103.86917  98467922.87316  24046864.609                    24046876.797
 124975684.36016  97383633.16453  23782079.492                    23782093.141
 108529860.30918  84568926.30356  20652537.063                    20652543.293
 126795119.88016  98801456.49653  24128314.297                    24128325.074
 11  8 26  0  0 30.0000000  0  9G04G10G12G17G05G25G09G02G30
 114803839.714 8  89457664.70645  21846423.664                    21846433.137
 109705747.629 8  85485124.69746  20876281.773                    20876291.301
 112414333.721 8  87595682.576 7  21391743.180                    21391751.336
 122214387.956 7  95231986.924 6  23256602.148                    23256613.102
 114516340.119 7  89233644.078 7  21791711.070                    21791720.809
 126268732.931 7  98391270.260 6  24028145.242                    24028157.348
 125053892.869 7  97444574.65843  23796962.617                    23796976.813
 108531890.102 8  84570507.97646  20652923.359                    20652929.457
 126694199.372 6  98722817.22143  24109110.914                    24109120.871
 11  8 26  0  1  0.0000000  0  9G04G10G12G17G05G25G09G02G30
 114881336.026 8  89518051.43845  21861170.516                    21861179.598
 109713417.096 8  85491100.92746  20877741.711                    20877750.355
 112356906.728 8  87550934.321 7  21380814.914                    21380823.137
 122267245.743 7  95273174.763 6  23266661.094                    23266671.473
 114429982.154 8  89166352.259 7  21775277.414                    21775287.457
 126170552.712 7  98314766.262 6  24009462.000                    24009474.180
 125132240.086 7  97505624.24544  23811872.078                    23811885.871
 108534192.857 8  84572302.34046  20653361.266                    20653367.512
 126593514.364 6  98644361.43743  24089950.477                    24089960.527
 11  8 26  0  1 30.0000000  0  9G04G10G12G17G05G25G09G02G30
 114958944.960 8  89578525.91945  21875939.211                    21875948.270
 109721717.518 8  85497568.82646  20879321.070                    20879329.730
 112299924.574 8  87506532.701 7  21369971.453                    21369979.859
 122320267.295 6  95314490.230 6  23276750.313                    23276760.531
 114343959.519 7  89099321.728 7  21758907.953                    21758917.719
 126072565.988 7  98238413.052 6  23990815.594                    23990828.008
 125210723.104 7  97566779.68943  23826807.164                    23826820.395
 108536767.386 8  84574308.48446  20653851.531                    20653857.176
 126493067.775 6  98566091.43343  24070835.156                    24070846.141
 11  8 26  0  2  0.0000000  0  9G04G10G12G17G05G25G09G02G30
 115036664.529 8  89639086.60845  21890728.609                    21890738.516
 109730648.156 8  85504527.79546  20881020.547                    20881029.438
 112243389.495 8  87462479.430 7  21359213.430                    21359221.773
 122373452.755 6  95355933.404 6  23286871.719                    23286882.129
 114258275.008 7  89032554.676 7  21742602.828                    21742612.422
 125974775.251 7  98162212.536 6  23972206.992                    23972218.254
 125289338.396 6  97628038.21243  23841766.875                    23841780.613
 108539612.359 8  84576525.36346  20654392.891                    20654399.102
 126392862.397 6  98488009.34843  24051766.938                    24051777.637
 11  8 26  0  2 30.0000000  0  9G04G10G12G17G05G25G09G02G30
 115114492.784 8  89699731.98345  21905538.859                    21905548.691
 109740208.828 8  85511977.71146  20882839.867                    20882848.602
 112187303.824 8  87418776.364 7  21348540.625                    21348548.922
 122426803.098 7  95397505.083 6  23297023.680                    23297034.555
 114172931.442 8  88966053.310 7  21726362.219                    21726372.027
 125877183.257 7  98086166.893 6  23953635.570                    23953647.930
 125368082.494 7  97689397.08144  23856751.977                    23856766.078
 108542726.869 8  84578952.27246  20654985.734                    20654991.297
 126292901.133 6  98410117.44743  24032745.648                    24032755.727
 11  8 26  0  3  0.0000000  0  9G04G10G12G17G05G25G09G02G30
 115192427.941 8  89760460.67245  21920369.352                    21920378.379
 109750399.562 8  85519918.58146  20884778.961                    20884787.594
 112131669.895 8  87375425.307 7  21337954.016                    21337962.477
 122480318.650 7  95439205.482 6  23307207.781                    23307217.492
 114087931.598 7  88899819.761 7  21710187.219                    21710196.715
 125779792.566 7  98010278.127 6  23935102.664                    23935114.750
 125446951.923 7  97750853.61344  23871760.586                    23871774.684
 108546109.299 8  84581587.94446  20655629.203                    20655635.441
 126193186.673 6  98332417.93443  24013770.734                    24013780.219
 11  8 26  0  3 30.0000000  0  9G04G10G12G17G05G25G09G02G30
 115270467.969 8  89821271.07345  21935220.297                    21935229.172
 109761220.027 8  85528350.15046  20886838.164                    20886846.887
 112076489.505 8  87332427.649 7  21327453.555                    21327461.637
 122534000.059 7  95481035.081 6  23317423.039                    23317433.516
 114003278.362 8  88833856.290 7  21694078.063                    21694087.895
 125682605.682 7  97934548.186 6  23916608.742                    23916620.582
 125525943.589 7  97812405.38444  23886791.664                    23886806.668
 108549758.855 8  84584431.76046  20656323.820                    20656330.051
 126093721.920 6  98254912.93743  23994843.031                    23994852.887
 11  8 26  0  4  0.0000000  0  9G04G10G12G17G05G25G09G02G30
 115348610.724 8  89882161.51945  21950089.789                    21950099.848
 109772669.935 8  85537272.17846  20889016.984                    20889025.648
 112021764.634 8  87289784.934 7  21317039.711                    21317047.789
 122587847.705 7  95522994.258 6  23327669.984                    23327680.078
 113918974.093 7  88768164.749 7  21678035.711                    21678044.855
 125585625.057 7  97858978.935 6  23898153.695                    23898165.656
 125605053.901 7  97874049.58443  23901845.992                    23901860.297
 108553673.423 8  84587482.08746  20657068.672                    20657074.734
 125994509.284 6  98177604.42743  23975963.367                    23975973.301
 11  8 26  0  4 30.0000000  0  9G04G10G12G17G05G25G09G02G30
 115426854.911 8  89943130.98745  21964979.586                    21964989.188
 109784749.076 8  85546684.53146  20891315.656                    20891324.406
 111967497.945 8  87247499.237 7  21306713.188                    21306720.977
 122641862.323 7  95565083.498 6  23337948.992                    23337958.848
 113835021.843 8  88702747.500 7  21662060.242                    21662069.316
 125488853.770 7  97783572.820 6  23879738.117                    23879751.043
 125684279.826 7  97935783.92344  23916922.625                    23916935.805
 108557852.824 8  84590738.77346  20657864.086                    20657869.699
 125895552.123 6  98100494.98843  23957132.180                    23957142.484
 11  8 26  0  5  0.0000000  0  9G04G10G12G17G05G25G09G02G30
 115505198.679 8  90004178.05645  21979887.945                    21979897.152
 109797457.503 8  85556587.23246  20893733.773                    20893742.320
 111913692.271 8  87205572.765 7  21296473.922                    21296482.453
 122696044.590 7  95607303.406 6  23348259.141                    23348270.293
 113751424.648 8  88637606.912 7  21646152.125                    21646161.223
 125392294.648 7  97708332.006 6  23861364.148                    23861376.141
 125763618.064 7  97997605.79144  23932020.766                    23932034.727
 108562296.083 8  84594201.06946  20658709.484                    20658715.117
 125796853.373 6  98023586.93643  23938350.781                    23938360.535
 11  8 26  0  5 30.0000000  0  9G04G10G12G17G05G25G09G02G30
 115583640.232 8  90065301.32645  21994814.953                    21994823.965
 109810794.546 8  85566979.76446  20896271.766                    20896280.457
 111860348.946 8  87164006.568 7  21286323.570                    21286331.703
 122750394.826 7  95649654.189 6  23358601.883                    23358611.934
 113668185.060 8  88572744.982 7  21630311.453                    21630320.527
 125295950.084 7  97633258.385 6  23843030.211                    23843042.574
 125843065.075 7  98059512.34044  23947138.250                    23947153.695
 108567001.665 8  84597867.76546  20659604.773                    20659610.691
 125698415.748 6  97946882.37744  23919617.992                    23919628.965
 11  8 26  0  6  0.0000000  0  9G04G10G12G17G05G25G09G02G30
 115662177.448 7  90126499.11145  22009759.813                    22009769.871
 109824759.895 8  85577861.88646  20898929.133                    20898937.902
 111807469.725 8  87122802.004 7  21276260.984                    21276268.891
 122804913.700 7  95692136.327 6  23368976.695                    23368987.105
 113585305.372 7  88508163.476 7  21614539.797                    21614549.352
 125199822.573 7  97558353.896 7  23824737.680                    23824750.289
 125922617.198 6  98121500.77044  23962276.891                    23962292.164
 108571968.000 8  84601737.64146  20660550.172                    20660556.305
 125600241.783 7  97870383.26444  23900936.500                    23900946.836
 11  8 26  0  6 30.0000000  0  9G04G10G12G17G05G25G09G02G30
 115740808.449 7  90187769.97745  22024723.430                    22024732.508
 109839353.135 8  85589233.26946  20901705.984                    20901714.645
 111755057.046 8  87081960.966 7  21266286.883                    21266294.547
 122859601.722 7  95734750.331 6  23379383.539                    23379393.238
 113502788.643 8  88443864.815 7  21598837.398                    21598847.070
 125103914.808 7  97483620.612 6  23806487.102                    23806499.234
 126002271.332 7  98183568.75544  23977435.234                    23977449.570
 108577193.909 8  84605809.79246  20661544.148                    20661550.453
 125502334.394 7  97794091.86843  23882305.523                    23882314.824
 11  8 26  0  7  0.0000000  0  9G04G10G12G17G05G25G09G02G30
 115819531.765 8  90249112.78845  22039703.836                    22039712.883
 109854573.527 8  85601093.33446  20904602.109                    20904610.973
 111703113.157 8  87041485.228 7  21256402.273                    21256410.289
 122914459.304 7  95777496.467 6  23389822.625                    23389832.973
 113420637.569 8  88379851.073 7  21583204.680                    21583214.066
 125008229.471 7  97409060.656 6  23788278.539                    23788290.941
 126082024.375 7  98245713.84744  23992611.234                    23992625.410
 108582678.374 8  84610083.41846  20662588.063                    20662593.926
 125404696.410 6  97718010.38843  23863725.586                    23863735.313
 11  8 26  0  7 30.0000000  0  9G04G10G12G17G05G25G09G02G30
 115898345.899 8  90310526.36745  22054701.367                    22054710.535
 109870421.119 8  85613442.12646  20907618.117                    20907626.977
 111651640.601 8  87001376.751 7  21246607.313                    21246614.867
 122969486.831 7  95820375.038 6  23400293.805                    23400304.281
 113338854.916 8  88316124.419 7  21567642.266                    21567650.992
 124912769.685 7  97334676.455 6  23770113.102                    23770126.027
 126161873.118 6  98307933.47043  24007805.344                    24007820.766
 108588420.727 8  84614557.98646  20663680.641                    20663686.895
 125307331.045 6  97642141.34444  23845197.430                    23845207.043
 11  8 26  0  8  0.0000000  0  9G04G10G12G17G05G25G09G02G30
 115977248.676 7  90372009.00545  22069716.422                    22069725.582
 109886895.029 8  85626278.95946  20910753.203                    20910761.570
 111600641.330 8  86961637.068 7  21236902.258                    21236909.980
 123024685.201 7  95863386.670 7  23410797.719                    23410808.609
 113257443.192 8  88252686.801 7  21552149.438                    21552158.926
 124817537.720 7  97260469.749 6  23751991.000                    23752003.465
 126241813.949 6  98370224.79643  24023018.203                    24023033.371
 108594419.024 8  84619231.99646  20664822.109                    20664828.414
 125210240.739 6  97566486.66043  23826721.648                    23826730.984
 11  8 26  0  8 30.0000000  0  9G04G10G12G17G05G25G09G02G30
 116056238.369 7  90433559.37445  22084747.820                    22084756.477
 109903995.214 8  85639603.79946  20914007.211                    20914015.961
 111550117.304 8  86922267.706 7  21227287.969                    21227295.609
 123080054.966 7  95906531.872 7  23421333.914                    23421345.000
 113176405.657 8  88189540.748 7  21536728.984                    21536738.109
 124722536.409 7  97186442.808 6  23733913.211                    23733925.395
 126321843.565 6  98432585.34044  24038248.086                    24038262.824
 108600672.691 8  84624105.00046  20666012.141                    20666018.121
 125113428.572 6  97491048.66643  23808298.484                    23808308.438
 11  8 26  0  9  0.0000000  0  9G04G10G12G17G05G25G09G02G30
 116135313.151 7  90495176.04845  22099794.758                    22099804.465
 109921720.623 8  85653415.82646  20917380.109                    20917388.555
 111500070.214 8  86883269.984 7  21217764.289                    21217772.297
 123135596.269 7  95949810.767 6  23431903.398                    23431913.906
 113095744.189 8  88126687.728 7  21521379.703                    21521388.734
 124627768.232 7  97112597.516 6  23715879.125                    23715891.293
 126401958.664 7  98495012.50744  24053493.914                    24053508.496
 108607179.933 8  84629175.59846  20667250.516                    20667256.586
 125016897.097 6  97415829.44443  23789930.047                    23789939.363
 11  8 26  0  9 30.0000000  0  9G04G10G12G17G05G25G09G02G30
 116214471.415 8  90556857.76945  22114858.406                    22114867.707
 109940071.147 8  85667714.95346  20920871.844                    20920880.676
 111450502.475 8  86844645.788 7  21208331.719                    21208339.543
 123191309.712 7  95993223.822 6  23442504.984                    23442515.961
 113015461.845 8  88064130.126 7  21506102.453                    21506111.660
 124533236.050 7  97038936.147 6  23697890.258                    23697903.313
 126482156.035 6  98557503.79843  24068754.820                    24068769.246
 108613939.730 8  84634442.98846  20668536.773                    20668542.898
 124920649.267 6  97340831.21943  23771613.641                    23771624.605
 11  8 26  0 10  0.0000000  0  9G04G10G12G17G05G25G09G02G30
 116293711.378 7  90618603.14445  22129937.391                    22129946.445
 109959046.064 8  85682500.62246  20924483.398                    20924491.523
 111401416.153 8  86806396.725 7  21198991.234                    21198999.129
 123247195.914 7  96036771.486 6  23453139.797                    23453150.051
 112935561.088 8  88001869.876 7  21490897.414                    21490906.516
 124438942.509 7  96965460.733 6  23679946.688                    23679958.965
 126562432.645 6  98620056.79943  24084030.500                    24084046.098
 108620951.093 8  84639906.40546  20669870.641                    20669877.266
 124824688.027 7  97266056.32243  23753353.313                    23753363.336
 11  8 26  0 10 30.0000000  0  9G04G10G12G17G05G25G09G02G30
 116373031.330 8  90680410.85145  22145031.211                    22145040.852
 109978644.558 8  85697772.18646  20928212.367                    20928221.441
 111352812.773 8  86768523.976 7  21189741.930                    21189749.781
 123303255.231 7  96080453.999 7  23463807.781                    23463819.242
 112856044.560 8  87939909.011 7  21475765.875                    21475775.180
 124344890.192 7  96892173.272 6  23662049.164                    23662060.953
 126642784.751 7  98682668.58743  24099321.867                    24099336.926
 108628212.418 8  84645564.61046  20671252.789                    20671258.777
 124729015.958 6  97191506.68943  23735147.219                    23735156.465
 11  8 26  0 11  0.0000000  0  9G04G10G12G17G05G25G09G02G30
 116452429.508 7  90742279.51745  22160140.000                    22160149.410
 109998865.941 8  85713529.13246  20932059.750                    20932068.414
 111304695.191 8  86731029.782 7  21180585.664                    21180593.270
 123359488.167 7  96124271.818 6  23474508.617                    23474519.723
 112776915.326 8  87878249.938 7  21460708.461                    21460717.543
 124251081.797 7  96819075.918 6  23644198.156                    23644209.770
 126723209.250 7  98745336.83444  24114626.117                    24114641.410
 108635722.761 8  84651416.84846  20672682.016                    20672687.973
 124633636.032 7  97117184.70343  23716997.656                    23717006.695
 11  8 26  0 11 30.0000000  0  9G04G10G12G17G05G25G09G02G30
 116531904.332 8  90804207.90845  22175264.125                    22175273.223
 110019709.541 8  85729770.91046  20936027.109                    20936035.617
 111257064.590 8  86693915.039 7  21171521.633                    21171529.805
 123415895.266 7  96168225.384 6  23485242.688                    23485253.086
 112698175.478 8  87816894.283 7  21445724.297                    21445733.227
 124157519.976 7  96746170.685 6  23626394.039                    23626405.195
 126803702.910 6  98808058.96043  24129943.891                    24129958.250
 108643480.892 8  84657462.16846  20674158.063                    20674164.230
 124538550.979 7  97043092.50543  23698903.203                    23698912.465
 11  8 26  0 12  0.0000000  0  9G04G10G12G17G05G25G09G02G30
 116611453.983 7  90866194.61545  22190401.555                    22190410.680
 110041174.840 8  85746497.12446  20940111.289                    20940119.836
 111209923.301 8  86657181.594 7  21162551.039                    21162558.895
 123472476.771 7  96212314.825 6  23496009.563                    23496020.977
 112619827.488 8  87755843.967 7  21430814.898                    21430823.992
 124064207.478 7  96673459.756 6  23608636.914                    23608648.660
 126884262.579 6  98870832.53043  24145273.555                    24145287.543
 108651485.466 8  84663699.51946  20675681.078                    20675687.355
 124443763.718 6  96969232.32643  23680865.539                    23680874.797
 11  8 26  0 12 30.0000000  0  9G04G10G12G17G05G25G09G02G30
 116691076.759 7  90928238.29745  22205553.000                    22205562.117
 110063260.718 8  85763706.91446  20944314.266                    20944322.730
 111163272.996 8  86620830.733 7  21153673.516                    21153681.133
 123529233.613 7  96256540.902 6  23506810.234                    23506820.488
 112541874.273 8  87695101.275 7  21415981.047                    21415990.250
 123971146.743 7  96600944.981 6  23590928.422                    23590939.891
 126964884.587 6  98933654.66843  24160616.164                    24160629.578
 108659735.230 8  84670127.92146  20677250.961                    20677257.277
 124349276.824 6  96895606.21843  23662884.703                    23662894.637
 11  8 26  0 13  0.0000000  0  9G04G10G12G17G05G25G09G02G30
 116770771.353 7  90990337.93745  22220719.188                    22220728.277
 110085966.715 8  85781399.92046  20948634.750                    20948643.641
 111117115.853 8  86584864.153 7  21144890.625                    21144898.309
 123586165.942 7  96300903.737 6  23517644.281                    23517654.391
 112464318.421 8  87634668.203 7  21401222.609                    21401231.539
 123878340.732 7  96528628.739 6  23573267.359                    23573279.184
 127045566.000 7  98996523.13343  24175969.680                    24175983.629
 108668229.380 8  84676746.76246  20678867.719                    20678873.473
 124255093.589 6  96822216.72543  23644962.844                    23644972.117
 11  8 26  0 13 30.0000000  0  9G04G10G12G17G05G25G09G02G30
 116850535.756 7  91052492.00845  22235897.648                    22235906.922
 110109292.016 8  85799575.48946  20953073.945                    20953082.023
 111071454.111 8  86549283.600 7  21136201.039                    21136208.625
 123643274.474 6  96345403.869 6  23528511.570                    23528521.969
 112387162.684 8  87574546.918 7  21386540.672                    21386549.684
 123785792.202 7  96456513.095 6  23555656.063                    23555668.031
 127126303.475 6  99059435.22443  24191333.070                    24191348.547
 108676966.587 8  84683555.00046  20680530.492                    20680536.332
 124161216.601 6  96749065.84443  23627098.117                    23627108.434
 11  8 26  0 14  0.0000000  0  9G04G10G12G17G05G25G09G02G30
 116930368.389 7  91114699.21945  22251088.938                    22251098.477
 110133235.455 8  85818232.74246  20957629.867                    20957638.453
 111026289.793 8  86514090.652 7  21127606.594                    21127614.055
 123700559.431 7  96390041.469 6  23539412.313                    23539422.738
 112310409.608 8  87514739.397 7  21371934.797                    21371943.887
 123693503.662 7  96384600.060 7  23538093.711                    23538105.738
 127207093.954 6  99122388.58843  24206706.367                    24206723.070
 108685945.603 8  84690551.66046  20682239.000                    20682244.836
 124067648.690 7  96676155.86444  23609292.922                    23609302.785
 11  8 26  0 14 30.0000000  0  9G04G10G12G17G05G25G09G02G30
 117010267.859 7  91176958.50045  22266293.383                    22266303.293
 110157796.848 8  85837371.50746  20962303.961                    20962312.316
 110981624.354 8  86479286.434 7  21119107.047                    21119114.715
 123758021.248 6  96434816.871 6  23550347.547                    23550357.723
 112234061.324 8  87455247.299 7  21357406.133                    21357415.156
 123601477.830 7  96312891.719 7  23520581.867                    23520593.965
 127287934.140 6  99185380.70043  24222090.555                    24222106.238
 108695165.135 8  84697735.74446  20683993.305                    20683999.078
 123974392.798 6  96603488.98543  23591547.008                    23591556.930
 11  8 26  0 15  0.0000000  0  9G04G10G12G17G05G25G09G02G30
 117090232.155 7  91239268.29645  22281510.039                    22281520.340
 110182975.130 8  85856990.96246  20967095.016                    20967103.477
 110937459.481 8  86444872.263 7  21110703.148                    21110710.676
 123815660.268 7  96479730.375 6  23561316.156                    23561325.320
 112158120.407 8  87396072.627 7  21342955.070                    21342964.445
 123509717.262 7  96241390.069 7  23503120.516                    23503132.094
 127368820.710 7  99248409.00643  24237483.328                    24237497.762
 108704623.716 8  84705106.09346  20685793.250                    20685799.063
 123881451.431 7  96531067.20344  23573860.594                    23573870.965
 11  8 26  0 15 30.0000000  0  9G04G10G12G17G05G25G09G02G30
 117170259.763 7  91301627.43445  22296739.195                    22296748.836
 110208769.327 8  85877090.35546  20972003.352                    20972011.680
 110893797.213 8  86410849.733 7  21102394.141                    21102402.039
 123873477.146 6  96524782.424 6  23572317.398                    23572329.090
 112082589.678 8  87337217.575 7  21328581.859                    21328590.773
 123418224.703 7  96170097.243 7  23485709.578                    23485721.691
 127449750.405 7  99311470.96343  24252883.523                    24252898.180
 108714320.406 8  84712661.98446  20687638.578                    20687644.324
 123788827.540 7  96458892.82944  23556234.758                    23556244.914
 11  8 26  0 16  0.0000000  0  9G04G10G12G17G05G25G09G02G30
 117250349.078 7  91364034.66645  22311979.492                    22311989.188
 110235178.079 8  85897668.62946  20977029.125                    20977037.863
 110850639.284 8  86377220.197 7  21094181.273                    21094189.090
 123931472.070 6  96569973.272 6  23583353.344                    23583364.742
 112007471.311 8  87278683.852 7  21314287.469                    21314296.633
 123327002.785 7  96099015.339 7  23468350.430                    23468362.555
 127530720.110 7  99374564.03844  24268291.945                    24268306.648
 108724253.945 8  84720402.43846  20689528.586                    20689534.652
 123696523.939 6  96386968.03644  23538669.852                    23538679.902
 11  8 26  0 16 30.0000000  0  9G04G10G12G17G05G25G09G02G30
 117330498.644 7  91426488.85345  22327231.742                    22327241.277
 110262200.580 8  85918725.14446  20982171.023                    20982179.543
 110807987.751 8  86343985.251 7  21086065.195                    21086073.199
 123989645.695 6  96615303.313 6  23594423.945                    23594434.559
 111932768.204 7  87220473.704 7  21300071.742                    21300080.383
 123236054.319 7  96028146.496 7  23451043.906                    23451055.746
 127611726.522 6  99437685.67144  24283707.070                    24283722.262
 108734423.167 8  84728326.52846  20691463.641                    20691469.898
 123604543.469 6  96315295.05944  23521166.828                    23521176.383
 11  8 26  0 17  0.0000000  0  9G04G10G12G17G05G25G09G02G30
 117410706.886 7  91488988.76145  22342495.016                    22342504.137
 110289836.190 8  85940259.40246  20987430.125                    20987438.383
 110765844.669 8  86311146.497 7  21078045.625                    21078053.602
 124047998.440 7  96660772.959 6  23605527.398                    23605539.379
 111858482.667 8  87162588.934 7  21285935.719                    21285944.383
 123145381.983 7  95957492.784 7  23433789.484                    23433801.566
 127692766.482 6  99500833.41644  24299128.188                    24299144.469
 108744826.922 8  84736433.37046  20693443.273                    20693449.328
 123512889.033 6  96243876.10843  23503725.555                    23503735.012
 11  8 26  0 17 30.0000000  0  9G04G10G12G17G05G25G09G02G30
 117490971.947 7  91551532.94545  22357768.625                    22357778.277
 110318083.446 8  85962270.27246  20992805.211                    20992813.984
 110724211.406 8  86278705.006 7  21070122.977                    21070130.430
 124106530.605 7  96706382.379 6  23616666.570                    23616677.402
 111784617.079 8  87105031.396 7  21271879.281                    21271888.148
 123054988.295 7  95887056.220 7  23416588.094                    23416599.996
 127773836.730 6  99564004.77144  24314556.477                    24314571.340
 108755463.474 8  84744721.61946  20695467.352                    20695473.539
 123421563.035 6  96172713.10044  23486346.133                    23486355.641
 11  8 26  0 18  0.0000000  0  9G04G10G12G17G05G25G09G02G30
 117571292.336 7  91614120.25345  22373053.297                    22373062.410
 110346941.285 8  85984756.91546  20998296.516                    20998305.063
 110683089.701 8  86246662.116 7  21062298.023                    21062305.477
 124165242.375 7  96752131.773 6  23627839.156                    23627849.512
 111711173.658 8  87047802.830 7  21257903.656                    21257912.246
 122964875.842 7  95816838.774 7  23399440.477                    23399452.078
 127854934.017 6  99627197.23544  24329988.789                    24330004.109
 108766331.956 8  84753190.58246  20697535.461                    20697541.398
 123330568.487 7  96101808.35644  23469030.805                    23469040.344
 11  8 26  0 18 30.0000000  0  9G04G10G12G17G05G25G09G02G30
 117651666.849 7  91676749.74045  22388347.844                    22388357.242
 110376409.023 8  86007718.80446  21003904.117                    21003912.484
 110642481.590 8  86215019.438 7  21054570.531                    21054577.965
 124224134.398 6  96798021.627 6  23639045.836                    23639056.781
 111638155.474 8  86990905.605 7  21244008.695                    21244017.531
 122875047.719 7  95746842.891 6  23382346.680                    23382358.051
 127936055.448 6  99690408.55843  24345425.922                    24345441.141
 108777431.551 8  84761839.64646  20699647.398                    20699653.871
 123239908.442 7  96031164.26944  23451778.680                    23451788.879
 11  8 26  0 19  0.0000000  0  9G04G10G12G17G05G25G09G02G30
 117732093.602 7  91739419.91745  22403652.656                    22403662.121
 110406485.455 8  86031155.00646  21009627.563                    21009635.883
 110602388.744 8  86183778.259 7  21046940.844                    21046948.621
 124283207.091 7  96844052.204 6  23650286.828                    23650298.613
 111565564.735 7  86934341.458 7  21230194.898                    21230203.727
 122785506.229 7  95677070.341 6  23365306.930                    23365318.609
 128017197.639 6  99753636.04143  24360866.195                    24360881.938
 108788760.672 8  84770667.54546  20701803.555                    20701809.750
 123149585.220 7  95960782.65644  23434590.891                    23434599.902
 11  8 26  0 19 30.0000000  0  9G04G10G12G17G05G25G09G02G30
 117812571.295 7  91802129.78645  22418967.102                    22418976.383
 110437169.618 8  86055064.75646  21015466.523                    21015474.969
 110562813.275 8  86152940.242 7  21039410.195                    21039417.574
 124342461.133 7  96890224.153 6  23661563.922                    23661573.500
 111493403.569 8  86878112.042 7  21216462.836                    21216472.125
 122696254.293 7  95607523.422 6  23348323.398                    23348334.535
 128098357.710 6  99816877.39643  24376310.766                    24376326.492
 108800318.312 8  84779673.52546  20704002.852                    20704009.504
 123059601.929 7  95890665.88844  23417467.031                    23417477.070
 11  8 26  0 20  0.0000000  0  9G04G10G12G17G05G25G09G02G30
 117893098.335 7  91864878.08945  22434290.617                    22434300.340
 110468460.387 8  86079447.18946  21021420.695                    21021429.148
 110523756.757 8  86122506.594 7  21031977.719                    21031985.441
 124401896.622 6  96936537.461 6  23672873.375                    23672883.816
 111421674.876 7  86822219.618 7  21202813.422                    21202822.285
 122607294.541 7  95538204.177 6  23331394.422                    23331405.855
 128179532.214 6  99880130.01044  24391757.570                    24391773.996
 108812103.235 8  84788856.60246  20706245.641                    20706251.461
 122969961.297 7  95820816.12444  23400409.078                    23400418.484
 11  8 26  0 20 30.0000000  0  9G04G10G12G17G05G25G09G02G30
 117973673.026 7  91927663.54545  22449623.781                    22449633.496
 110500356.399 8  86104301.23046  21027490.398                    21027498.719
 110485220.332 8  86092478.223 7  21024644.508                    21024652.434
 124461514.082 6  96982992.568 6  23684217.570                    23684228.785
 111350380.607 8  86766665.708 7  21189246.680                    21189255.535
 122518629.523 7  95469114.608 6  23314521.930                    23314533.367
 128260717.842 6  99943391.26043  24407207.234                    24407223.273
 108824114.054 8  84798215.71046  20708531.266                    20708537.023
 122880665.982 7  95751235.43144  23383417.008                    23383426.512
 11  8 26  0 21  0.0000000  0  9G04G10G12G17G05G25G09G02G30
 118054293.868 7  91990484.96545  22464965.258                    22464974.773
 110532856.109 7  86129625.69346  21033674.898                    21033683.168
 110447205.579 8  86062856.348 7  21017410.695                    21017418.539
 124521313.442 6  97029589.438 6  23695597.594                    23695607.625
 111279523.009 8  86711452.050 7  21175762.781                    21175771.848
 122430261.788 7  95400256.687 6  23297706.055                    23297717.637
 128341911.602 6 100006658.88043  24422658.359                    24422674.621
 108836349.396 8  84807749.76246  20710859.609                    20710865.688
 122791718.694 7  95681925.91044  23366491.008                    23366500.152
 11  8 26  0 21 30.0000000  0  9G04G10G12G17G05G25G09G02G30
 118134959.542 7  92053341.30245  22480315.664                    22480325.219
 110565958.507 8  86155419.79446  21039974.180                    21039982.480
 110409714.443 8  86033642.488 7  21010276.406                    21010284.227
 124581295.311 6  97076328.468 6  23707011.648                    23707022.781
 111209104.700 7  86656580.708 7  21162362.727                    21162371.410
 122342194.150 7  95331632.594 6  23280947.484                    23280959.168
 128423110.314 6 100069930.36043  24438109.898                    24438125.992
 108848808.154 8  84817457.89746  20713230.086                    20713236.445
 122703122.144 7  95612889.71244  23349631.195                    23349640.684
 11  8 26  0 22  0.0000000  0  9G04G10G12G17G05G25G09G02G30
 118215668.372 7  92116231.27645  22495674.250                    22495683.863
 110599662.359 8  86181682.54546  21046387.695                    21046396.059
 110372748.462 8  86004837.839 7  21003241.914                    21003249.266
 124641460.125 7  97123210.082 6  23718460.500                    23718470.277
 111139127.862 8  86602053.362 7  21149046.891                    21149054.953
 122254429.085 7  95263244.267 7  23264246.742                    23264257.637
 128504310.614 6 100133203.07643  24453561.125                    24453578.223
 108861488.716 8  84827338.84946  20715643.422                    20715649.168
 122614879.124 7  95544128.96344  23332838.867                    23332848.145
 11  8 26  0 22 30.0000000  0  9G04G10G12G17G05G25G09G02G30
 118296419.268 7  92179154.02645  22511040.320                    22511050.176
 110633967.149 8  86208413.56245  21052915.531                    21052923.691
 110336310.425 8  85976444.569 7  20996307.578                    20996315.633
 124701808.416 6  97170234.683 6  23729944.273                    23729955.453
 111069595.650 8  86547872.479 7  21135814.688                    21135823.098
 122166969.893 7  95195094.264 7  23247603.539                    23247614.719
 128585510.042 6 100196475.07243  24469013.430                    24469029.344
 108874391.205 8  84837392.74046  20718098.273                    20718104.504
 122526992.924 7  95475646.25144  23316114.930                    23316124.020
 11  8 26  0 23  0.0000000  0  9G04G10G12G17G05G25G09G02G30
 118377210.413 7  92242108.15345  22526414.242                    22526423.637
 110668870.478 8  86235610.97746  21059557.430                    21059565.313
 110300400.706 8  85948462.990 7  20989474.578                    20989482.367
 124762340.056 6  97217402.114 6  23741462.938                    23741474.867
 111000509.299 8  86494039.017 7  21122668.250                    21122677.023
 122079818.646 7  95127184.239 6  23231018.852                    23231030.762
 128666705.197 6 100259743.80342  24484464.758                    24484480.762
 108887513.252 8  84847617.71846  20720595.281                    20720601.719
 122439465.720 7  95407443.30244  23299458.852                    23299468.191
 11  8 26  0 23 30.0000000  0  9G04G10G12G17G05G25G09G02G30
 118458040.554 7  92305092.66044  22541795.555                    22541805.477
 110704371.228 8  86263273.90245  21066312.727                    21066321.105
 110265020.958 8  85920894.379 7  20982741.867                    20982749.551
 124823055.810 7  97264713.043 6  23753017.945                    23753027.672
 110931871.544 8  86440555.105 7  21109606.664                    21109615.270
 121992978.181 7  95059516.387 7  23214493.633                    23214505.098
 128747892.993 6 100323006.76143  24499915.266                    24499930.793
 108900854.417 8  84858013.44846  20723134.359                    20723139.938
 122352300.361 7  95339522.30844  23282871.656                    23282881.238
 11  8 26  0 24  0.0000000  0  9G04G10G12G17G05G25G09G02G30
 118538907.983 7  92368106.21644  22557184.039                    22557193.410
 110740467.886 8  86291401.17245  21073182.180                    21073190.512
 110230172.233 8  85893739.547 7  20976110.617                    20976118.129
 124883955.836 6  97312167.557 6  23764604.938                    23764618.027
 110863684.531 8  86387422.431 7  21096631.383                    21096640.016
 121906450.904 7  94992092.569 7  23198027.813                    23198039.867
 128829069.749 6 100386261.06143  24515362.492                    24515378.824
 108914412.628 8  84868578.29446  20725713.977                    20725720.355
 122265499.451 6  95271885.28944  23266354.180                    23266363.500
 11  8 26  0 24 30.0000000  0  9G04G10G12G17G05G25G09G02G30
 118619811.424 7  92431147.83144  22572579.563                    22572589.875
 110777159.384 8  86319991.95946  21080164.273                    21080172.594
 110195856.836 8  85867000.301 7  20969580.289                    20969588.168
 124945040.588 6  97359765.981 6  23776230.805                    23776241.391
 110795950.560 8  86334642.760 7  21083741.664                    21083750.270
 121820239.625 7  94924914.987 7  23181622.406                    23181634.492
 128910232.730 6 100449504.66943  24530807.125                    24530823.648
 108928186.981 8  84879311.56046  20728335.688                    20728341.523
 122179065.781 6  95204534.42843  23249906.453                    23249915.691
 11  8 26  0 25  0.0000000  0  9G04G10G12G17G05G25G09G02G30
 118700749.460 7  92494216.39644  22587982.000                    22587991.734
 110814444.691 8  86349045.46046  21087259.422                    21087267.570
 110162076.329 8  85840677.848 7  20963151.805                    20963159.902
 125006310.348 6  97407508.659 6  23787889.547                    23787899.672
 110728672.005 8  86282217.974 7  21070939.000                    21070947.711
 121734347.089 7  94857985.766 7  23165277.977                    23165289.098
 128991379.172 6 100512735.31842  24546248.797                    24546265.754
 108942176.618 8  84890212.57446  20730997.727                    20731003.910
 122093002.270 6  95137472.03644  23233528.500                    23233538.207
 11  8 26  0 25 30.0000000  0  9G04G10G12G17G05G25G09G02G30
 118781720.433 7  92557310.62344  22603390.766                    22603399.672
 110852321.625 8  86378559.95846  21094467.375                    21094475.840
 110128831.839 8  85814773.072 7  20956826.172                    20956833.941
 125067765.563 6  97455395.780 6  23799583.523                    23799595.676
 110661850.654 8  86230149.443 7  21058223.398                    21058232.008
 121648775.563 7  94791306.677 7  23148994.625                    23149005.691
 129072505.657 6 100575950.43642  24561687.531                    24561704.000
 108956379.592 8  84901279.83146  20733700.344                    20733706.527
 122007311.193 7  95070699.80444  23217221.977                    23217231.230
 11  8 26  0 26  0.0000000  0  9G04G10G12G17G05G25G09G02G30
 118862723.586 7  92620429.93544  22618804.688                    22618814.098
 110890789.314 8  86408534.78246  21101787.234                    21101795.582
 110096125.429 8  85789287.564 7  20950602.398                    20950610.180
 125129406.096 7  97503427.277 6  23811315.547                    23811325.586
 110595489.346 8  86178439.391 7  21045595.109                    21045603.426
 121563528.258 7  94724880.207 6  23132772.688                    23132783.133
 129153609.322 6 100639147.84642  24577121.398                    24577137.063
 108970795.652 8  84912513.12546  20736443.961                    20736449.707
 121921995.867 7  95004220.39344  23200987.063                    23200997.070
 11  8 26  0 26 30.0000000  0  9G04G10G12G17G05G25G09G02G30
 118943757.078 7  92683572.88845  22634224.883                    22634234.238
 110929845.962 8  86438968.54346  21109219.563                    21109227.715
 110063958.136 8  85764222.160 7  20944480.695                    20944488.652
 125191232.574 6  97551603.742 6  23823078.570                    23823089.449
 110529590.160 8  86127089.435 7  21033054.695                    21033063.355
 121478607.497 7  94658708.196 7  23116612.016                    23116623.859
 129234686.933 6 100702324.99543  24592550.164                    24592566.086
 108985423.412 8  84923911.39346  20739227.094                    20739233.367
 121837058.720 7  94938035.64044  23184824.250                    23184834.000
 11  8 26  0 27  0.0000000  0  9G04G10G12G17G05G25G09G02G30
 119024819.622 7  92746738.48645  22649650.633                    22649660.480
 110969490.165 8  86469860.13546  21116763.867                    21116772.117
 110032331.233 8  85739577.841 7  20938462.398                    20938470.320
 125253245.160 6  97599925.195 6  23834880.094                    23834890.391
 110464155.147 8  86076101.169 7  21020603.039                    21020611.355
 121394015.980 7  94592792.764 7  23100515.047                    23100526.438
 129315735.423 7 100765479.42443  24607973.789                    24607990.039
 109000261.390 8  84935473.46246  20742050.797                    20742056.938
 121752502.361 7  94872147.62044  23168733.555                    23168743.281
 11  8 26  0 27 30.0000000  0  9G04G10G12G17G05G25G09G02G30
 119105909.604 7  92809925.46344  22665081.719                    22665090.734
 111009720.013 8  86501208.08146  21124419.289                    21124427.820
 110001245.962 8  85715355.559 7  20932547.359                    20932554.867
 125315444.143 6  97648391.899 6  23846716.898                    23846727.766
 110399186.282 8  86025476.134 7  21008240.055                    21008248.480
 121309755.995 7  94527135.645 7  23084480.633                    23084492.023
 129396751.726 7 100828608.67543  24623390.344                    24623407.527
 109015308.137 8  84947198.20646  20744913.852                    20744919.848
 121668329.330 7  94806558.29444  23152716.102                    23152725.648
 11  8 26  0 28  0.0000000  0  9G04G10G12G17G05G25G09G02G30
 119187025.695 7  92873132.77644  22680517.711                    22680527.195
 111050534.216 8  86533011.36546  21132185.766                    21132194.422
 109970703.924 8  85691556.581 7  20926734.883                    20926742.711
 125377829.910 6  97697004.178 6  23858587.500                    23858599.508
 110334685.736 8  85975216.018 7  20995965.797                    20995973.953
 121225830.325 7  94461739.064 6  23068510.000                    23068521.824
 129477732.922 7 100891710.61643  24638801.055                    24638817.328
 109030562.588 8  84959084.78946  20747816.977                    20747823.094
 121584542.353 7  94741269.75244  23136772.211                    23136781.578
 11  8 26  0 28 30.0000000  0  9G04G10G12G17G05G25G09G02G30
 119268166.791 7  92936359.57944  22695957.703                    22695967.793
 111091931.452 8  86565268.95446  21140063.188                    21140071.773
 109940706.736 8  85668182.156 7  20921026.734                    20921034.586
 125440402.376 6  97745761.908 6  23870494.266                    23870505.309
 110270655.773 8  85925322.587 7  20983781.227                    20983789.332
 121142241.760 7  94396605.139 7  23052603.789                    23052615.309
 129558676.301 6 100954783.02343  24654203.680                    24654221.137
 109046023.594 8  84971132.33946  20750759.320                    20750765.242
 121501144.211 7  94676284.20944  23120901.742                    23120911.098
 11  8 26  0 29  0.0000000  0  9G04G10G12G17G05G25G09G02G30
 119349331.601 7  92999604.85944  22711403.281                    22711412.617
 111133910.080 8  86597979.58446  21148051.797                    21148060.352
 109911255.641 8  85645233.258 7  20915422.625                    20915430.406
 125503162.109 6  97794665.625 6  23882438.164                    23882447.703
 110207098.648 8  85875797.614 7  20971686.555                    20971695.102
 121058992.829 7  94331735.872 6  23036762.234                    23036772.938
 129639578.305 6 101017823.22143  24669599.641                    24669616.336
 109061690.022 8  84983339.95946  20753740.125                    20753746.422
 121418137.591 7  94611603.74744  23105106.469                    23105115.652
 11  8 26  0 29 30.0000000  0  9G04G10G12G17G05G25G09G02G30
 119430518.653 7  93062867.45844  22726852.297                    22726862.141
 111176468.583 8  86631142.05846  21156150.141                    21156158.531
 109882352.265 8  85622711.156 7  20909922.289                    20909930.090
 125566109.610 7  97843715.636 6  23894416.781                    23894426.980
 110144016.375 8  85826642.661 7  20959682.305                    20959690.945
 120976086.341 7  94267133.457 7  23020985.000                    23020997.273
 129720436.140 7 101080829.04344  24684986.953                    24685003.410
 109077560.974 8  84995706.94446  20756760.320                    20756766.605
 121335525.235 7  94547230.51544  23089385.430                    23089395.184
 11  8 26  0 30  0.0000000  0  9G04G10G12G17G05G25G09G02G30
 119511726.868 7  93126146.53844  22742305.883                    22742315.547
 111219605.131 8  86664754.95646  21164358.703                    21164367.227
 109853997.548 8  85600616.582 7  20904526.633                    20904534.844
 125629244.971 6  97892912.030 6  23906429.938                    23906441.836
 110081411.252 8  85777859.508 7  20947768.938                    20947777.340
 120893524.843 7  94202799.887 7  23005274.391                    23005285.438
 129801246.729 7 101143798.07243  24700364.742                    24700381.188
 109093635.428 8  85008232.50446  20759819.313                    20759825.480
 121253309.880 7  94483166.61944  23073741.000                    23073749.902
 11  8 26  0 30 30.0000000  0  9G04G10G12G17G05G25G09G02G30
 119592954.796 7  93189440.98644  22757763.180                    22757773.020
 111263317.835 8  86698816.81246  21172677.078                    21172685.344
 109826192.800 8  85578950.544 7  20899235.367                    20899243.363
 125692568.332 6  97942254.880 6  23918480.250                    23918492.402
 110019285.236 8  85729449.682 7  20935946.547                    20935955.445
 120811310.798 7  94138737.073 7  22989629.781                    22989640.957
 129882007.013 7 101206727.95343  24715732.820                    24715749.070
 109109911.707 8  85020915.31846  20762916.492                    20762922.512
 121171493.992 7  94419413.98844  23058171.461                    23058180.703
 11  8 26  0 31  0.0000000  0  9G04G10G12G17G05G25G09G02G30
 119674201.034 7  93252749.70244  22773223.914                    22773233.820
 111307604.939 7  86733326.26146  21181104.703                    21181112.781
 109798939.170 8  85557713.960 7  20894048.984                    20894056.910
 125756079.934 6  97991744.405 6  23930566.703                    23930577.375
 109957640.228 8  85681414.666 7  20924216.102                    20924224.402
 120729446.776 7  94074946.995 7  22974051.281                    22974062.555
 129962713.998 7 101269616.21644  24731091.484                    24731108.398
 109126388.629 8  85033754.49146  20766052.102                    20766058.234
 121090080.092 7  94355974.59444  23042679.180                    23042687.703
 11  8 26  0 31 30.0000000  0  9G04G10G12G17G05G25G09G02G30
 119755464.430 7  93316071.79144  22788687.555                    22788697.746
 111352465.118 8  86768282.24345  21189641.398                    21189649.563
 109772237.881 8  85536907.770 7  20888967.992                    20888975.910
 125819779.825 7  98041380.747 5  23942689.102                    23942696.828
 109896478.195 8  85633755.992 7  20912577.406                    20912585.902
 120647935.421 7  94011431.731 7  22958540.383                    22958551.566
 130043365.089 6 101332460.89743  24746438.031                    24746455.723
 109143065.262 8  85046749.28246  20769225.477                    20769231.879
 121009071.025 7  94292850.65144  23027263.398                    23027272.527
 11  8 26  0 32  0.0000000  0  9G04G10G12G17G05G25G09G02G30
 119836743.803 7  93379406.31844  22804154.641                    22804164.867
 111397896.569 7  86803683.38745  21198286.633                    21198294.973
 109746090.452 8  85516533.160 7  20883992.367                    20884000.047
 125883668.606 7  98091164.253 6  23954845.617                    23954855.801
 109835801.285 8  85586475.335 7  20901030.977                    20901039.160
 120566779.347 7  93948193.328 7  22943096.250                    22943107.746
 130123957.103 6 101395259.64344  24761775.563                    24761792.832
 109159940.475 8  85059898.81046  20772436.625                    20772442.949
 120928469.264 7  94230044.10844  23011924.930                    23011934.535
 11  8 26  0 32 30.0000000  0  9G04G10G12G17G05G25G09G02G30
 119918037.686 7  93442752.15044  22819625.234                    22819634.238
 111443897.321 8  86839528.11445  21207040.813                    21207048.594
 109720498.347 8  85496591.263 7  20879122.094                    20879130.391
 125947746.507 6  98141095.029 6  23967038.289                    23967050.551
 109775611.406 8  85539574.181 7  20889577.305                    20889585.668
 120485981.066 8  93885233.702 7  22927721.313                    22927732.535
 130204486.983 6 101458009.86943  24777098.328                    24777117.648
 109177012.846 8  85073201.96846  20775685.508                    20775691.336
 120848277.407 7  94167556.96444  22996665.281                    22996674.367
 11  8 26  0 33  0.0000000  0  9G04G10G12G17G05G25G09G02G30
 119999344.808 7  93506108.31344  22835096.805                    22835106.246
 111490465.665 8  86875815.15645  21215901.984                    21215910.043
 109695462.026 8  85477082.451 7  20874358.211                    20874366.078
 126012013.199 6  98191172.918 6  23979268.773                    23979279.887
 109715910.652 8  85493054.172 7  20878216.000                    20878224.492
 120405543.141 7  93822554.890 7  22912414.023                    22912425.336
 130284952.155 6 101520709.68643  24792412.133                    24792429.852
 109194281.296 8  85086657.90346  20778971.133                    20778977.344
 120768498.155 7  94105391.34044  22981483.789                    22981493.328
 11  8 26  0 33 30.0000000  0  9G04G10G12G17G05G25G09G02G30
 120080664.217 7  93569474.05144  22850571.500                    22850580.938
 111537599.714 8  86912542.97246  21224871.484                    21224879.777
 109670982.886 8  85458007.798 7  20869699.891                    20869707.852
 126076469.374 6  98241398.524 6  23991533.477                    23991544.430
 109656701.247 8  85446917.033 7  20866949.203                    20866957.258
 120325468.138 7  93760158.863 7  22897176.375                    22897187.613
 130365349.287 6 101583356.53643  24807710.242                    24807728.734
 109211744.648 8  85100265.71946  20782294.750                    20782300.664
 120689133.967 7  94043549.16544  22966380.703                    22966390.727
 11  8 26  0 34  0.0000000  0  9G04G10G12G17G05G25G09G02G30
 120161994.330 7  93632848.14144  22866047.883                    22866057.234
 111585297.788 8  86949710.31145  21233947.758                    21233956.027
 109647062.127 8  85439368.249 7  20865148.164                    20865155.977
 126141114.960 6  98291771.671 6  24003835.453                    24003846.840
 109597984.492 8  85401163.761 7  20855775.617                    20855784.324
 120245758.611 7  93698047.631 7  22882008.047                    22882019.777
 130445675.699 6 101645948.17944  24822997.984                    24823015.297
 109229401.705 8  85114024.48746  20785654.531                    20785660.797
 120610187.508 7  93982032.50844  22951358.359                    22951367.348
 11  8 26  0 34 30.0000000  0  9G04G10G12G17G05G25G09G02G30
 120243334.088 7  93696229.73544  22881526.797                    22881536.102
 111633558.045 8  86987315.71645  21243131.375                    21243139.805
 109623700.763 8  85421164.599 7  20860702.344                    20860710.441
 126205950.482 6  98342292.769 6  24016174.211                    24016185.969
 109539762.753 8  85355796.215 7  20844696.250                    20844704.598
 120166417.052 7  93636223.110 7  22866909.922                    22866920.488
 130525928.016 6 101708482.20742  24838268.531                    24838286.266
 109247251.416 8  85127933.36546  20789051.055                    20789057.672
 120531661.302 7  93920843.31644  22936415.164                    22936424.633
 11  8 26  0 35  0.0000000  0  9G04G10G12G17G05G25G09G02G30
 120324682.741 7  93759618.25244  22897006.906                    22897016.305
 111682379.071 8  87025358.06445  21252421.625                    21252430.391
 109600900.728 8  85403398.346 7  20856363.703                    20856371.707
 126270976.089 6  98392962.045 6  24028548.125                    24028559.078
 109482038.223 8  85310816.127 8  20833711.813                    20833720.004
 120087446.576 7  93574687.763 7  22851882.367                    22851893.203
 130606104.29715 101770956.87652  24853525.375                    24853543.352
 109265293.042 8  85141991.78646  20792484.570                    20792490.766
 120453558.429 7  93859984.01844  22921552.695                    22921561.996
 11  8 26  0 35 30.0000000  0  8G04G10G12G17G05G25G02G30
 120406039.066 7  93823012.75144  22912488.383                    22912498.254
 111731758.939 7  87063835.87845  21261818.438                    21261826.770
 109578662.449 8  85386069.826 7  20852131.906                    20852139.801
 126336192.184 6  98443779.743 6  24040957.516                    24040968.984
 109424812.671 8  85266224.844 8  20822822.102                    20822830.305
 120008849.687 7  93513443.495 7  22836925.906                    22836936.988
 109283525.064 8  85156198.56146  20795954.055                    20795960.047
 120375881.333 7  93799456.48844  22906770.695                    22906780.273
 11  8 26  0 36  0.0000000  0  8G04G10G12G17G05G25G02G30
 120487402.938 7  93886413.12844  22927971.141                    22927981.027
 111781696.687 8  87102748.40746  21271321.422                    21271329.883
 109556988.033 8  85369180.664 7  20848007.273                    20848015.293
 126401599.849 6  98494746.707 6  24053404.477                    24053415.176
 109368089.046 8  85222024.668 7  20812027.680                    20812036.156
 119930629.724 7  93452492.954 7  22822041.016                    22822052.281
 109301947.905 8  85170554.03646  20799459.797                    20799465.801
 120298633.496 7  93739263.46244  22892070.938                    22892080.367
 11  8 26  0 36 30.0000000  0  8G04G10G12G17G05G25G02G30
 120568771.126 6  93949816.86844  22943454.883                    22943465.129
 111832188.424 7  87142092.60345  21280929.805                    21280938.270
 109535876.996 8  85352730.506 7  20843989.789                    20843998.172
 126467197.721 6  98545861.844 6  24065887.422                    24065898.707
 109311867.631 8  85178215.827 7  20801329.047                    20801337.473
 119852787.565 8  93391836.759 7  22807228.383                    22807239.152
 109320558.601 8  85185055.88746  20803001.313                    20803007.191
 120221815.738 7  93679405.53144  22877453.070                    22877462.324
 11  8 26  0 37  0.0000000  0  8G04G10G12G17G05G25G02G30
 120650142.788 7  94013223.31344  22958939.648                    22958949.770
 111883232.205 8  87181866.96845  21290643.008                    21290651.586
 109515330.208 8  85336720.026 7  20840079.641                    20840088.160
 126532985.777 6  98597125.199 6  24078405.563                    24078417.609
 109256149.839 8  85134799.422 8  20790726.641                    20790735.023
 119775325.532 7  93331476.758 7  22792487.578                    22792498.426
 109339355.480 8  85199702.80646  20806578.117                    20806583.730
 120145430.334 7  93619884.50844  22862917.414                    22862926.914
 11  8 26  0 37 30.0000000  0  8G04G10G12G17G05G25G02G30
 120731516.811 7  94076631.57444  22974424.242                    22974434.301
 111934826.579 8  87222070.37245  21300460.641                    21300469.359
 109495349.075 8  85321150.320 7  20836277.828                    20836286.016
 126598964.189 6  98648536.919 6  24090962.742                    24090973.238
 109200938.077 8  85091777.320 8  20780220.234                    20780228.410
 119698246.582 7  93271415.276 7  22777819.969                    22777831.203
 109358337.849 8  85214494.26946  20810190.461                    20810196.141
 120069480.339 7  93560702.78444  22848464.547                    22848473.965
 11  8 26  0 38  0.0000000  0  8G04G10G12G17G05G25G02G30
 120812892.272 7  94140040.98244  22989909.867                    22989919.914
 111986969.686 8  87262701.34745  21310383.469                    21310391.836
 109475934.553 8  85306022.103 7  20832583.250                    20832590.984
 126665133.302 7  98700097.231 6  24103553.563                    24103565.035
 109146234.065 8  85049150.865 8  20769809.633                    20769818.465
 119621553.352 7  93211654.355 7  22763225.633                    22763236.762
 109377504.881 8  85229429.61646  20813837.813                    20813843.633
 119993968.296 7  93501862.31844  22834094.734                    22834104.707
 11  8 26  0 38 30.0000000  0  8G04G10G12G17G05G25G02G30
 120894267.485 7  94203450.20344  23005395.414                    23005405.438
 112039658.802 8  87303757.80445  21320410.164                    21320418.125
 109457086.515 8  85291335.327 7  20828996.516                    20829004.820
 126731493.295 7  98751806.254 6  24116181.117                    24116192.957
 109092039.013 8  85006921.007 7  20759497.008                    20759505.285
 119545247.608 8  93152195.360 7  22748705.039                    22748716.352
 109396854.648 8  85244507.36846  20817519.695                    20817525.719
 119918895.938 7  93443364.44844  22819809.109                    22819818.352
 11  8 26  0 39  0.0000000  0  8G04G10G12G17G05G25G02G30
 120975642.182 7  94266858.99944  23020880.438                    23020890.262
 112092892.831 8  87345238.85645  21330539.992                    21330547.918
 109438807.654 8  85277092.057 7  20825518.367                    20825526.789
 126798044.163 7  98803664.044 6  24128845.328                    24128856.957
 109038355.671 8  84965089.883 7  20749281.125                    20749289.383
 119469332.900 7  93093041.057 7  22734259.117                    22734270.098
 109416387.167 8  85259727.51746  20821236.695                    20821242.688
 119844266.801 7  93385211.97944  22805607.688                    22805617.063
 11  8 26  0 39 30.0000000  0  8G04G10G12G17G05G25G02G30
 121057014.475 7  94330265.93944  23036365.328                    23036375.008
 112146668.802 8  87387142.21045  21340773.258                    21340781.445
 109421097.464 8  85263291.915 7  20822148.078                    20822156.332
 126864785.911 7  98855670.575 6  24141546.367                    24141557.453
 108985184.868 8  84923658.138 7  20739163.008                    20739171.613
 119393811.004 7  93034192.856 7  22719887.898                    22719898.641
 109436100.554 8  85275088.60646  20824988.336                    20824993.965
 119770082.640 7  93327406.19644  22791491.039                    22791500.172
 11  8 26  0 40  0.0000000  0  8G04G10G12G17G05G25G02G30
 121138384.006 7  94393670.75544  23051849.453                    23051859.125
 112200985.512 8  87429466.91345  21351109.688                    21351117.969
 109403957.733 8  85249936.284 7  20818886.586                    20818894.148
 126931718.836 6  98907826.058 6  24154283.336                    24154294.328
 108932528.899 8  84882627.565 8  20729143.133                    20729151.477
 119318684.800 7  92975652.960 7  22705591.586                    22705602.840
 109455994.109 8  85290590.08046  20828773.883                    20828779.766
 119696346.389 7  93269949.42245  22777459.391                    22777468.477
 11  8 26  0 40 30.0000000  0  8G04G10G12G17G05G25G02G30
 121219749.152 7  94457072.13344  23067332.367                    23067342.316
 112255840.440 8  87472211.00145  21361547.914                    21361556.457
 109387388.676 8  85237025.336 7  20815733.852                    20815741.883
 126998843.046 6  98960130.608 6  24167056.500                    24167068.242
 108880389.184 8  84841999.266 7  20719221.125                    20719229.762
 119243956.518 7  92917423.145 7  22691371.438                    22691382.488
 109476066.496 8  85306230.91246  20832593.617                    20832599.418
 119623060.090 7  93212843.26744  22763513.727                    22763523.043
 11  8 26  0 41  0.0000000  0  8G04G10G12G17G05G25G02G30
 121301108.970 7  94520469.36144  23082815.016                    23082824.863
 112311231.454 8  87515372.82145  21372088.313                    21372096.785
 109371391.170 8  85224559.759 7  20812689.422                    20812697.340
 127066158.616 6  99012584.254 6  24179866.547                    24179877.164
 108828767.659 8  84801774.742 8  20709398.109                    20709406.367
 119169628.527 7  92859505.233 7  22677227.461                    22677238.039
 109496316.550 8  85322010.19646  20836447.078                    20836452.941
 119550226.155 7  93156089.58244  22749653.617                    22749662.742
 11  8 26  0 41 30.0000000  0  8G04G10G12G17G05G25G02G30
 121382462.586 7  94583861.76644  23098295.617                    23098305.891
 112367156.967 8  87558951.13045  21382730.422                    21382738.996
 109355966.466 8  85212540.512 7  20809754.320                    20809762.559
 127133665.776 6  99065187.241 6  24192712.594                    24192724.125
 108777665.935 8  84761955.272 8  20699673.391                    20699681.699
 119095703.545 7  92801901.345 7  22663159.477                    22663170.648
 109516743.396 8  85337927.22246  20840334.016                    20840340.188
 119477847.334 7  93099690.54744  22735880.648                    22735889.191
 11  8 26  0 42  0.0000000  0  8G04G10G12G17G05G25G02G30
 121463808.616 7  94647248.25444  23113775.305                    23113785.418
 112423614.170 8  87602943.75645  21393474.086                    21393482.559
 109341114.962 8  85200967.919 7  20806928.148                    20806936.113
 127201364.341 6  99117939.371 6  24205595.227                    24205606.180
 108727085.345 8  84722541.866 7  20690048.422                    20690056.617
 119022183.835 7  92744613.269 7  22649169.242                    22649180.395
 109537345.831 8  85353981.09046  20844254.477                    20844260.527
 119405925.844 7  93043647.86344  22722193.688                    22722203.277
 11  8 26  0 42 30.0000000  0  8G04G10G12G17G05G25G02G30
 121545146.244 7  94710628.21044  23129253.984                    23129263.527
 112480601.157 8  87647349.19745  21404318.281                    21404326.949
 109326836.924 8  85189842.191 7  20804211.055                    20804218.559
 127269254.399 6  99170840.675 6  24218514.203                    24218524.926
 108677027.461 8  84683535.776 8  20680522.680                    20680530.941
 118949071.870 7  92687642.928 7  22635256.672                    22635267.633
 109558122.613 8  85370170.80046  20848208.133                    20848214.188
 119334464.085 7  92987963.41044  22708595.492                    22708604.461
 11  8 26  0 43  0.0000000  0  8G04G10G12G17G05G25G02G30
 121626474.458 7  94774000.83944  23144729.828                    23144739.359
 112538115.646 8  87692165.67345  21415263.422                    21415271.926
 109313133.545 8  85179164.252 7  20801603.625                    20801611.297
 127337336.244 6  99223891.496 6  24231468.930                    24231480.730
 108627494.043 8  84644938.361 8  20671096.570                    20671104.543
 118876370.110 7  92630992.216 7  22621421.867                    22621432.938
 109579072.996 8  85386495.79246  20852195.031                    20852200.863
 119263464.382 7  92932639.00844  22695084.320                    22695093.504
 11  8 26  0 43 30.0000000  0  8G04G10G12G17G05G25G02G30
 121707792.015 6  94837365.15944  23160203.313                    23160213.871
 112596155.299 8  87737391.36745  21426307.891                    21426316.723
 109300005.507 8  85168934.639 7  20799105.070                    20799113.051
 127405609.616 6  99277091.500 6  24244462.266                    24244473.066
 108578486.620 8  84606750.813 8  20661770.945                    20661779.031
 118804080.730 7  92574662.833 7  22607665.570                    22607676.723
 109600195.368 8  85402954.79146  20856214.414                    20856220.668
 119192928.949 7  92877676.35844  22681661.867                    22681671.527
 11  8 26  0 44  0.0000000  0  8G04G10G12G17G05G25G02G30
 121789098.080 7  94900720.53744  23175675.633                    23175685.402
 112654718.255 7  87783024.82645  21437451.586                    21437460.512
 109287453.496 8  85159153.880 7  20796716.703                    20796724.609
 127474074.925 6  99330441.058 5  24257489.695                    24257501.000
 108530006.633 8  84568974.247 8  20652545.445                    20652553.398
 118732206.244 7  92518656.743 7  22593988.352                    22593999.695
 109621488.977 8  85419547.23946  20860266.203                    20860272.449
 119122860.275 7  92823077.42144  22668328.570                    22668337.070
 11  8 26  0 44 30.0000000  0  8G04G10G12G17G05G25G02G30
 121870391.840 7  94964066.29944  23191145.813                    23191155.637
 112713802.499 8  87829064.48645  21448695.000                    21448704.172
 109275478.458 8  85149822.703 7  20794437.859                    20794445.762
 127542732.033 6  99383940.139 6  24270554.531                    24270566.664
 108482056.157 8  84531610.293 8  20643420.516                    20643428.969
 118660749.352 7  92462976.049 7  22580390.750                    22580401.383
 109642953.031 8  85436272.48346  20864350.766                    20864357.066
 119053260.869 7  92768844.13744  22655083.500                    22655092.848
 11  8 26  0 45  0.0000000  0  8G04G10G12G17G05G25G02G30
 121951671.935 7  95027401.41944  23206612.883                    23206622.520
 112773405.269 8  87875508.20045  21460037.047                    21460045.262
 109264080.337 8  85140941.073 7  20792268.602                    20792276.316
 127611580.820 6  99437588.509 6  24283656.328                    24283668.133
 108434636.107 8  84494659.656 8  20634396.867                    20634405.320
 118589711.950 7  92407622.234 7  22566872.828                    22566883.211
 109664585.733 8  85453129.14546  20868467.398                    20868473.395
 118984132.704 7  92714978.03944  22641929.453                    22641938.453
 11  8 26  0 45 30.0000000  0  8G04G10G12G17G05G25G02G30
 122032937.653 7  95090725.34244  23222077.188                    23222087.066
 112833524.973 8  87922354.71045  21471477.766                    21471486.031
 109253260.088 8  85132509.735 7  20790209.742                    20790217.605
 127680621.607 6  99491386.458 6  24296795.203                    24296805.805
 108387748.215 8  84458123.689 8  20625474.539                    20625482.465
 118519096.890 7  92352597.527 7  22553435.078                    22553445.496
 109686386.780 8  85470116.99646  20872616.094                    20872621.582
 118915478.576 7  92661481.33744  22628864.539                    22628873.418
 11  8 26  0 46  0.0000000  0  8G04G10G12G17G05G25G02G30
 122114187.620 7  95154036.97544  23237538.414                    23237548.371
 112894158.165 8  87969601.34445  21483015.570                    21483023.910
 109243017.741 8  85124528.694 7  20788261.070                    20788268.766
 127749853.708 6  99545333.603 6  24309969.039                    24309980.656
 108341393.550 8  84422003.225 8  20616653.219                    20616661.645
 118448905.917 7  92297903.265 7  22540078.078                    22540089.145
 109708354.097 8  85487234.39746  20876796.586                    20876802.566
 118847300.138 7  92608355.28844  22615890.297                    22615899.496
 11  8 26  0 46 30.0000000  0  8G04G10G12G17G05G25G02G30
 122195421.194 7  95217335.83544  23252996.711                    23253006.758
 112955303.347 7  88017246.94545  21494651.508                    21494659.738
 109233354.476 8  85116998.894 7  20786421.930                    20786429.660
 127819277.914 6  99599430.338 6  24323180.195                    24323192.117
 108295573.733 8  84386299.522 8  20607934.070                    20607942.457
 118379141.810 7  92243541.633 7  22526802.563                    22526813.301
 109730487.526 8  85504481.24146  20881008.117                    20881014.137
 118779599.957 7  92555601.90444  22603008.383                    22603016.434
 11  8 26  0 47  0.0000000  0  8G04G10G12G17G05G25G02G30
 122276637.428 7  95280621.19244  23268451.500                    23268461.941
 113016958.206 8  88065289.68645  21506383.789                    21506393.008
 109224270.839 8  85109920.753 7  20784693.352                    20784701.086
 127888893.985 6  99653676.612 6  24336427.469                    24336439.211
 108250290.429 8  84351013.882 8  20599316.852                    20599325.383
 118309806.786 7  92189514.355 7  22513608.586                    22513619.250
 109752785.927 8  85521856.62546  20885251.492                    20885257.203
 118712380.380 7  92503223.01045  22590216.500                    22590225.160
 11  8 26  0 47 30.0000000  0  8G04G10G12G17G05G25G02G30
 122357835.306 7  95343892.22744  23283902.492                    23283912.910
 113079120.465 7  88113727.79645  21518212.602                    21518221.332
 109215766.786 8  85103294.223 7  20783075.023                    20783082.828
 127958701.686 7  99708072.235 6  24349711.625                    24349723.676
 108205544.836 8  84316147.235 8  20590802.227                    20590810.492
 118240903.253 7  92135823.318 7  22500496.313                    22500507.445
 109775247.924 8  85539359.49046  20889525.570                    20889531.523
 118645643.616 7  92451220.34944  22577516.734                    22577525.957
 11  8 26  0 48  0.0000000  0  9G04G10G12G17G05G25G29G02G30
 122439014.206 6  95407148.49044  23299351.180                    23299361.145
 113141787.846 7  88162559.51545  21530138.563                    21530146.629
 109207843.031 8  85097119.871 7  20781566.922                    20781574.629
 128028701.225 6  99762617.303 6  24363032.445                    24363044.363
 108161338.392 8  84281700.708 8  20582389.797                    20582397.953
 118172433.591 7  92082470.374 7  22487467.086                    22487478.070
 129589601.42216                  24660093.109
 109797872.920 8  85556989.35446  20893831.133                    20893837.113
 118579391.925 7  92399595.64744  22564909.555                    22564918.473
 11  8 26  0 48 30.0000000  0  9G04G10G12G17G05G25G29G02G30
 122520173.002 6  95470389.06844  23314795.258                    23314805.020
 113204957.952 8  88211782.98045  21542158.945                    21542167.266
 109200500.361 8  85091398.310 7  20780169.563                    20780177.598
 128098892.682 7  99817311.944 6  24376389.242                    24376400.250
 108117672.534 8  84247675.410 8  20574080.727                    20574088.707
 118104400.236 7  92029457.425 7  22474520.500                    22474531.891
 129509743.065 6 100916753.70315  24644896.641                    24644906.707
 109820659.741 8  85574745.31546  20898167.555                    20898173.000
 118513627.636 7  92348350.73445  22552395.453                    22552404.031
 11  8 26  0 49  0.0000000  0  9G04G10G12G17G05G25G29G02G30
 122601311.099 6  95533613.54244  23330235.344                    23330245.102
 113268628.487 8  88261396.38245  21554275.508                    21554283.551
 109193739.136 8  85086129.821 7  20778883.172                    20778891.180
 128169276.149 7  99872156.175 6  24389783.063                    24389794.125
 108074548.668 8  84214072.443 8  20565874.398                    20565882.238
 118036805.438 7  91976786.226 7  22461657.805                    22461669.047
 129429803.323 6 100854463.085 5  24629684.508                    24629694.539
 109843607.190 8  85592626.44746  20902534.156                    20902539.867
 118448352.992 7  92297487.35145  22539973.859                    22539982.910
 11  8 26  0 49 30.0000000  0  9G04G10G12G17G05G25G29G02G30
 122682427.135 6  95596820.80844  23345671.109                    23345681.559
 113332796.725 8  88311397.62245  21566486.203                    21566494.164
 109187559.652 8  85081314.625 7  20777706.906                    20777715.242
 128239851.141 7  99927149.696 6  24403213.055                    24403224.496
 108031967.899 8  84180892.671 8  20557771.422                    20557779.121
 117969651.263 7  91924458.352 7  22448878.586                    22448889.668
 129349782.521 6 100792109.281 5  24614456.945                    24614467.270
 109866714.313 8  85610631.99846  20906931.047                    20906936.996
 118383569.977 7  92247007.09345  22527645.695                    22527655.270
 11  8 26  0 50  0.0000000  0  9G04G10G12G17G05G25G29G02G30
 122763520.119 6  95660010.11244  23361102.609                    23361112.672
 113397460.462 8  88361784.95045  21578791.297                    21578799.645
 109181962.025 8  85076952.833 7  20776641.969                    20776650.063
 128310617.605 7  99982292.337 6  24416679.609                    24416690.676
 107989931.131 8  84148136.791 8  20549771.859                    20549780.027
 117902939.773 7  91872475.434 7  22436183.742                    22436194.441
 129269680.962 6 100729692.595 5  24599214.563                    24599225.004
 109889979.705 8  85628760.87546  20911358.477                    20911364.582
 118319280.578 7  92196911.45945  22515411.828                    22515421.254
 11  8 26  0 50 30.0000000  0  9G04G10G12G17G05G25G29G02G30
 122844589.276 6  95723180.85744  23376530.008                    23376540.055
 113462617.190 8  88412556.42245  21591189.742                    21591198.367
 109176946.554 8  85073044.665 8  20775688.000                    20775695.828
 128381575.474 7 100037584.183 6  24430181.844                    24430193.457
 107948439.944 8  84115806.043 8  20541876.477                    20541884.691
 117836673.458 7  91820839.418 7  22423573.805                    22423584.879
 129189499.645 6 100667213.741 6  24583955.586                    24583966.293
 109913402.822 8  85647012.64546  20915815.672                    20915821.605
 118255487.148 7  92147202.30144  22503272.133                    22503281.480
 11  8 26  0 51  0.0000000  0  9G04G10G12G17G05G25G29G02G30
 122925633.335 7  95786332.01844  23391952.375                    23391962.059
 113528263.873 8  88463709.68145  21603681.930                    21603690.863
 109172512.888 8  85069589.842 7  20774844.117                    20774852.059
 128452724.443 7 100093024.924 6  24443721.594                    24443731.992
 107907495.045 8  84083900.971 8  20534085.008                    20534093.305
 117770853.943 7  91769551.574 7  22411048.359                    22411059.566
 129109238.670 6 100604672.802 5  24568682.367                    24568693.039
 109936981.794 8  85665385.86046  20920302.523                    20920308.641
 118192191.316 7  92097880.89845  22491228.117                    22491236.859
 11  8 26  0 51 30.0000000  0  9G04G10G12G17G05G25G29G02G30
 123006651.930 6  95849463.33244  23407369.531                    23407379.145
 113594398.668 8  88515243.29845  21616266.883                    21616276.031
 109168661.977 8  85066589.120 7  20774111.273                    20774118.734
 128524064.660 7 100148614.703 6  24457295.922                    24457307.969
 107867098.226 8  84052422.967 8  20526397.453                    20526405.621
 117705483.982 7  91718614.007 7  22398609.156                    22398619.828
 129028898.864 6 100542070.436 6  24553395.063                    24553405.188
 109960716.268 8  85683880.23946  20924818.992                    20924824.914
 118129395.557 7  92048949.17045  22479278.328                    22479287.270
 11  8 26  0 52  0.0000000  0  9G04G10G12G17G05G25G29G02G30
 123087644.255 7  95912574.16844  23422781.859                    23422791.613
 113661019.466 8  88567155.59945  21628944.945                    21628953.184
 109165394.065 8  85064042.673 7  20773489.555                    20773497.414
 128595596.145 6 100204353.540 6  24470908.758                    24470920.238
 107827250.829 8  84021373.082 8  20518814.750                    20518822.844
 117640565.921 7  91668028.584 7  22386255.531                    22386266.816
 128948480.922 6 100479407.160 6  24538091.875                    24538102.211
 109984605.378 8  85702495.11446  20929365.180                    20929370.527
 118067102.193 7  92000408.94045  22467423.766                    22467433.391
 11  8 26  0 52 30.0000000  0  9G04G10G12G17G05G25G29G02G30
 123168609.197 7  95975663.67244  23438188.094                    23438198.633
 113728123.071 8  88619444.13345  21641713.961                    21641722.887
 109162709.211 8  85061950.565 7  20772978.453                    20772986.449
 128667318.673 6 100260241.178 6  24484556.477                    24484568.648
 107787953.475 8  83990751.807 8  20511336.742                    20511344.668
 117576101.573 7  91617796.702 7  22373988.242                    22373999.168
 128867985.382 6 100416683.458 6  24522773.922                    24522783.984
 110008647.781 8  85721229.44546  20933940.344                    20933946.016
 118005312.893 7  91952261.48045  22455666.039                    22455675.203
 11  8 26  0 53  0.0000000  0  9G04G10G12G17G05G25G29G02G30
 123249546.213 7  96038731.42844  23453590.469                    23453600.645
 113795707.222 7  88672107.10745  21654574.695                    21654583.594
 109160607.931 8  85060313.192 7  20772578.547                    20772586.629
 128739231.990 6 100316277.523 6  24498241.711                    24498252.859
 107749207.533 8  83960560.198 8  20503963.727                    20503971.844
 117512093.307 7  91567920.199 7  22361807.680                    22361818.578
 128787413.057 6 100353899.909 6  24507442.227                    24507451.637
 110032842.585 8  85740082.52946  20938544.133                    20938549.594
 117944029.889 7  91904508.54945  22444004.281                    22444013.000
 11  8 26  0 53 30.0000000  0  8G04G10G12G05G25G29G02G30
 123330455.773 6  96101777.77443  23468987.445                    23468997.480
 113863770.907 7  88725143.75045  21667526.500                    21667535.391
 109159091.501 8  85059131.550 7  20772289.781                    20772297.988
 107711015.386 8  83930800.126 8  20496695.625                    20496703.762
 117448544.719 7  91518401.883 7  22349714.867                    22349725.586
 128706765.928 6 100291058.094 6  24492094.453                    24492104.699
 110057190.344 8  85759054.80146  20943177.445                    20943183.176
 117883256.803 7  91857152.97345  22432439.242                    22432448.430
 11  8 26  0 54  0.0000000  0  8G04G10G12G05G25G29G02G30
 123411335.688 6  96164801.05543  23484377.813                    23484387.992
 113932310.035 7  88778550.86545  21680569.305                    21680577.891
 109158159.040 8  85058404.946 7  20772112.891                    20772120.547
 107673376.715 8  83901471.327 8  20489533.891                    20489541.543
 117385456.546 8  91469242.326 7  22337709.617                    22337720.309
 128626043.324 7 100228157.454 6  24476733.969                    24476743.910
 110081688.523 8  85778144.27946  20947839.703                    20947845.395
 117822993.997 7  91810195.03045  22420971.516                    22420980.715
 11  8 26  0 54 30.0000000  0  8G04G10G12G05G25G29G02G30
 123492184.995 6  96227800.49143  23499763.359                    23499773.016
 114001322.336 8  88832326.69245  21693702.180                    21693710.691
 109157810.310 8  85058133.201 7  20772046.813                    20772054.199
 107636292.626 8  83872574.671 8  20482476.523                    20482484.324
 117322830.959 7  91420443.204 7  22325792.328                    22325803.164
 128545245.917 7 100165198.532 6  24461358.953                    24461368.578
 110106336.323 8  85797350.35946  20952529.813                    20952535.449
 117763243.665 7  91763636.41445  22409601.367                    22409610.352
 11  8 26  0 55  0.0000000  0  8G04G10G12G05G25G29G02G30
 123573002.351 6  96290775.04343  23515141.766                    23515151.840
 114070804.543 8  88886468.68945  21706924.141                    21706932.383
 109158044.617 8  85058315.775 7  20772090.953                    20772098.820
 107599763.607 8  83844110.533 8  20475525.344                    20475532.887
 117260669.241 7  91372005.551 7  22313963.438                    22313973.945
 128464373.496 7 100102181.160 6  24445968.984                    24445978.852
 110131131.622 8  85816671.36246  20957248.336                    20957253.992
 117704006.950 7  91717478.01045  22398329.164                    22398338.398
 11  8 26  0 55 30.0000000  0  8G04G10G12G05G25G29G02G30
 123653787.536 6  96353724.51443  23530514.867                    23530524.984
 114140754.664 7  88940975.27345  21720235.516                    21720243.695
 109158862.747 8  85058953.283 7  20772246.680                    20772254.328
 107563790.969 8  83816079.947 8  20468679.844                    20468687.652
 117198974.106 7  91323931.447 7  22302223.039                    22302233.855
 128383427.338 7 100039106.321 6  24430565.078                    24430575.055
 110156074.252 8  85836107.16646  20961994.719                    20962000.758
 117645286.344 7  91671721.75345  22387155.141                    22387163.621
 11  8 26  0 56  0.0000000  0  8G04G10G12G05G25G29G02G30
 123734540.011 7  96416648.49043  23545882.266                    23545892.160
 114211170.145 8  88995844.50145  21733634.727                    21733642.996
 109160264.789 8  85060045.780 7  20772513.648                    20772521.000
 107528376.087 8  83788483.972 8  20461940.594                    20461948.488
 117137747.973 7  91276222.790 7  22290572.078                    22290582.863
 128302408.414 7  99975974.820 6  24415147.703                    24415157.594
 110181163.640 8  85855657.34646  20966769.039                    20966775.027
 117587084.102 7  91626369.41845  22376079.305                    22376088.480
 11  8 26  0 56 30.0000000  0  8G04G10G12G05G25G29G02G30
 123815258.855 7  96479546.28643  23561242.273                    23561252.141
 114282048.581 8  89051074.46645  21747122.430                    21747131.199
 109162251.143 8  85061593.587 7  20772891.578                    20772899.262
 107493519.908 8  83761323.347 8  20455307.984                    20455315.602
 117076992.839 8  91228881.154 7  22279010.727                    22279021.797
 128221317.367 7  99912787.063 6  24399717.227                    24399726.355
 110206398.752 8  85875321.06546  20971570.539                    20971576.438
 117529402.099 7  91581422.46945  22365102.695                    22365111.691
 11  8 26  0 57  0.0000000  0  8G04G10G12G05G25G29G02G30
 123895943.196 7  96542417.18043  23576596.609                    23576605.488
 114353387.141 8  89106662.96245  21760698.031                    21760706.387
 109164821.465 8  85063596.451 7  20773380.555                    20773388.461
 107459223.013 8  83734598.535 8  20448781.172                    20448788.500
 117016710.550 7  91181907.954 7  22267539.555                    22267550.430
 128140154.793 6  99849543.598 6  24384272.484                    24384281.277
 110231778.285 8  85895097.32946  20976400.484                    20976406.570
 117472242.112 7  91536882.27045  22354225.656                    22354234.406
 11  8 26  0 57 30.0000000  0  8G04G10G12G05G25G29G02G30
 123976592.509 7  96605260.77843  23591943.398                    23591953.246
 114425183.429 7  89162608.11945  21774360.398                    21774368.590
 109167975.780 8  85066054.362 7  20773980.766                    20773988.754
 107425486.666 8  83708310.509 8  20442361.359                    20442369.484
 116956903.471 7  91135305.044 7  22256158.516                    22256169.184
 128058921.613 6  99786245.127 6  24368813.734                    24368823.535
 110257301.676 8  85914985.68946  20981257.461                    20981263.238
 117415606.260 7  91492750.48945  22343448.117                    22343457.426
 11  8 26  0 58  0.0000000  0  8G04G10G12G05G25G29G02G30
 124057205.696 7  96668076.23443  23607283.203                    23607293.133
 114497434.502 8  89218907.65745  21788109.484                    21788117.754
 109171713.485 8  85068966.870 7  20774692.195                    20774699.738
 107392311.104 8  83682459.460 8  20436048.086                    20436056.090
 116897573.066 7  91089073.568 7  22244868.250                    22244879.273
 127977618.168 6  99722891.924 6  24353341.742                    24353351.934
 110282967.234 8  85934984.83446  20986141.461                    20986147.676
 117359495.843 7  91449028.11645  22332770.844                    22332778.934
 11  8 26  0 58 30.0000000  0  8G04G10G12G05G25G29G02G30
 124137782.535 7  96730863.34943  23622616.844                    23622626.535
 114570138.171 8  89275559.87545  21801944.016                    21801952.555
 109176034.968 8  85072334.266 7  20775514.203                    20775522.230
 107359697.840 8  83657046.565 8  20429842.031                    20429850.055
 116838721.952 7  91043215.568 7  22233669.367                    22233680.277
 127896245.628 6  99659484.839 6  24337857.500                    24337866.801
 110308774.831 8  85955094.65746  20991052.273                    20991058.648
 117303913.313 7  91405717.09845  22322193.805                    22322202.051
 11  8 26  0 59  0.0000000  0  8G04G10G12G05G25G29G02G30
 124218322.132 7  96793621.46143  23637942.375                    23637952.422
 114643291.668 8  89332562.60145  21815865.047                    21815873.070
 109180940.479 8  85076156.753 7  20776447.813                    20776455.379
 107327647.848 8  83632072.593 8  20423742.766                    20423750.965
 116780352.152 8  90997732.610 7  22222562.047                    22222572.949
 127814804.553 6  99596024.354 5  24322359.070                    24322369.246
 110334723.520 8  85975314.42946  20995990.188                    20995996.340
 117248860.520 7  91362818.84545  22311717.094                    22311726.004
 11  8 26  0 59 30.0000000  0  8G04G10G12G05G25G29G02G30
 124298823.398 7  96856349.70043  23653261.289                    23653271.734
 114716892.092 8  89389913.57645  21829869.727                    21829878.832
 109186429.043 8  85080433.558 7  20777492.391                    20777500.672
 107296161.418 8  83607537.749 8  20417751.250                    20417759.449
 116722465.043 7  90952625.774 7  22211546.406                    22211556.828
 127733295.212 6  99532510.669 5  24306848.617                    24306857.988
 110360811.490 8  85995642.73146  21000954.664                    21000960.652
 117194338.638 7  91320334.28745  22301341.688                    22301350.496
 11  8 26  1  0  0.0000000  0  8G04G10G12G05G25G29G02G30
 124379286.301 7  96919048.07044  23668573.672                    23668583.719
 114790937.407 7  89447611.21545  21843960.984                    21843969.387
 109192501.141 8  85085165.073 7  20778647.828                    20778655.703
 107265239.779 8  83583443.004 8  20411867.234                    20411875.074
 116665063.371 7  90907897.213 7  22200623.203                    22200634.176
 127651719.378 6  99468945.169 5  24291325.227                    24291334.410
 110387038.993 8  86016079.75946  21005945.586                    21005951.645
 117140350.247 7  91278265.42645  22291068.234                    22291077.051
 11  8 26  1  0 30.0000000  0  8G04G10G12G05G25G29G02G30
 124459709.680 7  96981715.60144  23683877.445                    23683887.359
 114865424.361 8  89505652.99245  21858135.117                    21858143.684
 109199156.480 8  85090351.057 7  20779914.305                    20779921.977
 107234883.542 8  83559788.840 8  20406090.625                    20406098.082
 116608148.685 7  90863548.117 7  22189792.703                    22189803.398
 127570077.391 6  99405328.084 5  24275788.883                    24275798.477
 110413404.490 8  86036624.31346  21010963.055                    21010968.570
 117086896.766 7  91236613.36745  22280896.859                    22280905.293
 11  8 26  1  1  0.0000000  0  8G04G10G12G05G25G29G02G30
 124540092.877 7  97044351.82544  23699174.008                    23699184.305
 114940350.063 8  89564036.65645  21872393.195                    21872401.680
 109206394.809 8  85095991.318 7  20781291.828                    20781299.727
 107205093.033 8  83536575.491 8  20400421.594                    20400429.434
 116551722.733 7  90819579.874 7  22179055.391                    22179066.023
 127488369.806 6  99341659.916 6  24260240.305                    24260249.906
 110439906.923 8  86057275.58346  21016005.820                    21016011.625
 117033979.750 7  91195379.34645  22270826.906                    22270834.996
 11  8 26  1  1 30.0000000  0  8G04G10G12G05G25G29G02G30
 124620435.519 7  97106956.44944  23714462.609                    23714472.574
 115015712.536 8  89622760.66645  21886734.188                    21886742.273
 109214215.354 8  85102085.251 7  20782779.789                    20782787.664
 107175869.474 8  83513803.923 8  20394860.203                    20394868.578
 116495787.918 8  90775994.341 7  22168410.938                    22168422.078
 127406597.843 7  99277941.594 6  24244680.352                    24244689.824
 110466545.820 8  86078033.17646  21021075.297                    21021081.215
 116981601.293 7  91154564.99545  22260859.273                    22260867.816
 11  8 26  1  2  0.0000000  0  8G04G10G12G05G25G29G02G30
 124700736.954 6  97169528.95743  23729743.305                    23729754.008
 115091508.962 8  89681822.80245  21901157.391                    21901165.980
 109222618.364 8  85108633.053 7  20784378.750                    20784387.078
 107147213.599 8  83491474.712 8  20389407.305                    20389415.344
 116440346.038 8  90732792.906 7  22157860.781                    22157871.391
 127324762.286 7  99214173.685 6  24229107.047                    24229116.465
 110493320.416 8  86098896.51346  21026169.906                    21026176.238
 116929763.171 7  91114171.65745  22250995.203                    22251003.395
 11  8 26  1  2 30.0000000  0  8G04G10G12G05G25G29G02G30
 124780996.298 6  97232068.66243  23745016.367                    23745026.613
 115167736.430 7  89741220.79745  21915663.359                    21915671.836
 109231603.550 8  85115634.494 7  20786088.648                    20786096.316
 107119125.730 8  83469588.093 8  20384061.867                    20384070.496
 116385398.812 8  90689976.928 7  22147404.789                    22147415.371
 127242863.625 6  99150356.639 6  24213522.148                    24213531.629
 110520229.356 8  86119864.53946  21031290.805                    21031296.441
 116878466.880 7  91074200.53245  22241233.547                    22241242.184
 11  8 26  1  3  0.0000000  0  8G04G10G12G05G25G29G02G30
 124861212.716 7  97294574.92343  23760280.492                    23760291.051
 115244391.798 8  89800952.24645  21930250.172                    21930258.758
 109241170.215 8  85123089.037 7  20787908.828                    20787916.953
 107091606.518 8  83448144.594 8  20378825.664                    20378833.867
 116330947.966 8  90647547.738 7  22137043.281                    22137053.711
 127160902.797 6  99086491.171 6  24197925.703                    24197935.582
 110547271.622 8  86140936.46046  21036436.641                    21036443.148
 116827713.816 7  91034652.72145  22231575.508                    22231584.387
 11  8 26  1  3 30.0000000  0  8G04G10G12G05G25G29G02G30
 124941385.702 6  97357047.31443  23775537.094                    23775547.551
 115321472.592 7  89861015.20245  21944918.117                    21944926.934
 109251318.054 8  85130996.442 7  20789840.156                    20789848.188
 107064656.776 8  83427144.834 8  20373696.922                    20373705.531
 116276995.317 7  90605506.761 7  22126776.063                    22126786.836
 127078880.086 6  99022577.453 6  24182317.617                    24182326.578
 110574446.269 8  86162111.51946  21041608.414                    21041614.438
 116777505.700 7  90995529.54045  22222021.406                    22222029.953
 11  8 26  1  4  0.0000000  0  8G04G10G12G05G25G29G02G30
 125021515.141 6  97419485.79843  23790785.516                    23790795.590
 115398976.644 7  89921407.95245  21959666.883                    21959675.445
 109262047.437 8  85139357.000 7  20791881.594                    20791890.000
 107038276.961 8  83406589.170 8  20368677.266                    20368685.395
 116223543.266 8  90563855.871 7  22116604.633                    22116615.594
 126996797.670 7  98958617.209 6  24166697.117                    24166706.590
 110601753.407 8  86183389.83746  21046804.102                    21046810.117
 116727844.686 7  90956832.66345  22212570.922                    22212579.840
 11  8 26  1  4 30.0000000  0  8G04G10G12G05G25G29G02G30
 125101599.828 6  97481889.41444  23806024.938                    23806035.746
 115476900.858 7  89982128.10045  21974495.313                    21974504.180
 109273356.983 8  85148169.627 7  20794033.883                    20794041.930
 107012467.528 8  83386477.960 8  20363765.680                    20363773.957
 116170593.146 8  90522596.094 7  22106528.281                    22106539.281
 126914655.517 7  98894610.423 6  24151066.305                    24151075.648
 110629191.170 8  86204769.92846  21052025.516                    21052031.590
 116678731.896 7  90918562.99345  22203225.078                    22203233.836
 11  8 26  1  5  0.0000000  0  8G04G10G12G05G25G29G02G30
 125181639.827 7  97544258.19443  23821256.602                    23821266.969
 115555242.822 8  90043173.77745  21989403.352                    21989411.797
 109285246.654 8  85157434.296 8  20796296.797                    20796304.750
 106987229.503 8  83366811.996 8  20358963.164                    20358971.645
 116118147.211 7  90481729.180 7  22096548.359                    22096558.988
 126832454.880 6  98830558.080 6  24135423.578                    24135433.375
 110656759.607 8  86226251.84646  21057271.258                    21057277.563
 116630169.396 7  90880722.10345  22193983.977                    22193992.801
 11  8 26  1  5 30.0000000  0  8G04G10G12G05G25G29G02G30
 125261634.036 7  97606591.32743  23836478.805                    23836489.012
 115633999.424 7  90104542.54145  22004390.320                    22004399.094
 109297716.401 8  85167150.976 8  20798669.430                    20798677.563
 106962562.904 8  83347591.302 8  20354269.227                    20354277.441
 116066206.882 8  90441256.232 7  22086664.234                    22086675.383
 126750196.315 6  98766460.577 6  24119770.344                    24119779.352
 110684457.161 8  86247834.36846  21062542.445                    21062548.293
 116582158.348 7  90843310.92145  22184847.672                    22184856.555
 11  8 26  1  6  0.0000000  0  8G04G10G12G05G25G29G02G30
 125341581.780 7  97668888.24143  23851692.336                    23851702.637
 115713167.368 7  90166231.83445  22019455.398                    22019464.211
 109310764.910 8  85177318.637 7  20801152.727                    20801160.348
 106938468.058 8  83328816.136 8  20349684.141                    20349692.313
 116014773.644 8  90401178.422 7  22076876.719                    22076887.656
 126667880.552 6  98702318.519 6  24104106.008                    24104115.203
 110712282.806 8  86269516.70346  21067837.328                    21067842.809
 116534700.048 7  90806330.46345  22175816.570                    22175825.395
 11  8 26  1  6 30.0000000  0  8G04G10G12G05G25G29G02G30
 125421483.132 7  97731149.02143  23866897.781                    23866907.672
 115792745.317 8  90228240.60345  22034598.555                    22034606.953
 109324392.169 8  85187937.269 7  20803745.875                    20803753.730
 106914946.395 8  83310487.598 8  20345208.156                    20345216.016
 115963850.191 8  90361497.845 7  22067186.555                    22067197.441
 126585509.036 6  98638132.988 6  24088430.781                    24088440.445
 110740236.647 8  86291298.93146  21073156.453                    21073162.840
 116487796.948 7  90769782.61945  22166891.234                    22166900.180
 11  8 26  1  7  0.0000000  0  8G04G10G12G05G25G29G02G30
 125501336.854 7  97793372.69043  23882092.664                    23882102.445
 115872729.228 7  90290565.72945  22049818.984                    22049827.895
 109338597.518 8  85199006.355 8  20806449.094                    20806457.105
 106891997.333 8  83292605.245 8  20340840.922                    20340848.820
 115913437.308 8  90322215.125 7  22057593.195                    22057603.863
 126503082.209 6  98573904.367 6  24072745.891                    24072755.512
 110768316.882 8  86313179.64046  21078500.016                    21078506.141
 116441449.640 7  90733667.88245  22158071.813                    22158080.195
 11  8 26  1  7 30.0000000  0  8G04G10G12G05G25G29G02G30
 125581142.733 7  97855559.07743  23897279.531                    23897289.523
 115953116.980 7  90353205.53145  22065116.273                    22065124.762
 109353380.240 8  85210525.358 7  20809261.938                    20809269.930
 106869621.918 8  83275169.894 8  20336583.000                    20336591.000
 115863537.242 7  90283331.997 7  22048097.547                    22048108.371
 126420601.386 6  98509633.651 6  24057049.914                    24057059.582
 110796523.296 8  86335158.67146  21083867.922                    21083873.410
 116395660.116 7  90697987.77245  22149358.094                    22149366.730
 11  8 26  1  8  0.0000000  0  8G04G10G12G05G25G29G02G30
 125660900.133 7  97917707.62643  23912456.961                    23912466.836
 116033905.534 8  90416157.64245  22080490.039                    22080498.516
 109368740.059 8  85222494.046 7  20812185.039                    20812193.059
 106847820.116 8  83258181.510 8  20332434.352                    20332442.305
 115814151.513 8  90244849.641 7  22038699.633                    22038710.309
 126338067.357 6  98445321.474 6  24041344.688                    24041354.199
 110824854.857 8  86357235.22246  21089258.883                    21089264.691
 116350429.608 7  90662743.25145  22140751.406                    22140759.840
 11  8 26  1  8 30.0000000  0  8G04G10G12G05G25G29G02G30
 125740608.277 6  97979817.84543  23927624.773                    23927634.551
 116115091.512 7  90479419.42945  22095939.078                    22095947.781
 109384676.409 8  85234911.966 7  20815217.328                    20815225.023
 106826592.392 8  83241640.467 8  20328394.922                    20328402.840
 115765281.511 8  90206769.152 7  22029399.672                    22029410.703
 126255480.804 6  98380968.379 6  24025627.734                    24025638.340
 110853310.556 8  86379408.50546  21094674.000                    21094679.609
 116305759.311 7  90627935.26845  22132250.492                    22132259.695
 11  8 26  1  9  0.0000000  0  8G04G10G12G05G25G29G02G30
 125820267.113 6  98041889.65143  23942783.344                    23942793.496
 116196673.205 7  90542989.55945  22111463.695                    22111472.145
 109401188.293 8  85247778.358 7  20818359.672                    20818367.508
 106805939.241 8  83225547.137 8  20324464.672                    20324472.461
 115716929.443 8  90169092.236 7  22020198.859                    22020209.383
 126172843.267 6  98316575.539 6  24009902.820                    24009912.785
 110881890.001 8  86401678.21246  21100112.484                    21100118.500
 116261651.096 7  90593565.26145  22123857.484                    22123866.133
 11  8 26  1  9 30.0000000  0  8G04G10G12G05G25G29G02G30
 125899875.616 6  98103922.24643  23957932.422                    23957942.762
 116278647.110 7  90606865.30945  22127062.914                    22127071.230
 109418274.896 8  85261092.594 7  20821610.945                    20821619.016
 106785860.579 8  83209901.457 8  20320643.750                    20320651.738
 115669096.438 8  90131819.786 7  22011096.289                    22011106.879
 126090155.406 7  98252143.466 6  23994168.508                    23994177.359
 110910591.989 8  86424043.38746  21105574.594                    21105580.223
 116218105.939 7  90559634.00645  22115570.992                    22115579.379
 11  8 26  1 10  0.0000000  0  8G04G10G12G05G25G29G02G30
 125979433.093 6  98165915.06443  23973071.781                    23973082.035
 116361010.096 7  90671044.22545  22142735.867                    22142744.746
 109435935.814 8  85274854.340 7  20824971.617                    20824979.867
 106766356.508 8  83194703.510 8  20316932.391                    20316940.262
 115621783.842 8  90094952.848 7  22002092.969                    22002103.680
 126007417.776 7  98187672.587 5  23978423.859                    23978432.613
 110939415.318 8  86446503.13046  21111059.078                    21111064.793
 116175124.915 7  90526142.32345  22107391.617                    22107400.422
 11  8 26  1 10 30.0000000  0  8G04G10G12G05G25G29G02G30
 126058940.170 6  98227868.60943  23988200.789                    23988211.441
 116443760.254 7  90735524.85545  22158482.703                    22158491.066
 109454170.597 8  85289063.256 7  20828441.945                    20828449.941
 106747428.478 8  83179954.425 8  20313330.539                    20313338.574
 115574994.396 8  90058493.569 7  21993189.492                    21993199.961
 125924632.124 7  98123164.295 6  23962670.484                    23962679.527
 110968360.734 8  86469057.99746  21116567.375                    21116572.938
 116132710.410 7  90493092.09345  22099320.180                    22099329.129
 11  8 26  1 11  0.0000000  0  8G04G10G12G05G25G29G02G30
 126138395.456 6  98289781.76843  24003320.594                    24003331.426
 116526894.404 7  90800304.70545  22174302.766                    22174310.734
 109472978.015 8  85303718.385 7  20832020.891                    20832028.617
 106729075.930 8  83165653.772 8  20309837.906                    20309845.750
 115528728.913 8  90022442.559 7  21984385.445                    21984396.176
 125841798.882 7  98058618.900 6  23946906.922                    23946916.688
 110997426.175 8  86491706.38746  21122098.070                    21122103.852
 116090863.047 8  90460483.78445  22091357.070                    22091366.035
 11  8 26  1 11 30.0000000  0  8G04G10G12G05G25G29G02G30
 126217799.055 6  98351654.67843  24018431.414                    24018441.840
 116610409.955 7  90865381.73545  22190195.383                    22190203.711
 109492357.757 8  85318819.478 7  20835708.336                    20835716.250
 106711299.282 8  83151801.872 8  20306455.344                    20306463.125
 115482989.502 8  89986801.477 7  21975681.281                    21975691.980
 125758919.470 7  97994037.514 6  23931136.227                    23931144.887
 111026611.825 8  86514448.45046  21127651.891                    21127657.766
 116049584.696 8  90428318.85645  22083502.156                    22083511.023
 11  8 26  1 12  0.0000000  0  8G04G10G12G05G25G29G02G30
 126297149.927 6  98413486.49043  24033531.188                    24033541.672
 116694303.374 7  90930753.20444  22206159.680                    22206167.539
 109512308.376 8  85334365.408 7  20839504.992                    20839513.191
 106694098.206 8  83138398.472 8  20303181.867                    20303189.438
 115437776.948 7  89951570.939 7  21967077.617                    21967088.359
 125675994.562 7  97929420.711 6  23915356.133                    23915365.594
 111055915.908 8  86537282.80146  21133228.664                    21133234.664
 116008875.804 7  90396597.66645  22075755.367                    22075764.293
 11  8 26  1 12 30.0000000  0  8G04G10G12G05G25G29G02G30
 126376447.672 6  98475276.93444  24048621.313                    24048631.488
 116778572.275 7  90996417.27245  22222195.742                    22222203.563
 109532829.409 8  85350355.814 7  20843409.906                    20843418.016
 106677473.260 8  83125444.001 8  20300018.266                    20300025.941
 115393093.042 8  89916752.323 7  21958574.859                    21958584.961
 125593025.125 7  97864769.246 6  23899567.555                    23899576.883
 111085337.910 8  86560209.02546  21138827.281                    21138833.277
 115968737.873 7  90365321.36845  22068117.516                    22068126.070
 11  8 26  1 13  0.0000000  0  8G04G10G12G05G25G29G02G30
 126455691.842 6  98537025.61943  24063701.016                    24063711.477
 116863213.290 7  91062371.30945  22238301.828                    22238310.578
 109553919.881 8  85366789.940 7  20847423.398                    20847431.473
 106661424.174 8  83112938.247 8  20296964.211                    20296972.184
 115348938.983 8  89882346.581 7  21950172.219                    21950183.141
 125510012.182 7  97800083.858 6  23883770.719                    23883780.277
 111114876.922 8  86583226.43746  21144448.430                    21144454.262
 115929171.875 7  90334490.73845  22060588.734                    22060597.172
 11  8 26  1 13 30.0000000  0  8G04G10G12G05G25G29G02G30
 126534882.273 6  98598732.41843  24078769.914                    24078780.855
 116948224.449 7  91128613.74245  22254479.109                    22254487.695
 109575579.201 8  85383667.325 7  20851545.508                    20851553.156
 106645951.850 8  83100881.922 8  20294019.906                    20294027.395
 115305316.883 8  89848355.360 7  21941871.484                    21941881.813
 125426957.283 7  97735365.812 6  23867965.977                    23867975.066
 111144532.917 8  86606334.99946  21150092.109                    21150097.480
 115890179.671 7  90304107.20745  22053168.672                    22053177.254
 11  8 26  1 14  0.0000000  0  8G04G10G12G05G25G29G02G30
 126614018.571 6  98660397.00943  24093829.281                    24093839.438
 117033602.675 7  91195142.19745  22270726.281                    22270735.480
 109597806.382 8  85400987.206 7  20855774.875                    20855782.738
 106631056.022 8  83089274.813 8  20291185.438                    20291192.773
 115262228.012 8  89814779.633 7  21933671.695                    21933682.367
 125343861.162 7  97670615.657 6  23852153.500                    23852162.324
 111174304.917 8  86629533.95846  21155757.125                    21155763.074
 115851762.172 7  90274171.50545  22045858.000                    22045866.051
 11  8 26  1 14 30.0000000  0  8G04G10G12G05G25G29G02G30
 126693099.750 6  98722018.67143  24108878.406                    24108887.961
 117119344.459 7  91261953.93145  22287042.484                    22287051.332
 109620600.338 8  85418748.722 7  20860112.398                    20860120.805
 106616736.135 8  83078116.487 8  20288460.359                    20288467.629
 115219673.355 8  89781620.178 7  21925574.078                    21925584.230
 125260724.762 7  97605834.127 6  23836332.883                    23836342.574
 111204191.625 8  86652822.29146  21161444.516                    21161450.742
 115813920.076 8  90244684.16745  22038656.836                    22038665.281
 11  8 26  1 15  0.0000000  0  8G04G10G12G05G25G29G02G30
 126772126.383 6  98783597.81643  24123917.164                    24123926.316
 117205447.908 7  91329047.49445  22303427.438                    22303436.000
 109643960.610 8  85436951.531 7  20864557.617                    20864565.535
 106602993.127 8  83067407.677 8  20285845.180                    20285852.785
 115177655.292 8  89748878.855 7  21917578.219                    21917588.664
 125177549.943 7  97541022.684 6  23820505.094                    23820514.434
 111234193.670 8  86676200.50846  21167153.297                    21167159.250
 115776655.535 8  90215646.87645  22031565.469                    22031573.871
 11  8 26  1 15 30.0000000  0  8G04G10G12G05G25G29G02G30
 126851097.212 6  98845133.48343  24138943.750                    24138954.602
 117291909.767 7  91396420.36545  22319880.648                    22319889.180
 109667885.415 8  85455594.225 7  20869110.531                    20869118.418
 106589826.329 8  83057147.865 8  20283339.289                    20283346.965
 115136174.285 8  89716556.012 7  21909684.523                    21909695.309
 125094336.704 7  97476181.330 6  23804669.531                    23804678.879
 111264308.885 8  86699666.90646  21172884.141                    21172890.406
 115739968.647 7  90187059.70345  22024584.102                    22024592.313
 11  8 26  1 16  0.0000000  0  8G04G10G12G05G25G29G02G30
 126930011.997 6  98906625.48943  24153961.367                    24153971.375
 117378727.087 7  91464070.20045  22336401.523                    22336409.988
 109692374.234 8  85474676.408 7  20873770.656                    20873778.711
 106577236.012 8  83047337.266 8  20280943.656                    20280951.066
 115095231.999 8  89684652.962 7  21901893.711                    21901903.609
 125011086.685 7  97411311.278 6  23788827.906                    23788837.000
 111294537.126 8  86723221.37346  21178636.641                    21178642.063
 115703860.910 7  90158923.83345  22017713.023                    22017721.566
 11  8 26  1 16 30.0000000  0  9G04G10G12G26G05G25G29G02G30
 127008870.922 6  98968073.97743  24168967.133                    24168977.859
 117465897.266 7  91531995.00545  22352989.383                    22352997.727
 109717426.023 8  85494197.276 7  20878537.742                    20878545.641
 130637926.98016                  24859557.906
 106565222.537 8  83037976.147 8  20278657.172                    20278664.750
 115054830.188 8  89653171.056 7  21894205.430                    21894215.688
 124927801.095 7  97346413.565 6  23772979.313                    23772988.266
 111324878.177 8  86746863.74246  21184410.164                    21184416.523
 115668333.667 7  90131240.29345  22010952.141                    22010960.492
 11  8 26  1 17  0.0000000  0  9G04G10G12G26G05G25G29G02G30
 127087672.999 6  99029478.19843  24183962.523                    24183973.168
 117553417.015 7  91600192.19445  22369643.570                    22369652.148
 109743039.741 8  85514156.005 7  20883411.961                    20883419.875
 130546734.617 5 101724725.25453  24842203.930                    24842216.863
 106553785.278 8  83029064.022 8  20276480.922                    20276488.461
 115014969.825 8  89622111.048 7  21886620.039                    21886630.586
 124844480.937 7  97281488.896 6  23757123.500                    23757133.223
 111355330.888 8  86770593.11946  21190205.219                    21190211.113
 115633387.558 7  90104009.59545  22004302.086                    22004310.777
 11  8 26  1 17 30.0000000  0  9G04G10G12G26G05G25G29G02G30
 127166417.719 6  99090837.63343  24198947.430                    24198957.586
 117641283.142 7  91668659.28245  22386364.266                    22386373.156
 109769214.030 8  85534551.556 7  20888392.672                    20888400.910
 130455396.857 6 101653553.26843  24824822.836                    24824836.184
 106542923.861 8  83020600.610 8  20274413.938                    20274421.883
 114975651.893 8  89591473.726 7  21879138.281                    21879148.438
 124761127.201 7  97216538.053 6  23741262.016                    23741271.129
 111385893.905 8  86794408.45446  21196021.086                    21196026.922
 115599023.308 7  90077232.29345  21997762.945                    21997771.363
 11  8 26  1 18  0.0000000  0  9G04G10G12G26G05G25G29G02G30
 127245105.176 6  99152152.52543  24213921.164                    24213931.504
 117729493.143 7  91737394.31145  22403149.805                    22403158.629
 109795948.048 8  85555383.254 7  20893480.023                    20893488.148
 130363916.920 6 101582270.46343  24807413.945                    24807427.063
 106532638.669 8  83012586.205 8  20272456.922                    20272464.480
 114936878.034 8  89561260.354 7  21871759.992                    21871770.160
 124677741.007 7  97151561.924 6  23725394.109                    23725402.961
 111416567.552 7  86818309.99846  21201858.039                    21201863.758
 115565242.235 7  90050909.41245  21991334.414                    21991342.832
 11  8 26  1 18 30.0000000  0  9G04G10G12G26G05G25G29G02G30
 127323734.949 6  99213422.41843  24228883.922                    24228894.508
 117818044.221 7  91806395.11845  22420000.750                    22420009.746
 109823241.246 8  85576650.668 7  20898673.664                    20898681.672
 130272297.487 6 101510878.96843  24789979.531                    24789992.363
 106522929.584 8  83005020.711 8  20270609.391                    20270616.598
 114898649.606 8  89531471.993 7  21864485.023                    21864495.324
 124594323.496 7  97086561.365 6  23709520.305                    23709528.742
 111447351.025 8  86842297.11846  21207715.859                    21207722.117
 115532045.386 7  90025041.77545  21985017.672                    21985025.957
 11  8 26  1 19  0.0000000  0  9G04G10G12G26G05G25G29G02G30
 127402306.571 6  99274647.03143  24243835.430                    24243846.379
 117906933.560 7  91875659.51445  22436915.531                    22436924.324
 109851091.380 7  85598352.069 7  20903973.164                    20903981.109
 130180541.099 6 101439380.75443  24772519.273                    24772531.563
 106513796.151 8  82997903.772 8  20268871.070                    20268878.910
 114860967.615 8  89502109.413 7  21857314.383                    21857324.746
 124510876.140 7  97021537.546 6  23693640.281                    23693649.375
 111478243.388 7  86866369.08546  21213594.719                    21213600.664
 115499433.380 7  89999629.85845  21978811.430                    21978820.184
 11  8 26  1 19 30.0000000  0  9G04G10G12G26G05G25G29G02G30
 127480819.624 6  99335826.01743  24258776.570                    24258786.324
 117996158.080 7  91945185.08445  22453894.516                    22453903.863
 109879497.479 8  85620486.684 7  20909378.656                    20909386.648
 130088650.682 6 101367778.06343  24755031.883                    24755044.957
 106505238.213 8  82991235.281 8  20267242.680                    20267250.414
 114823833.347 8  89473173.634 7  21850248.102                    21850258.309
 124427399.980 7  96956491.292 6  23677755.344                    23677764.984
 111509244.025 8  86890525.42746  21219493.703                    21219499.375
 115467407.261 7  89974674.47245  21972717.148                    21972725.863
 11  8 26  1 20  0.0000000  0  9G04G10G12G26G05G25G29G02G30
 127559274.032 6  99396959.33943  24273705.680                    24273716.574
 118085715.413 7  92014969.99145  22470936.969                    22470945.527
 109908458.867 7  85643053.991 7  20914890.156                    20914897.898
 129996629.215 6 101296073.29843  24737521.641                    24737534.102
 106497256.037 8  82985015.428 8  20265723.555                    20265731.316
 114787248.228 8  89444665.761 7  21843286.172                    21843296.676
 124343896.161 7  96891423.473 6  23661865.484                    23661874.438
 111540352.449 7  86914765.75446  21225413.578                    21225419.297
 115435968.087 7  89950176.44745  21966734.328                    21966743.246
 11  8 26  1 20 30.0000000  0  9G04G10G12G26G05G25G29G02G30
 127637669.319 6  99458046.53543  24288623.594                    24288634.629
 118175602.232 7  92085011.64445  22488041.430                    22488050.313
 109937973.815 8  85666052.643 7  20920506.656                    20920514.594
 129904479.423 6 101224268.50542  24719985.188                    24719997.719
 106489848.775 8  82979243.557 8  20264314.297                    20264322.031
 114751213.118 8  89416586.452 7  21836429.086                    21836439.094
 124260365.844 7  96826335.005 6  23645969.898                    23645978.340
 111571567.843 8  86939089.43846  21231353.563                    21231359.090
 115405116.399 7  89926136.19845  21960863.422                    21960871.766
 11  8 26  1 21  0.0000000  0  9G04G10G12G26G05G25G29G02G30
 127716005.137 6  99519087.41343  24303531.055                    24303540.227
 118265815.786 7  92155307.90244  22505208.367                    22505217.414
 109968041.299 8  85689481.844 7  20926228.258                    20926235.820
 129812204.099 6 101152365.90343  24702425.695                    24702437.977
 106483016.497 8  82973919.736 8  20263013.930                    20263021.629
 114715729.406 8  89388936.799 7  21829676.578                    21829686.910
 124176810.424 7  96761226.944 6  23630069.828                    23630078.109
 111602889.908 7  86963496.25046  21237314.328                    21237319.930
 115374853.267 7  89902554.56145  21955104.641                    21955113.336
 11  8 26  1 21 30.0000000  0  9G04G10G12G26G05G25G29G02G30
 127794281.173 7  99580081.71443  24318426.484                    24318436.539
 118356352.967 7  92225856.32944  22522437.430                    22522446.031
 109998660.090 8  85713340.626 7  20932054.914                    20932062.672
 129719806.324 6 101080367.91743  24684843.430                    24684854.945
 106476758.795 8  82969043.625 8  20261823.133                    20261830.457
 114680798.042 8  89361717.553 7  21823029.445                    21823039.660
 124093230.868 7  96696100.066 6  23614164.945                    23614173.348
 111634317.648 8  86987985.39546  21243294.914                    21243300.637
 115345179.314 7  89879432.01645  21949457.820                    21949466.500
 11  8 26  1 22  0.0000000  0  9G04G10G12G26G05G25G29G02G30
 127872497.144 6  99641029.19743  24333310.352                    24333320.352
 118447210.737 7  92296654.58044  22539726.945                    22539735.672
 110029828.998 8  85737628.081 7  20937986.172                    20937994.316
 129627288.669 6 101008276.53143  24667236.195                    24667248.758
 106471075.149 8  82964614.836 8  20260741.781                    20260749.273
 114646420.143 8  89334929.560 7  21816487.344                    21816498.102
 124009628.484 7  96630955.409 6  23598256.078                    23598264.574
 111665850.419 8  87012556.39646  21249295.289                    21249300.750
 115316095.174 7  89856769.06645  21943923.250                    21943932.195
 11  8 26  1 22 30.0000000  0  9G04G10G12G26G05G25G29G02G30
 127950652.894 7  99701929.79543  24348183.086                    24348193.438
 118538386.222 7  92367700.38244  22557077.148                    22557085.719
 110061546.716 8  85762343.174 7  20944022.047                    20944029.668
 129534654.206 6 100936094.07143  24649608.945                    24649621.191
 106465965.408 8  82960633.248 8  20259769.102                    20259777.020
 114612596.815 8  89308573.714 7  21810050.852                    21810061.551
 123926004.605 7  96565793.995 6  23582342.445                    23582351.844
 111697487.740 8  87037208.85946  21255315.563                    21255321.535
 115287601.771 7  89834566.41645  21938501.359                    21938509.953
 11  8 26  1 23  0.0000000  0  9G04G10G12G26G05G25G29G02G30
 128028748.011 7  99762783.12943  24363043.984                    24363054.324
 118629876.982 7  92438991.85244  22574487.313                    22574495.855
 110093811.567 8  85787484.599 7  20950161.555                    20950169.594
 129441905.778 6 100863822.86542  24631958.898                    24631972.383
 106461429.338 8  82957098.670 8  20258906.063                    20258913.758
 114579329.301 8  89282650.965 7  21803720.242                    21803731.078
 123842360.237 6  96500616.639 6  23566425.281                    23566434.023
 111729228.981 7  87061942.30546  21261355.508                    21261361.746
 115259699.897 7  89812824.69345  21933192.031                    21933200.625
 11  8 26  1 23 30.0000000  0  9G04G10G12G26G05G25G29G02G30
 128106782.310 7  99823589.04943  24377893.125                    24377903.531
 118721679.820 7  92510526.51744  22591956.469                    22591965.016
 110126622.130 8  85813051.262 7  20956405.594                    20956413.406
 129349046.313 6 100791465.03642  24614288.289                    24614301.125
 106457466.132 8  82954010.476 8  20258151.773                    20258159.531
 114546618.325 8  89257161.867 7  21797495.766                    21797506.102
 123758696.687 7  96435424.302 6  23550504.953                    23550513.531
 111761073.586 7  87086756.28946  21267415.438                    21267421.492
 115232390.015 7  89791544.26845  21927994.734                    21928003.203
 11  8 26  1 24  0.0000000  0  9G04G10G12G26G05G25G29G02G30
 128184755.554 7  99884347.38743  24392730.422                    24392741.676
 118813791.966 7  92582302.19344  22609485.734                    22609493.906
 110159977.619 8  85839042.538 7  20962752.578                    20962760.219
 129256078.695 6 100719023.03943  24596597.602                    24596609.238
 106454075.746 8  82951368.649 8  20257506.453                    20257514.441
 114514465.268 8  89232107.519 7  21791377.258                    21791387.867
 123675015.350 7  96370218.086 6  23534580.930                    23534589.840
 111793021.350 8  87111650.65946  21273495.070                    21273500.668
 115205673.118 7  89770725.90145  21922910.828                    21922919.344
 11  8 26  1 24 30.0000000  0  9G04G10G12G26G05G25G29G02G30
 128262667.292 7  99945057.83843  24407557.242                    24407567.773
 118906210.177 7  92654316.37444  22627071.906                    22627080.188
 110193876.075 8  85865456.911 7  20969203.188                    20969210.961
 129163005.720 6 100646498.86543  24578886.164                    24578898.039
 106451257.481 8  82949172.628 8  20256970.273                    20256977.543
 114482870.780 8  89207488.423 7  21785364.867                    21785375.410
 123591317.597 6  96304999.114 6  23518653.695                    23518662.684
 111825071.237 7  87136624.60646  21279593.906                    21279599.793
 115179549.425 7  89750369.76645  21917939.477                    21917948.363
 11  8 26  1 25  0.0000000  0  9G04G10G12G26G05G25G29G02G30
 128340517.421 7 100005720.29143  24422371.180                    24422381.914
 118998931.931 7  92726567.08744  22644716.250                    22644724.801
 110228316.436 8  85892293.545 7  20975757.086                    20975765.023
 129069830.487 6 100573895.07043  24561155.078                    24561166.762
 106449011.126 8  82947422.251 8  20256542.906                    20256550.039
 114451836.004 8  89183305.476 7  21779459.305                    21779469.953
 123507604.444 7  96239768.132 6  23502724.117                    23502732.449
 111857222.739 8  87161677.72946  21285712.375                    21285717.945
 115154019.723 7  89730476.47545  21913081.633                    21913090.184
 11  8 26  1 25 30.0000000  0  9G04G10G12G26G05G25G29G02G30
 128418305.569 7 100066334.43643  24437174.039                    24437184.938
 119091954.007 7  92799051.79444  22662417.586                    22662426.563
 110263296.595 8  85919550.803 7  20982413.898                    20982421.477
 128976555.759 6 100501213.75843  24543405.313                    24543417.523
 106447335.758 8  82946116.793 8  20256223.977                    20256231.422
 114421361.591 8  89159559.173 7  21773660.102                    21773670.477
 123423877.327 7  96174526.277 6  23486790.930                    23486799.512
 111889475.199 7  87186809.53046  21291849.766                    21291855.504
 115129084.411 7  89711046.35145  21908336.367                    21908345.242
 11  8 26  1 26  0.0000000  0  9G04G10G12G26G05G25G29G02G30
 128496031.500 7 100126900.09943  24451964.359                    24451975.113
 119185273.821 7  92871768.50245  22680175.992                    22680184.672
 110298815.564 8  85947227.910 7  20989172.508                    20989180.426
 128883184.537 6 100428457.21743  24525636.609                    24525648.918
 106446231.416 8  82945256.293 8  20256013.672                    20256021.039
 114391448.873 8  89136250.564 7  21767967.883                    21767978.609
 123340137.652 7  96109274.614 6  23470855.461                    23470864.438
 111921828.211 7  87212019.68446  21298005.805                    21298012.215
 115104744.355 7  89692080.06445  21903704.492                    21903713.219
 11  8 26  1 26 30.0000000  0  9G04G10G12G26G05G25G29G02G30
 128573695.010 6 100187417.13643  24466743.469                    24466754.398
 119278888.264 7  92944714.77944  22697990.086                    22697999.117
 110334871.740 8  85975323.622 7  20996034.383                    20996042.023
 128789719.957 6 100355627.94243  24507851.086                    24507863.039
 106445697.062 8  82944839.945 8  20255912.219                    20255919.473
 114362098.504 8  89113380.149 7  21762382.961                    21762393.523
 123256386.512 7  96044014.038 6  23454918.320                    23454926.887
 111954281.111 7  87237307.66046  21304181.813                    21304187.824
 115080999.858 7  89673577.84545  21899186.125                    21899195.105
 11  8 26  1 27  0.0000000  0  9G04G10G12G26G05G25G29G02G30
 128651295.944 6 100247885.41343  24481510.641                    24481521.148
 119372794.409 6  93017888.38044  22715859.805                    22715868.926
 110371463.565 8  86003836.729 7  21002997.406                    21003004.742
 128696164.990 6 100282728.21343  24490047.602                    24490059.402
 106445732.253 8  82944867.397 8  20255918.844                    20255926.109
 114333311.315 8  89090948.576 7  21756905.070                    21756915.750
 123172625.341 7  95978745.627 6  23438979.031                    23438987.977
 111986833.183 7  87262672.92846  21310375.969                    21310381.941
 115057851.433 7  89655540.10145  21894781.086                    21894789.695
 11  8 26  1 27 30.0000000  0  9G04G10G12G26G05G25G29G02G30
 128728833.980 6 100308304.66143  24496265.305                    24496276.020
 119466989.211 6  93091286.89544  22733784.625                    22733793.449
 110408589.417 8  86032765.947 7  21010061.938                    21010069.566
 128602522.388 6 100209760.15343  24472228.531                    24472239.887
 106446336.100 8  82945337.949 8  20256033.609                    20256041.109
 114305088.127 8  89068956.501 7  21751534.141                    21751544.770
 123088855.463 7  95913470.444 6  23423038.477                    23423046.934
 112019484.233 7  87288115.31246  21316589.375                    21316595.184
 115035299.497 8  89637967.15245  21890489.563                    21890498.250
 11  8 26  1 28  0.0000000  0  9G04G10G12G26G05G25G29G02G30
 128806308.985 6 100368674.79543  24511008.734                    24511019.129
 119561470.047 6  93164908.28344  22751763.539                    22751772.609
 110446247.699 8  86062110.047 7  21017228.250                    21017235.898
 128508795.247 6 100136726.27543  24454392.484                    24454404.156
 106447508.394 8  82946251.449 8  20256256.813                    20256264.648
 114277429.923 8  89047404.669 7  21746270.633                    21746281.633
 123005078.464 7  95848189.699 6  23407095.711                    23407104.473
 112052233.527 8  87313634.25846  21322821.227                    21322827.023
 115013344.648 8  89620859.46945  21886311.602                    21886320.391
 11  8 26  1 28 30.0000000  0  9G04G10G12G26G05G25G29G02G30
 128883720.958 6 100428995.78643  24525739.797                    24525750.078
 119656233.911 7  93238750.22544  22769797.055                    22769805.551
 110484437.340 8  86091868.206 7  21024495.500                    21024503.191
 128414986.676 6 100063628.90743  24436541.008                    24436552.570
 106449248.429 8  82947607.349 8  20256587.984                    20256595.387
 114250337.417 8  89026293.647 7  21741115.383                    21741126.141
 122921295.407 7  95782904.243 6  23391152.406                    23391161.434
 112085080.870 8  87339229.59446  21329071.648                    21329077.512
 114991987.251 8  89604217.34045  21882247.969                    21882256.242
 11  8 26  1 29  0.0000000  0  9G04G10G12G26G05G25G29G02G30
 128961069.449 6 100489267.31843  24540458.227                    24540468.863
 119751277.995 7  93312810.55044  22787883.344                    22787891.992
 110523156.036 8  86122038.609 7  21031863.258                    21031871.125
 128321099.652 7  99990470.50043  24418674.922                    24418686.297
 106451555.584 8  82949405.154 8  20257026.859                    20257034.270
 114223811.509 8  89005624.127 7  21736067.727                    21736078.270
 122837507.733 6  95717615.184 6  23375208.531                    23375216.902
 112118025.438 8  87364900.69846  21335341.227                    21335346.906
 114971227.762 8  89588041.09345  21878297.539                    21878305.477
 11  8 26  1 29 30.0000000  0  9G04G10G12G26G05G25G29G02G30
 129038354.422 6 100549489.38843  24555165.805                    24555175.516
 119846599.402 7  93387086.97044  22806022.156                    22806030.387
 110562402.269 8  86152620.073 7  21039331.352                    21039339.348
 128227137.376 6  99917253.32643  24400793.922                    24400805.258
 106454429.138 8  82951644.322 8  20257573.852                    20257580.973
 114197852.794 8  88985396.583 7  21731127.859                    21731138.254
 122753716.760 6  95652323.563 6  23359263.219                    23359271.992
 112151066.839 7  87390647.26546  21341628.977                    21341634.617
 114951066.413 7  89572330.95545  21874460.531                    21874469.426
 11  8 26  1 30  0.0000000  0  9G04G10G12G26G05G25G29G02G30
 129115575.477 6 100609661.64043  24569860.352                    24569870.484
 119942195.050 7  93461577.08244  22824213.297                    22824221.980
 110602174.387 8  86183611.320 7  21046900.133                    21046907.707
 128133102.643 6  99843979.77143  24382900.578                    24382911.434
 106457868.095 8  82954324.050 8  20258228.000                    20258235.922
 114172461.918 8  88965611.510 7  21726296.398                    21726307.047
 122669923.974 6  95587030.536 6  23343317.875                    23343326.426
 112184204.437 8  87416468.77346  21347934.492                    21347940.512
 114931503.491 8  89557087.12345  21870738.242                    21870746.746
 11  8 26  1 30 30.0000000  0  9G04G10G12G26G05G25G29G02G30
 129192732.768 6 100669784.20543  24584543.023                    24584553.129
 120038062.132 7  93536278.72044  22842456.242                    22842464.996
 110642470.926 8  86215011.209 7  21054567.984                    21054576.023
 128038998.472 6  99770652.10743  24364991.383                    24365003.758
 106461871.930 8  82957443.940 8  20258989.914                    20258997.543
 114147639.755 8  88946269.580 7  21721572.438                    21721583.441
 122586130.592 6  95521737.063 6  23327372.344                    23327381.359
 112217437.809 7  87442364.92246  21354258.547                    21354264.652
 114912539.465 8  89542309.96345  21867129.336                    21867138.008
 11  8 26  1 31  0.0000000  0  9G04G10G12G26G05G25G29G02G30
 129269826.178 7 100729856.99443  24599213.242                    24599222.820
 120134198.126 6  93611189.87844  22860750.258                    22860758.898
 110683290.417 8  86246818.590 7  21062335.781                    21062343.891
 127944828.374 6  99697272.99943  24347072.000                    24347083.074
 106466440.522 8  82961003.907 8  20259859.391                    20259866.512
 114123387.244 8  88927371.540 7  21716957.438                    21716968.473
 122502338.414 6  95456444.509 6  23311427.297                    23311435.617
 112250766.985 7  87468335.71646  21360600.688                    21360606.848
 114894174.870 8  89527999.89445  21863634.797                    21863643.082
 11  8 26  1 31 30.0000000  0  9G04G10G12G26G05G25G29G02G30
 129346855.358 7 100789879.69043  24613871.242                    24613882.082
 120230599.745 6  93686307.99844  22879094.891                    22879104.160
 110724630.959 8  86279031.991 7  21070203.047                    21070210.902
 127850595.136 7  99623844.74843  24329140.555                    24329151.352
 106471572.285 8  82965002.703 8  20260835.828                    20260843.273
 114099704.628 8  88908917.566 7  21712450.570                    21712461.578
 122418548.664 7  95391153.854 6  23295482.625                    23295491.496
 112284191.157 7  87494380.53046  21366961.609                    21366967.285
 114876409.580 8  89514156.81845  21860254.203                    21860262.742
 11  8 26  1 32  0.0000000  0  9G04G10G12G26G05G25G29G02G30
 129423819.833 6 100849852.03843  24628517.477                    24628527.324
 120327264.048 6  93761630.81644  22897488.938                    22897498.699
 110766490.293 8  86311649.647 7  21078168.250                    21078176.063
 127756301.780 6  99550369.60543  24311195.695                    24311207.508
 106477266.448 8  82969439.733 8  20261919.258                    20261926.578
 114076592.411 8  88890908.067 7  21708052.406                    21708063.516
 122334762.862 7  95325866.280 6  23279539.125                    23279547.316
 112317709.388 8  87520498.63246  21373339.336                    21373345.258
 114859243.599 8  89500780.73045  21856987.672                    21856995.805
 11  8 26  1 32 30.0000000  0  9G04G10G12G26G05G25G29G02G30
 129500719.987 6 100909774.23543  24643150.359                    24643160.531
 120424188.118 7  93837156.02244  22915933.539                    22915942.793
 110808866.861 8  86344670.331 7  21086232.508                    21086239.961
 127661951.504 6  99476850.11143  24293241.805                    24293252.820
 106483522.504 8  82974314.595 8  20263109.961                    20263117.262
 114054051.499 8  88873343.740 7  21703762.859                    21703773.852
 122250982.575 7  95260583.002 6  23263596.047                    23263604.617
 112351321.717 7  87546690.06646  21379735.953                    21379741.703
 114842677.622 8  89487872.18745  21853835.328                    21853843.566
 11  8 26  1 33  0.0000000  0  9G04G10G12G26G05G25G29G02G30
 129577555.388 6 100969646.00543  24657772.508                    24657782.453
 120521369.252 7  93912881.53844  22934426.914                    22934435.566
 110851758.936 8  86378092.712 7  21094394.406                    21094401.848
 127567547.390 6  99403288.67843  24275276.844                    24275288.375
 106490339.291 8  82979626.400 8  20264406.930                    20264414.426
 114032082.250 8  88856224.861 7  21699582.789                    21699593.422
 122167208.738 7  95195304.738 6  23247654.703                    23247662.613
 112385027.412 8  87572954.25146  21386149.750                    21386155.492
 114826711.433 8  89475431.00845  21850796.945                    21850805.320
 11  8 26  1 33 30.0000000  0  8G10G12G26G05G25G29G02G30
 120618804.581 6  93988805.13643  22952967.727                    22952977.031
 110895164.745 8  86411915.398 7  21102654.336                    21102662.004
 127473092.474 6  99329687.59843  24257303.117                    24257313.613
 106497715.813 8  82985374.357 8  20265810.633                    20265818.008
 114010685.345 8  88839551.964 7  21695510.844                    21695521.496
 122083443.347 7  95130033.088 6  23231714.039                    23231722.496
 112418826.204 8  87599290.97846  21392581.523                    21392586.988
 114811345.312 8  89463457.41745  21847872.672                    21847881.133
 11  8 26  1 34  0.0000000  0  8G10G12G26G05G25G29G02G30
 120716491.598 6  94064924.86044  22971557.602                    22971566.402
 110939083.222 8  86446137.568 7  21111011.609                    21111019.641
 127378590.683 6  99256050.04743  24239319.258                    24239330.262
 106505652.211 8  82991558.584 8  20267320.805                    20267328.508
 113989861.866 8  88823325.891 7  21691548.430                    21691558.871
 121999688.078 7  95064769.293 6  23215776.336                    23215784.555
 112452718.249 8  87625700.37846  21399030.969                    21399036.516
 114796580.080 8  89451952.03645  21845063.008                    21845071.133
 11  8 26  1 34 30.0000000  0  8G10G12G26G05G25G29G02G30
 120814426.993 7  94141238.14144  22990193.766                    22990202.785
 110983511.672 8  86480757.131 7  21119466.125                    21119474.004
 127284044.442 7  99182377.85043  24221327.742                    24221338.477
 106514146.837 8  82998177.789 8  20268937.023                    20268945.031
 113969611.673 8  88807546.529 7  21687694.781                    21687705.316
 121915944.129 7  94999514.350 6  23199840.164                    23199848.996
 112486702.587 8  87652181.68446  21405497.859                    21405504.004
 114782415.054 8  89440914.36345  21842367.711                    21842376.184
 11  8 26  1 35  0.0000000  0  8G10G12G26G05G25G29G02G30
 120912607.632 6  94217742.51444  23008877.000                    23008885.582
 111028448.230 8  86515772.615 7  21128017.156                    21128025.184
 127189456.617 7  99108673.22843  24203328.086                    24203339.414
 106523198.129 8  83005230.764 8  20270659.672                    20270667.531
 113949934.993 8  88792214.060 7  21683950.555                    21683960.977
 121832212.447 7  94934268.949 6  23183906.102                    23183914.629
 112520778.429 8  87678734.29146  21411982.250                    21411987.871
 114768850.092 8  89430344.27245  21839786.422                    21839794.535
 11  8 26  1 35 30.0000000  0  8G10G12G26G05G25G29G02G30
 121011030.839 6  94294435.88644  23027606.031                    23027615.723
 111073891.020 8  86551182.557 7  21136664.813                    21136672.828
 127094830.651 7  99034938.88443  24185321.656                    24185331.820
 106532805.497 8  83012717.045 8  20272487.875                    20272495.371
 113930832.485 8  88777329.008 7  21680315.188                    21680326.289
 121748494.800 7  94869034.483 6  23167975.219                    23167983.957
 112554945.534 8  87705358.02046  21418484.086                    21418489.785
 114755885.457 8  89420241.98245  21837318.859                    21837327.688
 11  8 26  1 36  0.0000000  0  8G10G12G26G05G25G29G02G30
 121109693.798 6  94371316.07644  23046381.508                    23046389.836
 111119837.686 8  86586985.143 7  21145408.234                    21145416.250
 127000169.587 6  98961177.23243  24167308.000                    24167318.703
 106542967.905 8  83020635.825 8  20274421.875                    20274429.555
 113912304.478 8  88762891.621 7  21676789.742                    21676800.035
 121664792.749 7  94803812.163 6  23152047.242                    23152056.145
 112589203.448 8  87732052.49546  21425002.961                    21425009.086
 114743520.976 8  89410607.34545  21834966.109                    21834974.496
 11  8 26  1 36 30.0000000  0  8G10G12G26G05G25G29G02G30
 121208593.799 6  94448380.98943  23065201.289                    23065210.313
 111166286.778 8  86623179.224 7  21154246.914                    21154254.965
 126905476.864 7  98887390.87343  24149288.383                    24149299.066
 106553684.930 8  83028986.765 8  20276461.328                    20276468.828
 113894351.673 8  88748902.432 7  21673373.555                    21673383.953
 121581108.153 7  94738603.458 6  23136122.742                    23136131.320
 112623552.085 8  87758817.67246  21431539.617                    21431545.395
 114731756.999 8  89401440.63045  21832727.586                    21832736.547
 11  8 26  1 37  0.0000000  0  8G10G12G26G05G25G29G02G30
 121307727.678 6  94525628.13843  23084066.359                    23084074.602
 111213236.418 8  86659763.338 7  21163181.406                    21163189.418
 126810755.554 7  98813582.27043  24131263.750                    24131273.766
 106564955.083 8  83037768.722 8  20278605.977                    20278613.188
 113876974.298 8  88735361.635 7  21670066.719                    21670077.035
 121497442.129 7  94673409.203 6  23120201.805                    23120209.984
 112657990.915 8  87785653.13246  21438093.070                    21438098.988
 114720593.271 7  89392741.63645  21830603.047                    21830611.879
 11  8 26  1 37 30.0000000  0  8G10G12G26G05G25G29G02G30
 121407092.529 6  94603055.26743  23102974.250                    23102983.434
 111260684.627 8  86696735.960 7  21172210.688                    21172218.590
 126716008.729 7  98739753.75343  24113232.977                    24113243.996
 106576777.015 8  83046980.643 8  20280855.117                    20280862.973
 113860172.455 8  88722269.285 7  21666869.445                    21666879.813
 121413796.292 7  94608230.683 6  23104284.250                    23104292.953
 112692519.475 8  87812558.50546  21444663.273                    21444669.371
 114710029.577 8  89384510.19845  21828592.938                    21828601.391
 11  8 26  1 38  0.0000000  0  8G10G12G26G05G25G29G02G30
 121506685.886 6  94680660.44743  23121926.563                    23121935.746
 111308629.558 8  86734095.629 7  21181333.820                    21181342.344
 126621239.866 7  98665908.08043  24095199.211                    24095210.063
 106589150.267 8  83056622.155 8  20283209.836                    20283217.469
 113843946.877 8  88709625.982 7  21663781.914                    21663792.285
 121330172.278 7  94543069.158 6  23088370.469                    23088379.375
 112727137.572 8  87839533.65146  21451251.000                    21451256.703
 114700066.066 8  89376746.44245  21826697.047                    21826705.156
 11  8 26  1 38 30.0000000  0  8G10G12G26G05G25G29G02G30
 121606504.406 6  94758441.08343  23140921.508                    23140930.535
 111357068.625 8  86771840.352 7  21190552.039                    21190559.719
 126526451.867 7  98592047.45443  24077162.352                    24077172.184
 106602072.986 8  83066691.829 8  20285669.016                    20285676.922
 113828297.342 8  88697431.535 7  21660803.797                    21660813.871
 121246571.577 7  94477925.789 6  23072462.078                    23072470.750
 112761844.372 8  87866577.92246  21457855.570                    21457861.082
 114690702.209 8  89369449.93445  21824915.320                    21824923.574
 11  8 26  1 39  0.0000000  0  8G10G12G26G05G25G29G02G30
 121706545.613 6  94836395.22843  23159958.500                    23159967.637
 111405999.996 8  86809968.678 7  21199863.563                    21199871.309
 126431648.358 6  98518174.78543  24059120.977                    24059131.738
 106615544.825 8  83077189.393 8  20288232.570                    20288240.176
 113813224.577 8  88685686.517 7  21657935.430                    21657946.031
 121162996.044 7  94412802.033 6  23056558.461                    23056566.781
 112796640.142 8  87893691.51246  21464476.758                    21464482.750
 114681938.291 8  89362620.93745  21823247.055                    21823255.973
 11  8 26  1 39 30.0000000  0  8G10G12G26G05G25G29G02G30
 121806806.559 7  94914520.59143  23179037.289                    23179046.586
 111455421.788 8  86848479.161 7  21209267.742                    21209275.832
 126336832.404 6  98444292.41043  24041078.469                    24041089.063
 106629564.456 8  83088113.803 8  20290900.563                    20290907.980
 113798728.756 8  88674391.061 7  21655176.953                    21655187.281
 121079447.259 7  94347699.096 6  23040659.820                    23040667.652
 112831524.437 8  87920874.07846  21471115.586                    21471121.512
 114673774.028 8  89356259.18845  21821693.570                    21821702.000
 11  8 26  1 40  0.0000000  0  8G10G12G26G05G25G29G02G30
 121907284.381 7  94992814.99043  23198158.008                    23198166.336
 111505331.668 8  86887369.968 7  21218765.281                    21218773.340
 126242007.107 6  98370402.71843  24023032.711                    24023043.996
 106644130.327 8  83099463.852 8  20293672.109                    20293679.805
 113784809.861 8  88663545.160 7  21652528.297                    21652538.652
 120995926.500 7  94282618.009 6  23024765.625                    23024774.375
 112866496.787 8  87948125.26946  21477770.711                    21477776.156
 114666208.990 8  89350364.36045  21820253.711                    21820262.098
 11  8 26  1 40 30.0000000  0  8G10G12G26G05G25G29G02G30
 122007976.428 7  95071276.28143  23217318.984                    23217327.969
 111555728.160 8  86926639.952 7  21228355.266                    21228363.230
 126147176.107 6  98296508.66943  24004986.719                    24004997.953
 106659241.683 8  83111238.950 8  20296547.930                    20296555.109
 113771468.321 8  88653149.146 7  21649989.578                    21649999.867
 120912435.561 7  94217560.130 6  23008878.367                    23008886.539
 112901557.030 8  87975444.94646  21484442.453                    21484447.770
 114659243.116 7  89344936.41845  21818928.734                    21818937.273
 11  8 26  1 41  0.0000000  0  8G10G12G26G05G25G29G02G30
 122108879.655 7  95149902.15143  23236520.719                    23236528.832
 111606608.533 8  86966286.994 7  21238037.500                    21238045.359
 126052342.301 6  98222612.33443  23986940.797                    23986951.340
 106674896.922 8  83123437.861 8  20299526.867                    20299534.484
 113758704.142 8  88643203.024 7  21647560.773                    21647571.207
 120828975.796 7  94152526.543 6  22992996.383                    22993004.867
 112936704.481 8  88002832.57446  21491130.641                    21491136.480
 114652876.028 8  89339975.05245  21817717.172                    21817725.449
 11  8 26  1 41 30.0000000  0  8G10G12G26G05G25G29G02G30
 122209991.296 7  95228690.39643  23255761.344                    23255770.031
 111657970.885 8  87006309.600 7  21247811.633                    21247819.586
 125957509.166 6  98148716.56443  23968894.852                    23968904.793
 106691094.996 8  83136059.757 8  20302609.250                    20302616.574
 113746517.538 8  88633706.958 7  21645241.695                    21645251.965
 120745549.162 7  94087518.779 6  22977120.883                    22977129.117
 112971939.033 8  88030288.07646  21497835.406                    21497841.191
 114647107.408 7  89335480.02445  21816619.102                    21816627.586
 11  8 26  1 42  0.0000000  0  8G10G12G26G05G25G29G02G30
 122311308.463 7  95307638.81743  23275041.969                    23275049.977
 111709812.799 8  87046705.887 7  21257676.750                    21257684.512
 125862679.762 6  98074823.74343  23950848.672                    23950859.418
 106707834.397 8  83149103.465 8  20305794.594                    20305802.316
 113734908.463 8  88624660.908 7  21643032.438                    21643042.645
 120662157.062 7  94022537.910 6  22961251.789                    22961260.582
 113007260.155 8  88057811.02846  21504557.070                    21504562.273
 114641936.869 8  89331451.03545  21815635.555                    21815643.859
 11  8 26  1 42 30.0000000  0  8G10G12G26G05G25G29G02G30
 122412828.355 7  95386745.18144  23294359.648                    23294368.949
 111762132.584 8  87087474.534 7  21267633.047                    21267640.820
 125767857.819 6  98000936.63043  23932805.086                    23932815.141
 106725114.485 8  83162568.486 8  20309082.984                    20309090.090
 113723877.213 8  88616065.132 7  21640933.305                    21640943.930
 120578801.505 7  93957585.530 6  22945389.977                    22945398.301
 113042667.807 8  88085401.39746  21511294.547                    21511300.605
 114637364.224 8  89327887.93045  21814765.250                    21814773.523
 11  8 26  1 43  0.0000000  0  8G10G12G26G05G25G29G02G30
 122514548.111 7  95466007.30243  23313716.430                    23313725.703
 111814927.929 8  87128613.751 7  21277679.625                    21277687.500
 125673046.299 6  97927057.69843  23914763.023                    23914772.910
 106742933.419 8  83176453.381 8  20312473.852                    20312481.270
 113713423.623 8  88607919.472 7  21638943.922                    21638954.445
 120495483.726 7  93892662.576 6  22929535.227                    22929543.785
 113078161.299 8  88113058.65946  21518048.719                    21518054.598
 114633388.833 8  89324790.21345  21814008.680                    21814017.246
 11  8 26  1 43 30.0000000  0  8G10G12G26G05G25G29G02G30
 122616465.237 7  95545423.20043  23333110.594                    23333119.699
 111868196.321 8  87170121.573 7  21287816.234                    21287824.156
 125578248.607 6  97853189.54643  23896723.242                    23896733.184
 106761290.398 8  83190757.533 8  20315966.961                    20315974.297
 113703547.989 8  88600224.168 7  21637064.586                    21637074.871
 120412205.634 7  93827770.563 6  22913687.477                    22913696.254
 113113740.985 8  88140783.09046  21524819.219                    21524825.121
 114630010.556 8  89322157.77145  21813365.633                    21813373.887
 11  8 26  1 44  0.0000000  0  8G10G12G26G05G25G29G02G30
 122718576.774 7  95624990.60844  23352541.688                    23352551.039
 111921935.367 7  87211996.137 7  21298042.406                    21298050.582
 125483467.865 6  97779334.53244  23878687.320                    23878697.094
 106780183.350 8  83205479.326 8  20319562.063                    20319569.777
 113694249.971 8  88592978.957 7  21635295.469                    21635306.027
 120328968.697 7  93762910.626 6  22897848.195                    22897856.508
 113149406.082 8  88168574.06046  21531606.016                    21531612.086
 114627228.625 8  89319990.02145  21812836.102                    21812844.473
 11  8 26  1 44 30.0000000  0  8G10G12G26G05G25G29G02G30
 122820879.800 7  95704707.22143  23372009.570                    23372018.840
 111976143.770 8  87254236.431 7  21308357.633                    21308366.367
 125388707.687 7  97705495.57943  23860654.922                    23860664.230
 106799611.301 8  83220618.001 8  20323259.211                    20323266.813
 113685529.790 8  88586184.005 7  21633635.898                    21633646.457
 120245774.829 7  93698084.254 7  22882016.727                    22882025.297
 113185156.566 8  88196431.57946  21538409.672                    21538414.840
 114625042.827 8  89318286.79645  21812420.461                    21812428.688
 11  8 26  1 45  0.0000000  0  8G10G12G26G05G25G29G02G30
 122923371.235 7  95784570.63343  23391512.961                    23391522.316
 112030818.500 8  87296840.106 7  21318762.539                    21318770.770
 125293971.498 7  97631675.32943  23842627.453                    23842637.219
 106819572.923 8  83236172.524 8  20327057.438                    20327065.266
 113677387.386 8  88579839.275 7  21632086.609                    21632097.020
 120162625.839 7  93633292.857 7  22866194.078                    22866203.035
 113220992.182 8  88224355.44446  21545228.594                    21545234.332
 114623452.608 7  89317047.65845  21812117.742                    21812126.379
 11  8 26  1 45 30.0000000  0  8G10G12G26G05G25G29G02G30
 123026048.638 7  95864578.99143  23411052.180                    23411060.523
 112085957.311 8  87339805.392 7  21329254.750                    21329263.094
 125199262.473 7  97557876.18344  23824604.234                    23824614.020
 106840066.694 8  83252141.711 8  20330957.305                    20330964.832
 113669822.611 8  88573944.645 7  21630646.875                    21630657.207
 120079523.176 7  93568537.570 7  22850380.297                    22850388.754
 113256912.451 8  88252345.26646  21552064.031                    21552069.617
 114622457.362 8  89316272.14845  21811928.383                    21811936.668
 11  8 26  1 46  0.0000000  0  8G10G12G26G05G25G29G02G30
 123128909.283 7  95944730.07643  23430626.117                    23430634.672
 112141557.776 8  87383130.410 7  21339835.234                    21339843.211
 125104583.645 6  97484100.62243  23806587.438                    23806597.191
 106861090.903 8  83268524.223 8  20334958.234                    20334965.750
 113662835.111 8  88568499.834 7  21629317.492                    21629327.645
 119996468.425 7  93503819.613 7  22834575.781                    22834583.953
 113292916.996 8  88280400.75346  21558915.414                    21558920.852
 114622056.377 8  89315959.67445  21811852.148                    21811860.523
 11  8 26  1 46 30.0000000  0  8G10G12G26G05G25G29G02G30
 123231950.393 7  96025021.83743  23450233.805                    23450242.422
 112197617.982 7  87426813.659 7  21350503.281                    21350510.793
 125009939.074 6  97410351.72843  23788576.883                    23788586.309
 106882644.684 8  83285319.380 8  20339059.734                    20339067.504
 113656425.176 8  88563505.084 7  21628097.375                    21628107.922
 119913463.483 7  93439140.488 7  22818780.383                    22818788.668
 113329006.080 8  88308522.11346  21565783.063                    21565788.652
 114622249.418 8  89316110.08345  21811888.664                    21811897.250
 11  8 26  1 47  0.0000000  0  8G10G12G26G05G25G29G02G30
 123335169.491 7  96105452.29843  23469875.656                    23469884.301
 112254135.916 8  87470853.583 7  21361258.344                    21361266.488
 124915331.935 6  97336632.02143  23770573.391                    23770583.586
 106904726.841 8  83302526.262 8  20343262.047                    20343269.422
 113650592.727 8  88558960.320 7  21626987.836                    21626998.086
 119830510.333 7  93374501.716 7  22802994.695                    22803003.367
 113365179.413 8  88336709.13446  21572666.453                    21572672.172
 114623035.952 8  89316722.95545  21812038.484                    21812047.051
 11  8 26  1 47 30.0000000  0  8G10G12G26G05G25G29G02G30
 123438563.405 7  96186018.97643  23489550.852                    23489559.766
 112311109.282 8  87515248.387 7  21372099.539                    21372107.961
 124820765.471 6  97262943.99943  23752578.313                    23752587.730
 106927335.468 8  83320143.382 8  20347564.133                    20347571.523
 113645337.363 8  88554865.225 7  21625987.719                    21625998.055
 119747610.745 7  93309904.692 7  22787219.539                    22787227.629
 113401436.462 8  88364961.37645  21579565.781                    21579571.750
 114624415.119 7  89317797.62445  21812300.953                    21812309.117
 11  8 26  1 48  0.0000000  0  9G15G10G12G26G05G25G29G02G30
 129503301.00615                  24643689.805
 123542129.218 7  96266719.58843  23509259.313                    23509267.574
 112368535.182 7  87559995.822 7  21383027.516                    21383035.652
 124726243.016 6  97189290.25943  23734590.859                    23734600.336
 106950468.704 8  83338169.289 8  20351966.141                    20351973.750
 113640658.810 8  88551219.588 7  21625097.289                    21625107.609
 119664766.082 7  93245350.454 7  22771454.055                    22771462.578
 113437777.095 8  88393278.75246  21586481.734                    21586487.246
 114626386.210 8  89319333.52745  21812676.195                    21812684.660
 11  8 26  1 48 30.0000000  0  9G15G10G12G26G05G25G29G02G30
 129410650.57515 100839639.98616  24626058.734                    24626070.230
 123645864.277 7  96347552.09043  23528998.977                    23529007.652
 112426410.723 7  87605093.630 7  21394040.961                    21394048.578
 124631768.018 6  97115673.55643  23716612.523                    23716622.691
 106974125.149 8  83356602.893 8  20356468.094                    20356475.434
 113636556.762 8  88548023.184 7  21624316.961                    21624327.277
 119581977.998 7  93180840.311 6  22755700.000                    22755708.844
 113474201.143 8  88421661.13446  21593412.609                    21593418.699
 114628948.426 8  89321330.05545  21813164.039                    21813172.203
 11  8 26  1 49  0.0000000  0  9G15G10G12G26G05G25G29G02G30
 129317863.631 5 100767338.875 6  24608400.547                    24608413.359
 123749766.014 7  96428514.44643  23548770.820                    23548779.793
 112484734.257 7  87650540.516 7  21405139.484                    21405147.586
 124537343.630 6  97042096.21844  23698644.203                    23698654.285
 106998303.592 7  83375443.243 8  20361069.430                    20361076.578
 113633030.974 8  88545275.809 7  21623645.836                    21623656.098
 119499248.396 7  93116375.742 7  22739957.063                    22739965.777
 113510708.440 8  88450108.38045  21600359.703                    21600365.480
 114632101.095 8  89323786.67045  21813763.297                    21813772.273
 11  8 26  1 49 30.0000000  0  9G15G10G12G26G05G25G29G02G30
 129224942.222 6 100694932.962 6  24590718.242                    24590730.512
 123853831.319 7  96509604.28143  23568573.469                    23568583.188
 112543502.808 7  87696334.173 7  21416322.867                    21416330.813
 124442973.456 6  96968561.12044  23680686.000                    23680696.184
 107023002.001 8  83394688.769 8  20365769.023                    20365776.426
 113630080.867 8  88542977.021 7  21623084.273                    21623094.305
 119416579.062 7  93051958.126 6  22724225.758                    22724233.910
 113547298.314 8  88478619.96346  21607322.867                    21607328.555
 114635843.210 7  89326702.57945  21814475.992                    21814484.492
 11  8 26  1 50  0.0000000  0  9G15G10G12G26G05G25G29G02G30
 129131889.417 6 100622424.671 6  24573011.398                    24573022.762
 123958057.904 7  96590819.77143  23588407.617                    23588416.680
 112602714.463 8  87742473.099 7  21427590.594                    21427598.707
 124348661.159 6  96895071.18044  23662738.945                    23662749.398
 107048219.290 8  83414338.611 8  20370567.445                    20370574.703
 113627706.599 8  88541126.942 7  21622632.719                    21622642.859
 119333972.014 7  92987589.056 6  22708505.867                    22708514.602
 113583970.986 8  88507196.07946  21614301.555                    21614306.816
 114640174.366 7  89330077.49345  21815299.672                    21815307.867
 11  8 26  1 50 30.0000000  0  9G15G10G12G26G05G25G29G02G30
 129038707.824 6 100549816.012 6  24555278.805                    24555291.004
 124062442.917 6  96672158.70643  23608271.211                    23608280.348
 112662367.103 7  87788955.661 7  21438942.414                    21438949.414
 124254410.255 6  96821629.05044  23644804.172                    23644813.660
 107073954.136 8  83434391.746 8  20375464.734                    20375472.117
 113625907.975 8  88539725.403 7  21622290.383                    21622300.238
 119251429.104 7  92923269.952 7  22692798.414                    22692807.383
 113620726.668 8  88535836.88946  21621295.711                    21621301.004
 114645093.925 8  89333910.89545  21816235.547                    21816244.531
 11  8 26  1 51  0.0000000  0  9G15G10G12G26G05G25G29G02G30
 128945399.423 6 100477108.538 6  24537523.039                    24537534.656
 124166983.430 6  96753618.82743  23628164.852                    23628174.156
 112722457.648 8  87835779.446 7  21450377.234                    21450385.031
 124160223.794 7  96748237.10044  23626880.992                    23626890.227
 107100204.202 8  83454846.347 8  20380460.195                    20380467.586
 113624684.256 8  88538771.845 7  21622057.375                    21622067.617
 119168952.047 7  92859002.171 6  22677104.211                    22677111.863
 113657564.500 8  88564541.70745  21628305.695                    21628311.313
 114650600.780 8  89338201.92645  21817284.672                    21817292.445
 11  8 26  1 51 30.0000000  0  9G15G10G12G26G05G25G29G02G30
 128851966.997 6 100404304.425 6  24519742.516                    24519754.223
 124271677.117 7  96835198.27343  23648087.367                    23648097.043
 112782984.234 8  87882943.006 7  21461894.727                    21461903.023
 124066105.362 7  96674898.15844  23608970.195                    23608979.457
 107126968.137 8  83475701.371 8  20385552.914                    20385560.180
 113624035.117 8  88538266.024 7  21621933.992                    21621944.324
 119086542.445 7  92794786.927 6  22661421.547                    22661429.508
 113694484.656 8  88593310.66945  21635331.273                    21635336.848
 114656694.105 8  89342949.96045  21818443.234                    21818452.289
 11  8 26  1 52  0.0000000  0  9G15G10G12G26G05G25G29G02G30
 128758413.208 6 100331405.750 6  24501939.891                    24501951.402
 124376521.130 7  96916894.87444  23668038.344                    23668047.762
 112843944.325 8  87930444.356 7  21473495.406                    21473503.695
 123972058.816 7  96601615.27543  23591073.664                    23591083.223
 107154244.695 8  83496955.839 8  20390743.602                    20390750.695
 113623960.439 8  88538207.836 7  21621919.734                    21621929.906
 119004202.519 7  92730625.974 6  22645752.922                    22645761.004
 113731487.127 8  88622143.77746  21642372.430                    21642377.988
 114663373.245 8  89348154.45645  21819714.367                    21819723.094
 11  8 26  1 52 30.0000000  0  9G15G10G12G26G05G25G29G02G30
 128664740.552 6 100258414.439 6  24484114.008                    24484125.473
 124481512.849 7  96998706.56443  23688018.086                    23688026.570
 112905335.089 7  87978281.300 7  21485177.820                    21485185.602
 123878087.669 7  96528391.09244  23573191.523                    23573200.516
 107182032.510 8  83518608.689 8  20396031.453                    20396038.648
 113624459.932 8  88538597.045 7  21622014.906                    21622025.281
 118921934.278 7  92666520.878 6  22630098.070                    22630106.395
 113768572.160 8  88651041.22246  21649429.453                    21649435.336
 114670637.441 8  89353814.84445  21821097.172                    21821105.402
 11  8 26  1 53  0.0000000  0  9G15G10G12G26G05G25G29G02G30
 128570951.410 6 100185332.341 5  24466266.570                    24466277.332
 124586649.519 7  97080631.21943  23708025.023                    23708033.625
 112967154.293 7  88026452.080 7  21496941.289                    21496949.426
 123784194.900 6  96455228.02044  23555324.023                    23555333.414
 107210329.308 8  83540658.152 8  20401416.148                    20401423.195
 113625532.698 8  88539432.969 7  21622219.102                    21622229.930
 118839739.175 7  92602472.785 7  22614457.078                    22614464.969
 113805739.083 8  88680002.46846  21656502.234                    21656507.922
 114678485.411 8  89359930.12845  21822590.023                    21822599.145
 11  8 26  1 53 30.0000000  0  9G15G10G12G26G05G25G29G02G30
 128477048.405 6 100112161.516 5  24448396.672                    24448407.785
 124691928.343 7  97162666.63843  23728058.680                    23728067.957
 113029399.038 8  88074954.459 7  21508786.039                    21508794.230
 123690383.973 6  96382128.66643  23537472.813                    23537481.762
 107239133.035 8  83563102.626 8  20406897.102                    20406904.293
 113627178.073 8  88540715.088 7  21622532.008                    21622542.199
 118757618.856 7  92538482.982 7  22598829.641                    22598837.996
 113842987.372 8  88709027.11245  21663590.180                    21663595.648
 114686915.985 7  89366499.39845  21824194.586                    21824203.410
 11  8 26  1 54  0.0000000  0  9G15G10G12G26G05G25G29G02G30
 128383033.772 6 100038903.662 5  24430506.531                    24430516.410
 124797346.957 7  97244811.00943  23748119.656                    23748128.059
 113092067.067 8  88123786.675 7  21520711.258                    21520719.734
 123596658.767 7  96309096.13244  23519637.227                    23519646.836
 107268442.691 8  83585941.326 8  20412474.742                    20412481.535
 113629395.922 8  88542443.280 7  21622954.156                    21622964.359
 118675575.507 7  92474553.138 6  22583217.063                    22583225.352
 113880317.375 8  88738115.44545  21670693.625                    21670699.715
 114695928.552 8  89373522.15945  21825910.000                    21825918.422
 11  8 26  1 54 30.0000000  0  9G15G10G12G26G05G25G29G02G30
 128288910.035 7  99965560.792 5  24412594.625                    24412605.438
 124902902.478 7  97327062.04843  23768205.695                    23768214.980
 113155156.268 8  88172947.075 7  21532716.680                    21532725.004
 123503022.613 7  96236132.99744  23501819.109                    23501827.813
 107298256.223 8  83609172.663 8  20418147.820                    20418155.375
 113632185.525 8  88544617.002 7  21623484.859                    21623495.195
 118593610.933 7  92410684.676 6  22567619.938                    22567627.984
 113917728.890 7  88767267.27245  21677812.773                    21677818.688
 114705522.018 7  89380997.59245  21827735.133                    21827743.738
 11  8 26  1 55  0.0000000  0  9G15G10G12G26G05G25G29G02G30
 128194679.716 6  99892134.887 5  24394663.375                    24394674.273
 125008592.179 7  97409417.66543  23788317.711                    23788326.359
 113218663.129 8  88222432.927 7  21544801.875                    21544809.992
 123409478.969 7  96163241.94044  23484018.352                    23484027.461
 107328571.820 8  83632795.220 8  20423916.883                    20423924.172
 113635546.282 8  88547235.779 7  21624124.656                    21624134.914
 118511726.992 7  92346879.053 6  22552037.719                    22552045.789
 113955221.949 7  88796482.64745  21684948.125                    21684953.570
 114715695.238 8  89388924.79045  21829670.797                    21829679.762
 11  8 26  1 55 30.0000000  0  9G15G10G12G26G05G25G29G02G30
 128100345.511 6  99818628.076 5  24376710.906                    24376722.348
 125114413.664 7  97491875.95743  23808454.711                    23808463.984
 113282585.563 7  88272242.607 7  21556965.844                    21556973.863
 123316031.432 7  96090425.79144  23466235.414                    23466244.637
 107359387.872 8  83656807.743 8  20429781.031                    20429788.445
 113639477.724 8  88550299.257 7  21624872.680                    21624883.281
 118429925.648 7  92283137.783 7  22536471.656                    22536479.758
 113992796.144 7  88825761.24146  21692097.852                    21692102.984
 114726447.269 7  89397303.00445  21831717.375                    21831725.848
 11  8 26  1 56  0.0000000  0  9G15G10G12G26G05G25G29G02G30
 128005910.149 6  99745042.425 6  24358740.406                    24358751.910
 125220364.065 6  97574434.70543  23828616.633                    23828625.418
 113346920.789 7  88322373.937 7  21569208.594                    21569216.551
 123222683.386 7  96017687.14744  23448471.945                    23448481.203
 107390702.651 8  83681208.874 8  20435739.969                    20435747.547
 113643979.081 8  88553806.812 7  21625729.148                    21625739.496
 118348208.835 7  92219462.388 6  22520921.273                    22520929.176
 114030451.589 7  88855103.15446  21699263.500                    21699269.117
 114737776.893 8  89406131.30045  21833873.359                    21833881.426
 11  8 26  1 56 30.0000000  0  9G15G10G12G26G05G25G29G02G30
 127911376.392 6  99671380.053 5  24340751.570                    24340762.223
 125326440.623 6  97657091.72942  23848802.219                    23848811.000
 113411666.846 7  88372825.400 7  21581529.023                    21581537.199
 123129438.550 7  95945028.94244  23430728.102                    23430737.422
 107422514.421 8  83705997.285 8  20441793.641                    20441801.145
 113649049.741 8  88557757.978 7  21626694.109                    21626704.480
 118266578.638 7  92155854.490 7  22505387.539                    22505395.578
 114068188.009 7  88884508.16646  21706444.680                    21706449.988
 114749683.066 8  89415408.84445  21836138.930                    21836147.348
 11  8 26  1 57  0.0000000  0  9G15G10G12G26G05G25G29G02G30
 127816746.467 6  99597642.735 6  24322743.711                    24322754.434
 125432640.672 6  97739844.98242  23869011.109                    23869020.758
 113476820.617 7  88423594.560 7  21593927.641                    21593935.398
 123036300.296 7  95872453.75744  23413004.547                    23413013.000
 107454821.046 8  83731171.293 8  20447941.227                    20447948.543
 113654688.956 8  88562152.175 7  21627767.117                    21627778.008
 118185036.554 7  92092315.265 7  22489870.469                    22489878.879
 114106005.403 7  88913976.26245  21713640.469                    21713646.746
 114762164.500 8  89425134.65245  21838514.289                    21838522.594
 11  8 26  1 57 30.0000000  0  9G15G10G12G26G05G25G29G02G30
 127722022.830 6  99523832.389 6  24304718.258                    24304728.516
 125538961.660 6  97822692.45243  23889243.875                    23889252.879
 113542378.937 7  88474678.956 7  21606403.047                    21606410.699
 122943271.846 7  95799964.15444  23395301.766                    23395310.914
 107487620.808 8  83756729.563 8  20454182.867                    20454190.168
 113660895.889 8  88566988.742 7  21628948.328                    21628959.176
 118103584.845 7  92028846.447 7  22474370.813                    22474379.094
 114143903.717 7  88943507.41645  21720852.305                    21720858.254
 114775219.883 8  89435307.69445  21840998.594                    21841006.793
 11  8 26  1 58  0.0000000  0  9G15G10G12G26G05G25G29G02G30
 127627208.153 6  99449951.119 6  24286674.914                    24286686.055
 125645401.186 6  97905632.32243  23909499.180                    23909507.766
 113608339.938 7  88526077.126 7  21618954.805                    21618962.840
 122850357.227 7  95727563.24444  23377620.391                    23377628.918
 107520911.888 8  83782670.681 8  20460518.289                    20460525.520
 113667670.086 8  88572267.337 7  21630237.375                    21630247.898
 118022225.217 7  91965449.392 7  22458888.758                    22458896.867
 114181882.989 7  88973101.65745  21728080.109                    21728085.379
 114788848.279 8  89445927.23545  21843591.719                    21843600.832
 11  8 26  1 58 30.0000000  0  9G15G10G12G26G05G25G29G02G30
 127532305.271 6  99376001.102 6  24268616.438                    24268626.168
 125751956.429 6  97988662.33043  23929775.930                    23929784.770
 113674700.742 7  88577786.825 7  21631582.797                    21631591.027
 122757559.870 7  95655253.70744  23359961.242                    23359970.555
 107554692.492 8  83808993.248 8  20466946.047                    20466953.441
 113675010.658 8  88577987.257 7  21631634.031                    21631644.480
 117940959.583 7  91902125.572 7  22443424.570                    22443432.578
 114219943.012 7  89002758.81345  21735322.289                    21735328.348
 114803048.408 8  89456992.27145  21846294.031                    21846302.305
 11  8 26  1 59  0.0000000  0  9G15G10G12G26G05G25G29G02G30
 127437316.756 6  99301984.339 6  24250539.852                    24250550.184
 125858624.830 6  98071780.55343  23950073.938                    23950082.715
 113741459.026 7  88629806.270 7  21644286.656                    21644294.727
 122664883.043 7  95583038.07444  23342325.539                    23342334.762
 107588960.654 8  83835695.720 8  20473467.320                    20473474.461
 113682916.749 8  88584147.838 7  21633138.758                    21633149.078
 117859790.022 7  91838876.609 7  22427977.875                    22427985.996
 114258083.378 7  89032478.58345  21742580.219                    21742586.355
 114817818.857 8  89468501.72145  21849105.031                    21849113.219
 11  8 26  1 59 30.0000000  0  9G15G10G12G26G05G25G29G02G30
 127342244.886 7  99227902.622 6  24232448.422                    24232458.477
 125965403.929 6  98154985.03443  23970392.984                    23970402.215
 113808611.524 7  88682132.878 7  21657065.406                    21657073.691
 122572330.862 7  95510919.58744  23324713.172                    23324722.555
 107623714.738 8  83862776.840 8  20480080.742                    20480088.188
 113691387.673 8  88590748.557 7  21634750.789                    21634760.672
 117778718.602 7  91775704.104 7  22412550.922                    22412558.875
 114296304.757 7  89062261.47045  21749853.883                    21749859.664
 114833158.555 8  89480454.74745  21852023.477                    21852032.176
 11  8 26  2  0  0.0000000  0  9G15G10G12G26G05G25G29G02G30
 127247092.383 7  99153758.058 6  24214340.961                    24214350.965
 126072291.005 6  98238273.65043  23990733.102                    23990741.898
 113876155.712 7  88734764.705 7  21669918.406                    21669926.828
 122479906.568 7  95438900.72344  23307125.648                    23307134.527
 107658952.402 8  83890234.774 8  20486786.281                    20486793.207
 113700422.474 8  88597788.655 7  21636470.203                    21636480.391
 117697747.118 7  91712609.480 7  22397142.555                    22397150.789
 114334606.840 7  89092107.25445  21757142.125                    21757147.945
 114849066.034 8  89492850.17745  21855050.813                    21855059.301
 11  8 26  2  0 30.0000000  0  9G15G10G12G26G05G25G29G02G30
 127151862.152 7  99079552.878 6  24196219.781                    24196229.609
 126179283.463 7  98321644.40843  24011093.266                    24011101.957
 113944089.008 7  88787699.718 7  21682846.125                    21682854.094
 122387613.526 7  95366984.15944  23289562.820                    23289571.715
 107694672.053 8  83918068.284 8  20493583.289                    20493591.141
 113710020.368 8  88605267.523 7  21638296.422                    21638306.473
 117616877.665 7  91649594.347 7  22381753.453                    22381761.668
 114372989.584 8  89122015.87845  21764446.297                    21764451.816
 114865540.070 8  89505687.08345  21858185.539                    21858193.887
 11  8 26  2  1  0.0000000  0  9G15G10G12G26G05G25G29G02G30
 127056556.915 6  99005289.245 6  24178083.305                    24178093.004
 126286378.801 7  98405095.29343  24031472.344                    24031481.688
 114012408.814 7  88840935.924 7  21695846.648                    21695854.836
 122295455.723 7  95295172.94444  23272026.086                    23272034.590
 107730871.940 8  83946276.000 8  20500472.023                    20500479.352
 113720180.523 8  88613184.518 7  21640230.031                    21640240.730
 117536112.238 7  91586660.284 7  22366384.523                    22366392.707
 114411452.923 7  89151987.31045  21771765.906                    21771771.434
 114882579.333 8  89518964.41845  21861428.344                    21861436.980
 11  8 26  2  1 30.0000000  0  9G15G10G12G26G05G25G29G02G30
 126961179.181 7  98930969.138 6  24159933.219                    24159943.496
 126393574.397 7  98488624.29943  24051871.617                    24051880.520
 114081112.111 7  88894470.939 7  21708920.766                    21708928.957
 122203436.472 7  95223469.71744  23254515.289                    23254524.195
 107767549.710 8  83974856.087 8  20507451.531                    20507458.848
 113730901.842 8  88621538.791 7  21642269.836                    21642280.227
 117455452.688 7  91523808.714 7  22351035.359                    22351042.938
 114449996.619 7  89182021.36245  21779100.055                    21779105.762
 114900182.257 8  89532680.97645  21864777.883                    21864786.367
 11  8 26  2  2  0.0000000  0  9G15G10G12G26G05G25G29G02G30
 126865731.669 7  98856594.617 6  24141770.305                    24141779.703
 126500867.883 6  98572229.63243  24072288.688                    24072297.109
 114150196.597 7  88948303.001 7  21722067.000                    21722075.012
 122111559.541 7  95151877.37144  23237031.344                    23237039.895
 107804703.657 8  84003807.234 8  20514521.797                    20514528.719
 113742183.673 8  88630329.818 7  21644416.820                    21644427.168
 117374901.004 7  91461041.187 7  22335706.930                    22335714.871
 114488620.942 7  89212118.24445  21786450.227                    21786455.977
 114918347.651 8  89546835.80745  21868234.531                    21868243.098
 11  8 26  2  2 30.0000000  0  9G15G10G12G26G05G25G29G02G30
 126770217.125 7  98782167.865 6  24123594.195                    24123603.961
 126608256.404 6  98655908.95242  24092723.953                    24092732.961
 114219659.020 7  89002429.557 7  21735285.133                    21735293.316
 122019828.343 7  95080398.59044  23219575.305                    23219584.434
 107842331.786 8  84033127.863 8  20521682.102                    20521689.559
 113754024.712 8  88639556.594 7  21646670.211                    21646680.391
 117294459.542 7  91398359.552 7  22320398.938                    22320406.535
 114527325.735 8  89242277.81645  21793815.570                    21793821.324
 114937073.907 8  89561427.68345  21871798.234                    21871806.660
 11  8 26  2  3  0.0000000  0  9G15G10G12G26G05G25G29G02G30
 126674638.119 7  98707690.927 6  24105405.477                    24105416.063
 126715737.600 6  98739660.53042  24113176.930                    24113185.707
 114289496.799 7  89056848.585 7  21748574.852                    21748582.910
 121928246.675 7  95009036.32344  23202147.859                    23202156.727
 107880432.120 8  84062816.440 8  20528932.211                    20528939.895
 113766424.133 8  88649218.472 7  21649029.813                    21649039.918
 117214130.113 7  91335765.197 6  22305113.023                    22305120.637
 114566111.037 8  89272500.13345  21801196.234                    21801201.809
 114956359.652 8  89576455.52345  21875468.148                    21875476.594
 11  8 26  2  3 30.0000000  0  9G15G10G12G26G05G25G29G02G30
 126578997.586 6  98633166.030 6  24087205.188                    24087215.785
 126823309.224 6  98823482.52542  24133647.164                    24133656.004
 114359707.792 7  89111558.429 7  21761935.523                    21761944.035
 121836818.081 7  94937793.34144  23184749.305                    23184758.770
 107919002.879 7  84092871.583 8  20536272.094                    20536279.668
 113779381.086 8  88659314.793 7  21651495.172                    21651505.781
 117133914.699 7  91273259.691 7  22289848.883                    22289856.484
 114604977.194 7  89302785.44945  21808592.141                    21808597.441
 114976203.504 8  89591918.25945  21879244.414                    21879252.984
 11  8 26  2  4  0.0000000  0  9G15G10G12G26G05G25G29G02G30
 126483297.936 6  98558595.058 6  24068994.906                    24069005.078
 126930968.455 6  98907372.79543  24154134.164                    24154142.582
 114430288.319 7  89166556.241 7  21775366.805                    21775374.730
 121745546.039 7  94866672.34344  23167380.531                    23167390.051
 107958041.695 8  84123291.450 8  20543700.570                    20543708.012
 113792894.300 8  88669844.564 7  21654066.906                    21654077.000
 117053815.515 7  91210844.747 7  22274605.750                    22274613.949
 114643923.880 7  89333133.51445  21816003.570                    21816008.969
 114996603.825 8  89607814.60645  21883126.281                    21883134.418
 11  8 26  2  4 30.0000000  0  9G15G10G12G26G05G25G29G02G30
 126387541.990 6  98483980.211 6  24050772.539                    24050782.797
 127038712.437 6  98991329.16443  24174637.586                    24174645.723
 114501235.772 7  89221839.955 7  21788867.688                    21788875.770
 121654434.292 7  94795676.25544  23150042.883                    23150052.176
 107997546.331 8  84154074.293 8  20551218.281                    20551225.855
 113806962.591 8  88680806.864 7  21656744.055                    21656754.465
 116973834.373 7  91148521.803 7  22259386.133                    22259394.227
 114682950.849 8  89363544.13545  21823429.758                    21823435.773
 115017558.905 8  89624143.22345  21887114.195                    21887122.324
 11  8 26  2  5  0.0000000  0  9G15G10G12G26G05G25G29G02G30
 126291732.238 6  98409323.407 6  24032540.305                    24032550.648
 127146539.015 6  99075349.83743  24195155.797                    24195164.840
 114572547.261 7  89277407.337 7  21802437.469                    21802445.867
 121563486.108 7  94724807.60844  23132736.102                    23132744.969
 108037514.717 8  84185218.499 8  20558824.172                    20558831.195
 113821584.854 8  88692200.832 7  21659526.406                    21659537.020
 116893973.360 7  91086292.452 7  22244188.930                    22244197.207
 114722058.158 7  89394017.36145  21830871.977                    21830877.500
 115039067.221 8  89640902.93945  21891207.023                    21891215.234
 11  8 26  2  5 30.0000000  0  9G15G10G12G26G05G25G29G02G30
 126195871.435 6  98334626.835 6  24014299.023                    24014308.512
 127254445.899 6  99159433.11343  24215690.172                    24215698.703
 114644220.232 8  89333256.395 7  21816076.711                    21816084.770
 121472705.163 7  94654069.28144  23115460.711                    23115470.027
 108077945.262 8  84216722.822 8  20566517.828                    20566524.977
 113836760.005 8  88704025.621 7  21662414.297                    21662424.484
 116814234.929 7  91024158.621 7  22229015.484                    22229023.598
 114761246.098 8  89424553.40145  21838328.938                    21838335.008
 115061127.238 8  89658092.55945  21895404.289                    21895413.320
 11  8 26  2  6  0.0000000  0  9G15G10G12G26G05G25G29G02G30
 126099962.861 6  98259893.061 6  23996047.828                    23996057.469
 127362430.378 6  99243576.83643  24236238.969                    24236248.305
 114716251.918 7  89389384.987 7  21829783.734                    21829792.102
 121382095.354 7  94583464.30444  23098218.039                    23098227.242
 108118835.937 8  84248585.692 8  20574299.063                    20574306.348
 113852487.259 8  88716280.625 7  21665406.773                    21665417.270
 116734620.736 7  90962121.604 7  22213865.250                    22213873.508
 114800515.020 7  89455152.55845  21845801.789                    21845807.516
 115083737.639 8  89675711.04745  21899707.875                    21899715.855
 11  8 26  2  6 30.0000000  0  9G15G10G12G26G05G25G29G02G30
 126004008.991 7  98185123.991 6  23977788.461                    23977798.480
 127470489.922 6  99327779.07943  24256802.711                    24256810.641
 114788639.657 7  89445791.019 7  21843558.547                    21843566.934
 121291660.413 7  94512995.57044  23081009.164                    23081018.359
 108160184.495 8  84280805.352 8  20582167.172                    20582174.813
 113868765.266 8  88728964.787 7  21668504.617                    21668515.340
 116655133.011 7  90900183.143 7  22198739.023                    22198747.109
 114839864.621 8  89485814.57645  21853289.750                    21853295.406
 115106896.661 8  89693757.03845  21904114.289                    21904123.133
 11  8 26  2  7  0.0000000  0  9G15G10G12G26G05G25G29G02G30
 125908012.249 7  98110321.483 6  23959520.852                    23959530.305
 127578622.139 7  99412037.92543  24277379.008                    24277387.762
 114861380.182 7  89502471.943 7  21857400.633                    21857408.871
 121201403.805 7  94442665.81344  23063833.703                    23063842.883
 108201988.518 8  84313379.920 8  20590122.266                    20590130.234
 113885592.664 8  88742077.036 7  21671706.813                    21671717.320
 116575773.408 7  90838344.509 7  22183637.797                    22183645.766
 114879294.645 7  89516539.26745  21860793.055                    21860798.664
 115130602.414 8  89712229.05345  21908625.445                    21908633.953
 11  8 26  2  7 30.0000000  0  9G15G10G12G26G05G25G29G02G30
 125811975.726 7  98035487.976 6  23941245.570                    23941255.215
 127686824.643 6  99496351.53343  24297968.961                    24297977.813
 114934471.090 7  89559425.902 7  21871309.391                    21871317.430
 121111329.220 7  94372477.88644  23046693.164                    23046702.020
 108244246.474 8  84346308.207 8  20598163.609                    20598170.777
 113902968.436 8  88755616.588 7  21675013.117                    21675023.516
 116496544.523 7  90776607.742 7  22168560.906                    22168568.871
 114918805.674 8  89547327.07145  21868311.453                    21868317.520
 115154853.458 8  89731125.97345  21913240.336                    21913248.996
 11  8 26  2  8  0.0000000  0  9G15G10G12G26G05G25G29G02G30
 125715902.039 7  97960625.511 6  23922963.078                    23922972.781
 127795094.891 7  99580717.93943  24318572.305                    24318580.867
 115007909.099 8  89616650.307 7  21885283.891                    21885292.320
 121021440.244 7  94302434.60444  23029588.156                    23029596.578
 108286955.741 8  84379588.166 8  20606291.047                    20606298.484
 113920891.119 8  88769582.309 7  21678423.742                    21678434.465
 116417448.409 7  90714974.439 7  22153509.469                    22153517.785
 114958397.372 7  89578177.73545  21875845.648                    21875851.492
 115179647.954 8  89750446.34945  21917958.352                    21917967.055
 11  8 26  2  8 30.0000000  0  9G15G10G12G26G05G25G29G02G30
 125619793.987 7  97885736.249 6  23904673.938                    23904683.902
 127903430.352 6  99665135.18743  24339187.852                    24339196.945
 115081691.370 7  89674142.996 7  21899324.180                    21899332.332
 120931740.284 7  94232538.60044  23012518.844                    23012527.457
 108330114.227 8  84413218.163 8  20614503.875                    20614511.688
 113939359.446 8  88783973.216 7  21681938.164                    21681948.672
 116338486.929 7  90653446.043 7  22138483.727                    22138491.719
 114998070.061 7  89609091.49945  21883395.000                    21883401.125
 115204984.013 8  89770188.73045  21922779.680                    21922788.320
 11  8 26  2  9  0.0000000  0  9G15G10G12G26G05G25G29G02G30
 125523654.412 7  97810822.435 6  23886378.914                    23886389.145
 128011828.871 6  99749601.54243  24359814.508                    24359824.738
 115155815.397 7  89731901.969 7  21913429.719                    21913438.316
 120842233.530 7  94162793.16544  22995485.930                    22995494.520
 108373720.358 8  84447196.984 7  20622801.602                    20622809.031
 113958372.574 8  88798788.629 7  21685556.219                    21685567.156
 116259662.784 7  90592024.663 7  22123483.891                    22123491.863
 115037824.130 7  89640068.67845  21890960.258                    21890966.125
 115230860.513 8  89790352.23345  21927703.867                    21927712.895
 11  8 26  2  9 30.0000000  0  9G15G10G12G26G05G25G29G02G30
 125427486.359 6  97735886.409 6  23868079.039                    23868088.453
 128120288.188 6  99834115.24043  24380454.570                    24380463.605
 115230278.156 8  89789924.897 7  21927599.492                    21927608.160
 120752923.161 7  94093200.73844  22978490.836                    22978499.684
 108417771.853 8  84481522.832 8  20631184.359                    20631191.590
 113977928.886 8  88814027.319 7  21689277.781                    21689288.141
 116180977.664 7  90530711.616 7  22108510.313                    22108518.371
 115077659.281 7  89671109.03945  21898540.227                    21898546.449
 115257275.218 7  89810935.11745  21932730.508                    21932739.184
 11  8 26  2 10  0.0000000  0  9G15G10G12G26G05G25G29G02G30
 125331292.473 6  97660930.256 6  23849774.039                    23849783.012
 128228805.550 6  99918674.23243  24401103.891                    24401113.504
 115305076.963 8  89848209.684 7  21941833.414                    21941841.719
 120663813.381 7  94023764.62844  22961533.469                    22961542.551
 108462266.547 8  84516194.030 8  20639651.430                    20639658.578
 113998027.139 8  88829688.302 7  21693102.008                    21693112.953
 116102433.767 7  90469508.615 7  22093564.016                    22093571.918
 115117575.781 8  89702212.78445  21906136.109                    21906142.465
 115284226.489 7  89831936.10145  21937858.938                    21937867.980
 11  8 26  2 10 30.0000000  0  9G15G10G12G26G05G25G29G02G30
 125235075.643 6  97585956.237 6  23831464.141                    23831473.508
 128337378.498 6 100003276.46643  24421764.430                    24421774.891
 115380208.664 8  89906753.861 7  21956130.695                    21956138.824
 120574907.170 7  93954487.12744  22944615.250                    22944624.242
 108507201.835 8  84551208.555 7  20648202.461                    20648209.574
 114018665.794 8  88845770.374 7  21697029.773                    21697040.434
 116024033.080 7  90408417.206 7  22078644.773                    22078653.004
 115157573.472 7  89733379.80445  21913747.547                    21913753.391
 115311712.386 7  89853353.68845  21943089.563                    21943098.320
 11  8 26  2 11  0.0000000  0  9G15G10G12G26G05G25G29G02G30
 125138837.953 6  97510965.959 6  23813150.789                    23813160.004
 128446004.777 6 100087920.31242  24442435.508                    24442445.262
 115455669.954 8  89965554.861 7  21970490.039                    21970498.668
 120486208.130 7  93885371.05544  22927736.141                    22927745.375
 108552575.231 8  84586564.461 8  20656836.758                    20656844.332
 114039843.223 8  88862272.266 7  21701059.625                    21701070.055
 115945777.771 7  90347439.077 7  22063753.484                    22063761.074
 115197652.251 8  89764610.00245  21921374.805                    21921379.906
 115339730.782 8  89875186.19945  21948421.453                    21948429.688
 11  8 26  2 11 30.0000000  0  9G15G10G12G26G05G25G29G02G30
 125042583.258 6  97435962.427 6  23794833.422                    23794843.746
 128554682.183 6 100172604.00842  24463117.273                    24463125.973
 115531458.537 8  90024610.892 7  21984912.367                    21984920.547
 120397720.562 7  93816419.77144  22910897.281                    22910906.500
 108598385.804 8  84622261.018 7  20665554.469                    20665561.332
 114061558.762 8  88879193.468 7  21705191.719                    21705202.422
 115867670.525 7  90286576.331 7  22048890.367                    22048898.133
 115237812.959 8  89795904.03845  21929016.945                    21929022.648
 115368280.585 8  89897432.80445  21953854.258                    21953862.656
 11  8 26  2 12  0.0000000  0  9G15G10G12G26G05G25G29G02G30
 124946314.142 7  97360947.685 6  23776514.656                    23776523.777
 128663408.195 6 100257325.58042  24483806.758                    24483815.465
 115607571.657 8  90083919.824 7  21999396.469                    21999404.215
 120309447.947 7  93747635.97344  22894099.789                    22894108.527
 108644630.849 8  84658296.136 7  20674354.609                    20674361.484
 114083810.743 8  88896532.674 7  21709426.359                    21709436.863
 115789713.186 8  90225830.390 7  22034054.891                    22034063.395
 115278055.514 8  89827261.86445  21936674.930                    21936680.188
 115397359.602 8  89920091.79045  21959387.734                    21959396.539
 11  8 26  2 12 30.0000000  0  9G15G10G12G26G05G25G29G02G30
 124850033.055 7  97285923.544 6  23758193.313                    23758202.074
 128772180.521 6 100342083.25942  24504505.531                    24504515.129
 115684006.062 8  90143479.091 7  22013941.242                    22013949.531
 120221393.870 7  93679022.48044  22877343.477                    22877352.617
 108691307.948 8  84694667.920 8  20683236.906                    20683243.809
 114106597.439 8  88914288.551 7  21713762.359                    21713772.988
 115711907.733 7  90165202.797 7  22019249.047                    22019257.070
 115318380.058 8  89858683.57145  21944348.047                    21944353.816
 115426965.749 8  89943161.53045  21965021.453                    21965030.195
 11  8 26  2 13  0.0000000  0  9G15G10G12G26G05G25G29G02G30
 124753743.090 7  97210892.544 6  23739869.609                    23739878.215
 128880996.684 6 100426875.09142  24525212.289                    24525221.816
 115760758.719 8  90203286.355 7  22028546.680                    22028554.645
 120133561.927 7  93610582.06544  22860629.625                    22860638.461
 108738414.826 8  84731374.602 7  20692200.688                    20692207.543
 114129917.505 8  88932460.045 7  21718200.070                    21718210.477
 115634256.456 7  90104695.355 7  22004472.703                    22004480.680
 115358786.540 7  89890169.12045  21952037.344                    21952043.582
 115457097.214 8  89966640.60745  21970755.266                    21970763.980
 11  8 26  2 13 30.0000000  0  9G15G10G12G26G05G25G29G02G30
 124657447.124 7  97135856.817 6  23721544.422                    23721554.133
 128989854.417 6 100511699.28643  24545927.516                    24545937.223
 115837826.614 8  90263339.246 7  22043212.461                    22043220.281
 120045955.811 7  93542317.62944  22843958.711                    22843967.398
 108785949.347 8  84768414.501 7  20701246.352                    20701253.324
 114153769.341 8  88951045.895 7  21722738.883                    21722749.137
 115556761.597 8  90044309.783 7  21989725.742                    21989733.297
 115399274.775 7  89921718.38645  21959742.281                    21959748.055
 115487751.937 7  89990527.40945  21976588.883                    21976597.453
 11  8 26  2 14  0.0000000  0  9G15G10G12G26G05G25G29G02G30
 124561148.180 7  97060818.799 6  23703219.391                    23703229.000
 129098751.370 6 100596554.03143  24566650.188                    24566658.551
 115915207.151 8  90323635.759 7  22057937.586                    22057945.586
 119958579.430 7  93474232.19544  22827331.547                    22827340.516
 108833909.515 8  84805786.081 7  20710372.828                    20710379.898
 114178151.738 8  88970045.178 7  21727378.883                    21727389.293
 115479425.454 8  89984047.882 7  21975009.305                    21975017.039
 115439845.549 8  89953331.97645  21967462.492                    21967468.297
 115518928.209 8  90014820.61745  21982521.438                    21982529.684
 11  8 26  2 14 30.0000000  0  8G15G12G26G05G25G29G02G30
 124464850.009 7  96985781.367 6  23684894.625                    23684903.379
 115992898.324 8  90384174.336 7  22072721.555                    22072729.594
 119871437.378 7  93406329.35244  22810748.766                    22810757.766
 108882294.048 8  84843488.332 7  20719580.172                    20719587.133
 114203064.042 8  88989457.370 7  21732119.531                    21732129.746
 115402251.232 7  89923912.151 7  21960323.227                    21960331.270
 115480499.824 7  89985010.62645  21975198.344                    21975204.309
 115550625.013 8  90039519.43245  21988553.250                    21988561.422
 11  8 26  2 15  0.0000000  0  8G15G12G26G05G25G29G02G30
 124368556.237 7  96910747.380 6  23666570.969                    23666579.184
 116070898.002 7  90444953.295 7  22087564.258                    22087572.691
 119784533.722 7  93338612.27544  22794211.508                    22794220.492
 108931101.150 8  84881519.847 7  20728867.813                    20728874.453
 114228505.218 8  89009281.672 7  21736960.734                    21736971.324
 115325241.771 8  89863904.827 7  21945668.828                    21945676.656
 115521238.235 8  90016754.84645  21982951.008                    21982956.488
 115582840.810 7  90064622.64745  21994683.719                    21994692.219
 11  8 26  2 15 30.0000000  0  9G15G21G12G26G05G25G29G02G30
 124272267.400 7  96835717.221 6  23648247.445                    23648255.844
 132393489.32816                  25193646.430
 116149200.766 8  90505968.435 7  22102465.133                    22102473.313
 119697869.985 7  93271082.13444  22777719.906                    22777728.645
 108980326.099 8  84919876.969 7  20738235.102                    20738241.930
 114254471.404 8  89029515.074 7  21741902.172                    21741912.320
 115248396.675 8  89804025.569 7  21931045.836                    21931053.336
 115562058.956 7  90048563.21445  21990718.930                    21990724.820
 115615571.313 8  90090126.93645  22000911.648                    22000920.355
 11  8 26  2 16  0.0000000  0  9G15G21G12G26G05G25G29G02G30
 124175986.318 7  96760693.105 6  23629925.844                    23629934.297
 132338023.247 6 103120588.09753  25183091.453                    25183101.676
 116227803.863 7  90567217.605 7  22117422.383                    22117431.160
 119611450.078 7  93203742.00544  22761274.578                    22761283.770
 109029967.011 8  84958558.220 7  20747681.727                    20747688.391
 114280961.116 8  89050156.409 7  21746942.734                    21746952.813
 115171718.538 8  89744276.396 7  21916454.211                    21916462.219
 115602962.233 7  90080435.89345  21998502.336                    21998508.223
 115648814.563 7  90116030.75745  22007237.859                    22007246.504
 11  8 26  2 16 30.0000000  0  9G15G21G12G26G05G25G29G02G30
 124079716.232 7  96685677.569 6  23611605.828                    23611614.773
 132282560.175 6 103077370.26743  25172536.883                    25172547.375
 116306704.048 8  90628698.273 7  22132436.805                    22132444.871
 119525277.631 7  93136594.69644  22744876.695                    22744885.766
 109080022.015 8  84997562.127 7  20757206.586                    20757213.410
 114307973.002 8  89071204.631 7  21752083.156                    21752093.465
 115095209.840 8  89684659.272 7  21901895.148                    21901903.137
 115643948.269 7  90112373.07245  22006301.945                    22006307.574
 115682568.850 8  90142332.78845  22013661.094                    22013670.121
 11  8 26  2 17  0.0000000  0  9G15G21G12G26G05G25G29G02G30
 123983459.922 6  96610672.735 6  23593288.641                    23593297.813
 132227099.134 6 103034153.99443  25161983.477                    25161993.238
 116385898.988 7  90690408.617 7  22147507.023                    22147515.105
 119439356.728 7  93069643.38544  22728526.414                    22728535.035
 109130488.350 8  85036886.564 7  20766810.047                    20766817.297
 114335505.187 8  89092658.281 7  21757322.297                    21757332.613
 115018872.672 8  89625175.810 7  21887369.148                    21887376.691
 115685017.182 7  90144374.83245  22014117.055                    22014122.773
 115716831.850 8  90169031.22845  22020181.328                    22020189.902
 11  8 26  2 17 30.0000000  0  9G15G21G12G26G05G25G29G02G30
 123887220.533 7  96535681.103 6  23574974.945                    23574983.988
 132171639.734 6 102990939.00943  25151430.211                    25151439.262
 116465385.109 7  90752345.851 7  22162632.977                    22162640.695
 119353690.657 7  93002890.65344  22712225.188                    22712233.199
 109181364.064 8  85076529.993 7  20776491.281                    20776498.844
 114363556.285 8  89114516.284 7  21762659.898                    21762670.488
 114942709.506 8  89565827.930 7  21872875.305                    21872883.438
 115726169.434 8  90176441.53645  22021948.008                    22021953.633
 115751601.706 8  90196124.61345  22026797.813                    22026806.348
 11  8 26  2 18  0.0000000  0  9G15G21G12G26G05G25G29G02G30
 123791001.090 6  96460705.002 6  23556664.539                    23556673.734
 132116181.401 6 102947724.86943  25140875.828                    25140885.621
 116545159.574 8  90814507.768 7  22177813.328                    22177821.086
 119268283.281 7  92936339.49745  22695972.539                    22695980.684
 109232646.874 8  85116490.636 7  20786249.727                    20786257.137
 114392124.553 8  89136777.266 7  21768096.609                    21768107.215
 114866722.714 8  89506617.501 7  21858415.281                    21858423.508
 115767404.910 8  90208573.10045  22029795.117                    22029800.352
 115786876.302 8  90223611.30845  22033510.023                    22033518.875
 11  8 26  2 18 30.0000000  0  9G15G21G12G26G05G25G29G02G30
 123694804.810 7  96385746.982 6  23538359.273                    23538368.563
 132060723.890 6 102904511.31343  25130322.938                    25130332.559
 116625220.130 7  90876892.628 7  22193048.273                    22193056.484
 119183138.362 7  92869992.86945  22679769.523                    22679778.254
 109284334.782 8  85156766.941 7  20796085.844                    20796092.785
 114421208.615 8  89159440.173 7  21773630.891                    21773641.750
 114790914.451 7  89447546.173 7  21843989.617                    21843997.797
 115808724.424 7  90240770.14445  22037657.469                    22037663.246
 115822653.826 8  90251489.90245  22040318.516                    22040326.859
 11  8 26  2 19  0.0000000  0  9G15G21G12G26G05G25G29G02G30
 123598633.436 6  96310808.335 6  23520058.672                    23520067.191
 132005265.691 6 102861297.25343  25119770.000                    25119778.996
 116705562.558 7  90939497.116 7  22208336.805                    22208344.852
 119098259.233 7  92803853.34045  22663617.523                    22663626.648
 109336424.015 8  85197355.968 7  20805998.578                    20806005.496
 114450805.711 8  89182502.852 7  21779263.141                    21779273.973
 114715286.206 8  89388615.116 7  21829598.156                    21829606.164
 115850127.325 7  90273032.17145  22045536.875                    22045542.367
 115858930.985 7  90279757.81245  22047221.742                    22047230.656
 11  8 26  2 19 30.0000000  0  9G15G21G12G26G05G25G29G02G30
 123502490.876 7  96235892.152 6  23501763.391                    23501771.895
 131949807.208 6 102818082.94543  25109215.336                    25109225.223
 116786184.834 7  91002319.678 7  22223679.023                    22223686.906
 119013649.965 7  92737924.09845  22647516.648                    22647525.461
 109388913.786 8  85238257.110 7  20815986.719                    20815993.797
 114480915.020 8  89205964.651 7  21784992.555                    21785003.293
 114639841.071 8  89329826.748 7  21815241.336                    21815249.453
 115891614.674 8  90305359.99445  22053431.250                    22053436.832
 115895706.603 8  90308414.15045  22054219.750                    22054228.313
 11  8 26  2 20  0.0000000  0  9G15G21G12G26G05G25G29G02G30
 123406380.273 7  96161000.858 6  23483473.609                    23483482.574
 131894347.650 6 102774867.85243  25098662.617                    25098671.852
 116867084.098 7  91065358.064 7  22239073.828                    22239081.863
 118929314.440 7  92672208.16145  22631468.383                    22631477.023
 109441802.066 8  85279468.763 8  20826050.461                    20826058.121
 114511534.842 8  89229824.250 7  21790819.117                    21790830.070
 114564581.626 8  89271183.064 7  21800919.813                    21800927.516
 115933186.741 8  90337753.84445  22061342.352                    22061348.070
 115932978.627 7  90337457.28145  22061312.578                    22061321.039
 11  8 26  2 20 30.0000000  0  9G15G21G12G26G05G25G29G02G30
 123310304.152 7  96086136.471 6  23465190.570                    23465199.699
 131838886.333 6 102731651.41143  25088108.391                    25088117.180
 116948256.703 7  91128609.461 7  22254520.211                    22254528.188
 118845255.964 7  92606708.10444  22615472.430                    22615481.094
 109495085.864 8  85320988.601 7  20836190.328                    20836197.582
 114542662.953 8  89254079.929 7  21796743.086                    21796753.586
 114489509.657 8  89212685.462 7  21786633.898                    21786641.816
 115974843.378 7  90370213.57845  22069269.172                    22069274.488
 115970744.246 8  90366885.03845  22068499.430                    22068507.598
 11  8 26  2 21  0.0000000  0  9G15G21G12G26G05G25G29G02G30
 123214266.010 7  96011301.644 6  23446914.992                    23446924.082
 131783422.686 6 102688433.13243  25077553.773                    25077563.477
 117029700.178 7  91192071.901 7  22270018.547                    22270026.609
 118761478.569 7  92541427.07145  22599530.078                    22599538.625
 109548763.087 8  85362815.023 7  20846405.070                    20846412.105
 114574297.813 8  89278730.475 7  21802762.789                    21802773.352
 114414627.861 8  89154336.047 7  21772384.828                    21772392.559
 116016584.848 8  90402739.41945  22077211.984                    22077217.840
 116009001.597 7  90396695.96045  22075779.320                    22075787.852
 11  8 26  2 21 30.0000000  0  9G15G21G12G26G05G25G29G02G30
 123118268.367 7  95936498.395 6  23428647.594                    23428656.266
 131727955.859 6 102645212.36342  25066998.648                    25067008.109
 117111411.166 7  91255742.790 7  22285567.320                    22285575.965
 118677985.726 7  92476367.77645  22583642.070                    22583650.973
 109602830.927 8  85404945.815 7  20856693.414                    20856700.441
 114606437.493 8  89303774.373 7  21808878.609                    21808889.426
 114339938.162 8  89096136.326 7  21758171.445                    21758179.336
 116058411.500 7  90435331.62145  22085171.453                    22085177.059
 116047748.326 7  90426888.22045  22083152.367                    22083161.473
 11  8 26  2 22  0.0000000  0  9G15G21G12G26G05G25G29G02G30
 123022313.943 7  95861728.801 6  23410388.156                    23410396.703
 131672485.481 6 102601988.80642  25056442.578                    25056451.984
 117193386.717 7  91319619.842 7  22301166.945                    22301174.828
 118594780.828 7  92411532.82645  22567808.547                    22567817.199
 109657286.796 8  85447378.978 7  20867055.977                    20867063.605
 114639079.702 8  89329209.877 7  21815090.625                    21815101.102
 114265442.583 8  89038087.858 7  21743995.445                    21744003.168
 116100323.210 7  90467990.10145  22093146.898                    22093152.684
 116086981.800 7  90457459.75145  22090618.227                    22090626.613
 11  8 26  2 22 30.0000000  0  9G15G21G12G26G05G25G29G02G30
 122926406.220 7  95786995.597 6  23392136.828                    23392146.387
 131617010.874 6 102558762.00942  25045886.367                    25045895.422
 117275624.172 7  91383700.975 7  22316815.883                    22316824.320
 118511867.671 7  92346925.24444  22552030.688                    22552039.352
 109712128.918 8  85490113.091 8  20877492.117                    20877499.637
 114672223.121 8  89355035.926 7  21821397.242                    21821407.730
 114191143.872 8  88980192.796 7  21729857.000                    21729864.906
 116142320.695 7  90500715.42245  22101138.328                    22101144.184
 116126700.074 8  90488409.05645  22098176.352                    22098184.875
 11  8 26  2 23  0.0000000  0  9G15G21G12G26G05G25G29G02G30
 122830547.517 7  95712300.594 6  23373895.258                    23373905.074
 131561531.267 6 102515531.29542  25035328.680                    25035337.715
 117358119.442 7  91447983.000 7  22332514.141                    22332522.574
 118429249.716 7  92282547.66445  22536308.961                    22536317.496
 109767354.308 8  85533145.864 7  20888001.492                    20888008.551
 114705865.253 8  89381250.577 7  21827799.586                    21827810.086
 114117043.849 8  88922452.538 7  21715756.313                    21715763.758
 116184403.647 7  90533507.33345  22109146.938                    22109152.645
 116166900.421 7  90519733.99245  22105826.422                    22105834.676
 11  8 26  2 23 30.0000000  0  9G15G21G12G26G05G25G29G02G30
 122734741.645 7  95637646.748 6  23355664.523                    23355673.367
 131506046.490 6 102472296.55042  25024769.734                    25024779.227
 117440870.609 7  91512464.429 7  22348261.188                    22348269.363
 118346931.186 7  92218403.41144  22520644.320                    22520652.328
 109822961.383 8  85576476.061 7  20898583.133                    20898590.566
 114740004.646 8  89407852.717 7  21834296.023                    21834306.516
 114043145.356 8  88864869.336 7  21701693.391                    21701701.457
 116226573.056 7  90566366.62045  22117171.727                    22117177.211
 116207580.965 7  90551433.11845  22113567.422                    22113576.250
 11  8 26  2 24  0.0000000  0  9G15G21G12G26G05G25G29G02G30
 122638991.257 7  95563036.135 6  23337443.672                    23337452.512
 131450555.713 6 102429057.08542  25014211.344                    25014219.492
 117523874.025 7  91577142.399 7  22364056.508                    22364064.441
 118264915.556 7  92154495.18045  22505037.133                    22505046.066
 109878947.439 8  85620101.567 7  20909237.039                    20909243.805
 114774639.151 8  89434840.660 7  21840886.438                    21840897.137
 113969450.375 8  88807444.709 7  21687670.039                    21687677.859
 116268828.699 7  90599293.09045  22125212.461                    22125217.879
 116248739.104 7  90583504.38945  22121399.750                    22121407.719
 11  8 26  2 24 30.0000000  0  9G15G21G12G26G05G25G29G02G30
 122543299.214 7  95488470.976 6  23319234.656                    23319242.434
 131395058.015 6 102385812.32442  25003649.688                    25003658.371
 117607126.622 7  91642014.544 7  22379899.109                    22379906.703
 118183206.429 7  92090825.76845  22489488.563                    22489496.902
 109935310.028 8  85664020.467 7  20919962.125                    20919969.305
 114809766.902 8  89462212.944 7  21847570.953                    21847581.949
 113895961.660 8  88750180.804 7  21673685.289                    21673693.313
 116311171.097 8  90632287.15945  22133270.008                    22133275.316
 116290372.487 7  90615945.99145  22129322.664                    22129330.906
 11  8 26  2 25  0.0000000  0  9G15G21G12G26G05G25G29G02G30
 122447668.705 7  95413953.786 6  23301036.016                    23301044.816
 131339553.288 6 102342561.99942  24993087.523                    24993096.438
 117690625.798 7  91707078.825 7  22395788.156                    22395795.781
 118101807.503 7  92027398.08245  22473998.859                    22474007.371
 109992046.839 8  85708230.985 7  20930758.898                    20930766.004
 114845386.021 8  89489968.112 7  21854349.258                    21854359.859
 113822681.102 8  88693079.103 7  21659740.969                    21659747.957
 116353600.330 7  90665348.89245  22141344.242                    22141349.609
 116332478.937 8  90648756.21645  22137334.789                    22137343.230
 11  8 26  2 25 30.0000000  0  9G15G21G12G26G05G25G29G02G30
 122352102.767 7  95339486.894 6  23282850.539                    23282858.609
 131284040.848 6 102299305.67542  24982523.570                    24982532.859
 117774368.160 7  91772332.611 7  22411724.047                    22411731.824
 118020722.392 7  91964214.92445  22458568.688                    22458577.047
 110049155.452 8  85752731.200 7  20941626.188                    20941633.488
 114881494.311 8  89518104.453 7  21861220.641                    21861230.773
 113749611.025 8  88636141.405 7  21645835.742                    21645843.480
 116396116.862 8  90698478.65045  22149434.609                    22149440.227
 116375055.890 8  90681933.06745  22145437.086                    22145445.754
 11  8 26  2 26  0.0000000  0  9G15G21G12G26G05G25G29G02G30
 122256604.198 7  95265072.508 6  23264677.391                    23264686.246
 131228520.185 6 102256043.02343  24971958.820                    24971967.156
 117858350.869 7  91837773.671 7  22427705.469                    22427713.348
 117939954.847 7  91901279.21245  22443198.961                    22443207.934
 110106633.579 8  85797519.355 7  20952563.938                    20952571.309
 114918089.785 8  89546620.425 7  21868184.453                    21868195.090
 113676753.853 8  88579369.624 7  21631972.047                    21631978.914
 116438720.827 8  90731676.53445  22157541.977                    22157547.281
 116418100.909 7  90715474.66645  22153628.531                    22153637.039
 11  8 26  2 26 30.0000000  0  9G15G21G12G26G05G25G29G02G30
 122161175.938 7  95190712.883 6  23246517.961                    23246526.246
 131172990.451 6 102212773.19942  24961391.422                    24961400.203
 117942570.574 8  91903399.408 7  22443732.008                    22443739.703
 117859508.168 7  91838593.54145  22427890.484                    22427898.871
 110164478.350 8  85842593.208 7  20963571.430                    20963578.602
 114955170.224 8  89575514.297 7  21875240.484                    21875250.969
 113604112.025 8  88522765.647 7  21618148.266                    21618155.781
 116481412.532 7  90764942.79645  22165665.766                    22165671.301
 116461611.324 7  90749378.89145  22161907.961                    22161916.613
 11  8 26  2 27  0.0000000  0  9G15G21G12G26G05G25G29G02G30
 122065821.340 7  95116410.671 6  23228372.852                    23228381.457
 131117451.385 6 102169496.14243  24950822.766                    24950831.387
 118027024.812 8  91969207.898 7  22459803.141                    22459811.422
 117779386.337 7  91776160.98845  22412643.789                    22412651.965
 110222688.068 8  85887951.433 7  20974648.688                    20974655.500
 114992733.783 8  89604784.618 7  21882388.641                    21882398.809
 113531687.907 8  88466331.308 7  21604366.328                    21604374.227
 116524192.466 7  90798277.80745  22173806.680                    22173812.113
 116505584.963 7  90783644.06745  22170275.641                    22170284.297
 11  8 26  2 27 30.0000000  0  9G15G21G12G26G05G25G29G02G30
 121970543.350 7  95042168.156 6  23210241.703                    23210250.246
 131061902.110 6 102126211.10643  24940251.539                    24940260.328
 118111709.666 7  92035196.091 7  22475918.281                    22475925.750
 117699592.737 7  91713984.20345  22397459.695                    22397467.684
 110281259.821 8  85933591.773 7  20985794.375                    20985801.484
 115030778.185 8  89634429.622 7  21889627.977                    21889638.512
 113459483.526 8  88410068.196 7  21590626.398                    21590633.879
 116567060.754 7  90831681.66245  22181963.945                    22181969.914
 116550019.165 7  90818268.13345  22178731.266                    22178739.871
 11  8 26  2 28  0.0000000  0  9G15G21G12G26G05G25G29G02G30
 121875344.996 7  94967987.701 6  23192126.430                    23192134.754
 131006342.265 6 102082917.83443  24929678.344                    24929687.590
 118196622.766 7  92101362.134 7  22492076.086                    22492085.129
 117620131.258 7  91652066.21145  22382338.648                    22382346.727
 110340191.428 8  85979512.516 7  20997008.555                    20997015.582
 115069301.511 8  89664447.804 7  21896958.609                    21896969.527
 113387501.475 8  88353978.332 7  21576928.430                    21576936.129
 116610017.756 8  90865154.64745  22190138.703                    22190144.840
 116594911.681 7  90853249.33945  22187274.461                    22187283.098
 11  8 26  2 28 30.0000000  0  9G15G21G12G26G05G25G29G02G30
 121780229.471 7  94893871.793 6  23174026.016                    23174034.980
 130950771.396 6 102039615.97843  24919104.523                    24919112.668
 118281761.016 7  92167703.612 7  22508277.469                    22508286.000
 117541005.541 7  91590409.86745  22367281.570                    22367289.551
 110399480.561 8  86025711.842 7  21008291.102                    21008298.676
 115108301.687 8  89694837.573 7  21904380.320                    21904390.910
 113315744.175 8  88298063.587 7  21563273.078                    21563280.883
 116653063.768 7  90898696.99645  22198330.086                    22198336.160
 116640259.878 8  90888585.60845  22195903.773                    22195912.375
 11  8 26  2 29  0.0000000  0  9G15G21G12G26G05G25G29G02G30
 121685199.647 7  94819822.641 6  23155942.789                    23155950.883
 130895188.678 6 101996304.89543  24908526.703                    24908535.543
 118367121.266 7  92234218.089 7  22524520.836                    22524529.559
 117462219.046 7  91529017.83745  22352289.039                    22352297.055
 110459124.389 8  86072187.567 7  21019640.867                    21019647.863
 115147776.389 8  89725597.091 7  21911891.938                    21911902.703
 113244213.882 8  88242325.730 7  21549661.711                    21549669.137
 116696198.953 7  90932308.82145  22206538.523                    22206544.371
 116686061.190 7  90924274.96545  22204619.141                    22204628.133
 11  8 26  2 29 30.0000000  0  9G15G21G12G26G05G25G29G02G30
 121590258.459 7  94745842.579 6  23137875.445                    23137884.617
 130839593.487 6 101952984.08043  24897946.992                    24897955.766
 118452700.016 7  92300902.826 7  22540805.844                    22540814.227
 117383775.266 7  91467892.86245  22337361.656                    22337369.859
 110519120.413 8  86118937.723 7  21031057.477                    21031064.402
 115187723.294 8  89756724.560 7  21919493.836                    21919503.918
 113172912.693 8  88186766.400 7  21536093.453                    21536100.906
 116739423.580 7  90965990.35645  22214763.781                    22214769.594
 116732312.766 7  90960315.16745  22213420.727                    22213429.215
 11  8 26  2 30  0.0000000  0  9G15G21G12G26G05G25G29G02G30
 121495408.636 7  94671933.686 7  23119826.305                    23119835.391
 130783985.244 6 101909653.07343  24887365.250                    24887374.270
 118538494.171 7  92367755.385 7  22557132.250                    22557140.383
 117305677.722 7  91407037.66945  22322499.672                    22322508.055
 110579466.321 8  86165960.530 7  21042541.000                    21042548.191
 115228140.164 8  89788218.228 7  21927184.672                    21927195.059
 113101842.942 8  88131387.416 7  21522569.547                    21522577.004
 116782738.227 8  90999742.03045  22223006.234                    22223012.188
 116779012.149 7  90996704.31945  22222307.039                    22222316.168
 11  8 26  2 30 30.0000000  0  9G15G21G12G26G05G25G29G02G30
 121400653.757 7  94598098.793 6  23101794.891                    23101803.629
 130728363.615 6 101866311.63443  24876780.352                    24876789.648
 118624501.242 7  92434773.876 7  22573499.031                    22573506.875
 117227930.485 7  91346455.44745  22307705.211                    22307713.277
 110640160.244 8  86213254.509 7  21054090.906                    21054097.902
 115269025.190 8  89820076.695 7  21934965.008                    21934975.145
 113031007.382 8  88076190.915 7  21509090.125                    21509097.754
 116826143.317 7  91033564.18545  22231265.820                    22231271.781
 116826157.053 7  91033440.62145  22231278.539                    22231287.313
 11  8 26  2 31  0.0000000  0  9G15G21G12G26G05G25G29G02G30
 121305996.574 7  94524340.019 6  23083782.359                    23083791.035
 130672727.835 6 101822959.18543  24866193.883                    24866202.070
 118710717.673 7  92501955.508 7  22589905.531                    22589913.945
 117150536.623 7  91286148.59445  22292977.031                    22292985.742
 110701199.046 8  86260817.222 7  21065705.938                    21065712.984
 115310375.920 8  89852298.036 7  21942833.742                    21942843.988
 112960408.178 8  88021178.596 7  21495654.984                    21495662.629
 116869639.002 8  91067456.92245  22239543.141                    22239548.668
 116873744.662 7  91070521.88945  22240334.133                    22240342.906
 11  8 26  2 31 30.0000000  0  9G15G21G12G26G05G25G29G02G30
 121211440.713 7  94450660.190 6  23065788.734                    23065797.074
 130617077.291 6 101779595.23443  24855603.555                    24855612.160
 118797140.911 7  92569298.277 7  22606351.453                    22606359.551
 117073500.441 7  91226120.43945  22278318.078                    22278326.602
 110762580.706 8  86308647.100 7  21077386.594                    21077393.141
 115352190.442 8  89884880.800 7  21950790.938                    21950801.313
 112890048.104 8  87966352.593 7  21482265.844                    21482273.793
 116913225.797 7  91101420.67845  22247837.000                    22247842.875
 116921772.764 7  91107946.39545  22249473.602                    22249482.563
 11  8 26  2 32  0.0000000  0  9G15G21G12G26G05G25G29G02G30
 121116988.438 7  94377061.087 6  23047815.180                    23047823.684
 130561411.872 6 101736219.67043  24845010.234                    24845019.676
 118883767.618 7  92636799.610 6  22622835.758                    22622843.398
 116996824.838 7  91166373.26745  22263727.055                    22263735.258
 110824302.438 8  86356741.961 7  21089131.516                    21089138.605
 115394466.054 8  89917822.822 7  21958835.539                    21958846.156
 112819928.921 8  87911714.315 7  21468922.664                    21468930.152
 116956903.591 7  91135455.34045  22256148.883                    22256154.570
 116970238.218 7  91145711.69345  22258696.211                    22258704.648
 11  8 26  2 32 30.0000000  0  9G15G21G12G26G05G25G29G02G30
 121022643.092 7  94303545.300 6  23029862.148                    23029869.918
 130505730.444 6 101692831.60543  24834415.172                    24834423.906
 118970594.294 7  92704456.760 7  22639358.383                    22639366.270
 116920513.438 7  91106909.87545  22249205.445                    22249213.848
 110886361.411 8  86405099.616 7  21100941.172                    21100947.871
 115437200.277 8  89951122.225 7  21966967.594                    21966977.953
 112750052.775 8  87857265.408 7  21455625.766                    21455633.566
 117000672.816 8  91169561.23745  22264477.820                    22264483.516
 117019138.166 7  91183815.56945  22268001.734                    22268010.164
 11  8 26  2 33  0.0000000  0  9G15G21G12G26G05G25G29G02G30
 120928408.200 7  94230115.586 6  23011929.219                    23011937.996
 130450032.850 6 101649430.94143  24823815.813                    24823824.957
 119057618.331 7  92772267.705 7  22655918.578                    22655926.711
 116844570.215 8  91047733.38145  22234753.938                    22234762.176
 110948756.215 8  86453718.948 7  21112814.578                    21112821.332
 115480391.493 8  89984777.711 7  21975186.875                    21975197.215
 112680423.052 8  87803008.520 7  21442375.664                    21442383.559
 117044534.312 8  91203739.03945  22272824.078                    22272830.473
 117068470.749 7  91222256.54745  22277389.508                    22277397.926
 11  8 26  2 33 30.0000000  0  9G15G21G12G26G05G25G29G02G30
 120834286.553 7  94156774.110 6  22994018.867                    22994027.344
 130394318.361 6 101606017.14143  24813214.875                    24813222.375
 119144836.795 7  92840230.136 6  22672515.852                    22672523.707
 116768998.777 7  90988846.57745  22220373.234                    22220381.000
 111011483.801 8  86502597.608 7  21124750.859                    21124758.172
 115524037.291 8  90018787.421 7  21983492.063                    21983502.844
 112611041.882 8  87748945.322 7  21429172.453                    21429180.656
 117088488.166 8  91237988.79945  22281188.734                    22281194.328
 117118233.041 7  91261032.37145  22286858.547                    22286867.016
 11  8 26  2 34  0.0000000  0  9G15G21G12G26G05G25G29G02G30
 120740280.740 7  94083522.885 6  22976129.758                    22976138.441
 130338586.238 6 101562589.61143  24802607.859                    24802616.336
 119232245.939 7  92908341.177 7  22689149.313                    22689157.164
 116693801.943 8  90930251.68145  22206063.547                    22206071.387
 111074541.306 8  86551733.333 7  21136750.602                    21136757.383
 115568134.634 8  90053148.999 7  21991883.508                    21991894.211
 112541910.621 8  87695076.857 7  21416017.688                    21416024.895
 117132534.529 7  91272310.65345  22289570.094                    22289576.176
 117168421.662 7  91300140.40245  22296409.281                    22296417.539
 11  8 26  2 34 30.0000000  0  9G15G21G12G26G05G25G29G02G30
 120646394.442 7  94010364.799 6  22958263.766                    22958272.133
 130282836.274 6 101519148.15143  24791999.195                    24792007.789
 119319843.295 7  92976598.846 7  22705818.070                    22705825.859
 116618983.843 7  90871951.89345  22191826.375                    22191834.523
 111137926.836 8  86601124.659 7  21148812.336                    21148819.617
 115612681.732 8  90087861.026 7  22000360.859                    22000370.945
 112473032.427 8  87641405.577 7  21402910.508                    21402917.754
 117176673.942 8  91306705.02545  22297969.695                    22297975.066
 117219034.573 7  91339579.03045  22306040.813                    22306049.387
 11  8 26  2 35  0.0000000  0 10G15G21G12G26G05G25G29G02G30G18
 120552630.818 7  93937302.289 6  22940421.039                    22940429.828
 130227067.953 6 101475692.38943  24781386.969                    24781395.520
 119407625.682 7  93045000.687 6  22722522.875                    22722530.531
 116544548.308 8  90813950.21245  22177661.328                    22177669.570
 111201638.080 8  86650769.800 7  21160936.148                    21160943.301
 115657676.475 8  90122921.858 7  22008922.766                    22008933.145
 112404409.694 8  87587933.361 7  21389852.094                    21389859.680
 117220906.956 7  91341172.31545  22306387.211                    22306392.926
 117270069.194 7  91379346.29245  22315752.070                    22315760.574
 129769929.07615                  24694405.000
 11  8 26  2 35 30.0000000  0 10G15G21G12G26G05G25G29G02G30G18
 120458992.428 7  93864337.340 6  22922602.484                    22922610.277
 130171280.319 6 101432221.60843  24770770.594                    24770779.547
 119495589.313 7  93113543.768 7  22739261.391                    22739269.469
 116470498.088 7  90756248.77145  22163569.758                    22163578.270
 111265671.777 8  86700666.199 7  21173121.531                    21173128.621
 115703115.715 8  90158329.061 7  22017569.531                    22017579.953
 112336044.408 8  87534661.757 7  21376842.336                    21376849.785
 117265233.269 7  91375712.29945  22314822.203                    22314827.523
 117321522.131 7  91419439.50045  22325543.578                    22325551.871
 129680786.903 6 101050040.27152  24677441.711                    24677451.926
 11  8 26  2 36  0.0000000  0 10G15G21G12G26G05G25G29G02G30G18
 120365481.990 7  93791472.136 6  22904807.953                    22904816.156
 130115472.749 6 101388735.26343  24760150.563                    24760159.574
 119583731.170 7  93182225.721 7  22756034.273                    22756042.484
 116396836.368 7  90698850.05945  22149552.992                    22149560.863
 111330025.220 8  86750811.744 7  21185367.555                    21185374.742
 115748996.832 8  90194080.582 7  22026300.367                    22026311.270
 112267938.601 8  87481592.352 7  21363882.203                    21363890.266
 117309653.194 7  91410325.24345  22323274.734                    22323280.551
 117373390.376 7  91459856.31245  22335413.625                    22335421.898
 129591809.869 5 100980707.71043  24660509.219                    24660520.289
 11  8 26  2 36 30.0000000  0 10G15G21G12G26G05G25G29G02G30G18
 120272103.559 7  93718709.780 7  22887039.109                    22887047.578
 130059645.380 6 101345233.49842  24749527.063                    24749535.703
 119672048.978 7  93251044.782 7  22772840.406                    22772848.398
 116323567.729 7  90641757.64245  22135610.484                    22135618.266
 111394697.142 8  86801205.455 7  21197674.195                    21197681.520
 115795318.445 8  90230175.345 7  22035115.102                    22035125.762
 112200095.819 8  87428727.894 7  21350972.477                    21350979.793
 117354167.834 7  91445011.99145  22331746.039                    22331751.496
 117425672.203 7  91500595.40945  22345362.789                    22345370.383
 129503000.437 6 100911505.91143  24643610.422                    24643619.934
 11  8 26  2 37  0.0000000  0 10G15G21G12G26G05G25G29G02G30G18
 120178859.983 7  93646052.502 7  22869294.977                    22869303.305
 130003797.475 6 101301715.75743  24738898.820                    24738907.945
 119760539.295 7  93319998.264 6  22789680.250                    22789688.012
 116250695.576 7  90584974.18345  22121743.313                    22121751.207
 111459684.911 8  86851845.277 7  21210040.930                    21210048.133
 115842077.915 8  90266611.309 7  22044013.219                    22044023.836
 112132517.996 8  87376069.901 7  21338112.242                    21338119.645
 117398777.507 7  91479772.78245  22340234.547                    22340240.637
 117478364.573 7  91541654.40445  22355389.172                    22355397.789
 129414359.447 6 100842435.32943  24626741.039                    24626751.383
 11  8 26  2 37 30.0000000  0 10G15G21G12G26G05G25G29G02G30G18
 120085754.418 7  93573502.776 6  22851578.008                    22851585.758
 129947928.717 6 101258181.74842  24728268.188                    24728275.871
 119849199.419 7  93389084.067 7  22806551.172                    22806559.422
 116178223.513 8  90528502.48245  22107951.945                    22107960.066
 111524986.107 8  86902729.340 7  21222467.570                    21222474.223
 115889272.823 8  90303386.563 7  22052994.016                    22053004.121
 112065207.549 8  87323620.246 7  21325303.773                    21325311.031
 117443482.693 7  91514608.00145  22348741.797                    22348747.785
 117531464.765 7  91583031.18245  22365494.180                    22365502.242
 129325888.229 6 100773497.01843  24609905.922                    24609916.313
 11  8 26  2 38  0.0000000  0 10G15G21G12G26G05G25G29G02G30G18
 119992789.959 7  93501062.985 7  22833886.555                    22833895.719
 129892038.143 6 101214630.73743  24717632.055                    24717640.035
 119938026.204 7  93458299.724 7  22823454.281                    22823463.145
 116106154.656 7  90472344.95545  22094238.047                    22094245.809
 111590597.732 8  86953855.297 7  21234953.250                    21234960.340
 115936900.543 8  90340499.080 7  22062057.484                    22062067.766
 111998166.882 8  87271380.807 7  21312546.281                    21312553.359
 117488283.598 7  91549517.80345  22357267.203                    22357272.906
 117584969.866 7  91624723.48045  22375676.086                    22375684.469
 129237587.984 6 100704691.82943  24593102.781                    24593112.293
 11  8 26  2 38 30.0000000  0 10G15G21G12G26G05G25G29G02G30G18
 119899969.634 7  93428735.499 7  22816223.516                    22816231.832
 129836125.323 6 101171062.39442  24706992.250                    24707000.949
 120027016.430 7  93527642.761 7  22840388.633                    22840397.215
 116034492.675 7  90416504.48545  22080600.891                    22080608.945
 111656517.376 8  87005221.256 7  21247496.773                    21247504.320
 115984958.610 8  90377946.923 7  22071202.383                    22071212.836
 111931398.293 8  87219353.384 7  21299840.336                    21299848.172
 117533180.579 7  91584502.48345  22365810.602                    22365816.648
 117638877.015 7  91666729.04245  22385934.078                    22385942.594
 129149460.086 6 100636020.98843  24576331.953                    24576342.797
 11  8 26  2 39  0.0000000  0 10G15G21G12G26G05G25G29G02G30G18
 119807296.380 7  93356522.648 7  22798588.539                    22798596.574
 129780189.823 6 101127476.34143  24696348.289                    24696356.258
 120116166.637 7  93597110.446 7  22857353.602                    22857361.270
 115963240.827 8  90360983.61345  22067042.313                    22067049.988
 111722742.496 8  87056825.252 7  21260099.000                    21260106.242
 116033444.495 8  90415728.136 7  22080429.063                    22080439.324
 111864904.103 8  87167539.776 7  21287186.875                    21287194.750
 117578174.202 7  91619562.44945  22374372.547                    22374378.418
 117693183.349 7  91709045.66845  22396267.750                    22396276.355
 129061505.342 6 100567484.98943  24559594.938                    24559604.621
 11  8 26  2 39 30.0000000  0 10G15G21G12G26G05G25G29G02G30G18
 119714773.760 7  93284427.160 6  22780981.852                    22780989.734
 129724231.232 6 101083872.33043  24685699.727                    24685707.871
 120205474.149 7  93666700.692 7  22874348.086                    22874356.727
 115892402.853 8  90305785.23345  22053562.227                    22053570.176
 111789271.052 8  87108665.688 7  21272759.438                    21272766.246
 116082355.793 8  90453840.855 7  22089736.758                    22089746.922
 111798686.901 8  87115941.979 7  21274586.344                    21274593.910
 117623264.600 7  91654697.83545  22382953.211                    22382959.258
 117747886.216 7  91751671.28345  22406677.867                    22406686.383
 128973725.689 6 100499085.52943  24542890.828                    24542900.957
 11  8 26  2 40  0.0000000  0 10G15G21G12G26G05G25G29G02G30G18
 119622404.610 7  93212451.251 6  22763404.891                    22763412.871
 129668249.051 6 101040249.92043  24675046.844                    24675054.371
 120294936.073 7  93736411.272 6  22891372.516                    22891379.906
 115821982.388 8  90250912.18245  22040161.438                    22040169.707
 111856100.498 8  87160740.600 7  21285476.336                    21285483.680
 116131690.153 8  90492283.217 7  22099124.789                    22099134.805
 111732749.414 8  87064562.171 7  21262038.836                    21262046.156
 117668452.588 7  91689909.26345  22391551.906                    22391557.793
 117802982.883 7  91794603.75045  22417161.961                    22417170.953
 128886122.182 6 100430823.28043  24526220.055                    24526229.824
 11  8 26  2 40 30.0000000  0 10G15G21G12G26G05G25G29G02G30G18
 119530191.931 7  93140597.276 6  22745857.438                    22745865.277
 129612242.610 6 100996608.63943  24664387.828                    24664396.629
 120384549.497 7  93806239.931 6  22908425.008                    22908432.965
 115751982.400 7  90196366.79445  22026840.672                    22026848.895
 111923228.167 8  87213047.882 7  21298249.992                    21298257.355
 116181444.807 8  90531053.097 7  22108592.797                    22108602.555
 111667093.475 8  87013401.730 7  21249544.938                    21249552.645
 117713738.126 7  91725196.71345  22400169.469                    22400175.113
 117858470.243 7  91837840.65945  22427720.758                    22427729.477
 128798696.146 6 100362699.33843  24509583.148                    24509593.168
 11  8 26  2 41  0.0000000  0 10G15G21G12G26G05G25G29G02G30G18
 119438139.099 7  93068867.849 6  22728340.039                    22728348.371
 129556211.595 6 100952948.17043  24653725.977                    24653734.449
 120474310.575 7  93876183.604 7  22925505.859                    22925514.516
 115682406.736 7  90142152.03745  22013600.906                    22013609.297
 111990651.697 8  87265585.698 7  21311080.242                    21311087.719
 116231617.373 8  90570148.615 7  22118140.117                    22118150.113
 111601721.800 8  86962462.788 7  21237104.883                    21237112.555
 117759121.993 7  91760560.77645  22408805.719                    22408811.332
 117914345.642 7  91881379.92845  22438353.750                    22438362.313
 128711448.415 6 100294714.28443  24492980.047                    24492990.117
 11  8 26  2 41 30.0000000  0 10G15G21G12G26G05G25G29G02G30G18
 119346248.888 7  92997265.121 6  22710854.125                    22710862.133
 129500155.415 7 100909268.12143  24643059.117                    24643067.668
 120564216.364 7  93946240.040 7  22942614.703                    22942623.004
 115613258.498 7  90088270.33545  22000442.078                    22000450.672
 112058368.867 8  87318352.331 7  21323966.695                    21323974.012
 116282205.129 8  90609567.663 7  22127766.594                    22127776.723
 111536636.484 8  86911746.984 7  21224719.961                    21224727.535
 117804604.306 7  91796001.55445  22417460.477                    22417466.102
 117970606.002 7  91925219.16745  22449060.211                    22449068.254
 128624380.533 6 100226869.32243  24476412.156                    24476421.625
 11  8 26  2 42  0.0000000  0 10G15G21G12G26G05G25G29G02G30G18
 119254525.010 7  92925792.026 6  22693399.516                    22693407.418
 129444073.913 7 100865568.30343  24632387.164                    24632395.582
 120654264.268 7  94016407.223 6  22959750.672                    22959757.551
 115544541.488 7  90034724.66045  21987366.094                    21987373.949
 112126376.917 8  87371345.617 7  21336908.422                    21336915.527
 116333205.802 8  90649308.459 7  22137471.773                    22137482.148
 111471840.836 8  86861256.904 7  21212389.430                    21212397.125
 117850185.688 7  91831519.52845  22426134.242                    22426139.758
 118027248.828 7  91969356.42745  22459838.781                    22459847.531
 128537493.880 6 100159165.50642  24459877.734                    24459887.363
 11  8 26  2 42 30.0000000  0 10G15G21G12G26G05G25G29G02G30G18
 119162969.916 7  92854450.442 6  22675977.125                    22675984.898
 129387966.047 7 100821847.96843  24621710.352                    24621718.859
 120744450.883 7  94086682.486 6  22976912.258                    22976920.465
 115476258.578 7  89981517.24145  21974372.430                    21974380.008
 112194672.926 8  87424563.293 7  21349904.609                    21349911.590
 116384616.286 8  90689368.598 7  22147255.078                    22147265.129
 111407335.729 7  86810993.208 7  21200114.859                    21200122.117
 117895866.298 7  91867114.82045  22434827.281                    22434832.750
 118084270.554 7  92013788.95245  22470689.359                    22470697.766
 128450788.989 6 100091603.51942  24443377.672                    24443388.098
 11  8 26  2 43  0.0000000  0 10G15G21G12G26G05G25G29G02G30G18
 119071587.038 7  92783243.052 7  22658587.367                    22658595.813
 129331831.432 7 100778106.81743  24611028.367                    24611036.328
 120834773.371 7  94157063.624 6  22994099.875                    22994108.270
 115408413.549 7  89928651.02145  21961461.805                    21961469.629
 112263254.890 8  87478003.798 7  21362955.297                    21362962.359
 116436434.394 8  90729746.357 7  22157115.234                    22157125.672
 111343124.330 8  86760958.380 7  21187895.500                    21187903.121
 117941646.796 7  91902787.96445  22443539.008                    22443544.434
 118141668.769 7  92058514.84445  22481611.758                    22481620.586
 128364267.719 6 100024184.58243  24426913.188                    24426922.707
 11  8 26  2 43 30.0000000  0 10G15G21G12G26G05G25G29G02G30G18
 118980379.125 7  92712172.001 6  22641231.016                    22641239.031
 129275669.315 6 100734344.22143  24600340.891                    24600349.480
 120925228.102 7  94227547.829 6  23011312.758                    23011321.703
 115341009.182 7  89876128.19345  21948634.930                    21948642.816
 112332119.896 8  87531664.843 7  21376059.664                    21376066.563
 116488656.896 8  90770439.237 7  22167053.000                    22167063.477
 111279208.735 8  86711154.053 7  21175732.633                    21175740.449
 117987527.519 7  91938539.19845  22452269.969                    22452275.266
 118199439.983 7  92103531.37345  22492605.523                    22492614.598
 128277930.718 6  99956909.21643  24410484.039                    24410493.188
 11  8 26  2 44  0.0000000  0 10G15G21G12G26G05G25G29G02G30G18
 118889349.652 7  92641239.996 6  22623908.844                    22623916.582
 129219479.610 6 100690560.10543  24589647.992                    24589656.609
 121015812.514 7  94298133.091 6  23028550.508                    23028558.777
 115274049.427 8  89823951.79545  21935893.172                    21935900.996
 112401266.096 8  87585545.001 7  21389217.930                    21389224.988
 116541281.766 8  90811445.636 7  22177067.109                    22177077.281
 111215591.814 8  86661582.458 7  21163626.906                    21163634.352
 118033509.067 7  91974368.99145  22461020.016                    22461025.480
 118257581.909 7  92148836.78545  22503669.414                    22503678.445
 128191779.600 6  99889778.60242  24394089.555                    24394099.094
 11  8 26  2 44 30.0000000  0 10G15G21G12G26G05G25G29G02G30G18
 118798501.655 7  92570449.405 6  22606620.852                    22606628.484
 129163262.032 6 100646754.29843  24578949.242                    24578958.305
 121106523.630 7  94368817.045 6  23045812.969                    23045820.660
 115207537.651 7  89772124.47345  21923236.242                    21923244.188
 112470690.660 8  87639642.055 7  21402429.023                    21402436.188
 116594306.319 8  90852763.491 7  22187157.563                    22187167.520
 111152275.906 7  86612245.424 7  21151578.195                    21151585.680
 118079591.789 8  92010277.62645  22469789.063                    22469794.781
 118316091.441 7  92194428.63645  22514803.367                    22514811.934
 128105815.222 6  99822793.53742  24377730.984                    24377740.965
 11  8 26  2 45  0.0000000  0 10G15G21G12G26G05G25G29G02G30G18
 118707838.696 7  92499802.996 7  22589368.242                    22589376.344
 129107016.130 6 100602926.41643  24568246.398                    24568255.027
 121197358.417 7  94439597.377 6  23063097.602                    23063106.352
 115141477.395 7  89720648.99045  21910665.430                    21910673.043
 112540391.708 8  87693954.565 7  21415692.844                    21415699.969
 116647728.098 8  90894390.866 7  22197323.242                    22197333.840
 111089263.558 7  86563144.918 7  21139587.563                    21139594.742
 118125776.175 8  92046265.48245  22478577.859                    22478583.324
 118374965.857 7  92240304.81445  22526007.258                    22526015.707
 128020039.393 6  99755955.46143  24361408.406                    24361417.242
 11  8 26  2 45 30.0000000  0 10G15G21G12G26G05G25G29G02G30G18
 118617363.605 7  92429302.977 7  22572151.313                    22572159.691
 129050741.293 6 100559076.00443  24557537.586                    24557546.055
 121288313.440 7  94510471.426 6  23080405.195                    23080413.012
 115075871.724 7  89669527.72045  21898181.008                    21898189.047
 112610366.335 8  87748480.247 7  21429008.477                    21429015.070
 116701544.174 8  90936325.488 7  22207563.977                    22207574.563
 111026557.081 7  86514282.761 7  21127654.758                    21127661.723
 118172062.620 7  92082332.86545  22487385.703                    22487391.543
 118434202.025 7  92286462.87745  22537279.438                    22537287.668
 127934452.889 6  99689264.85143  24345121.742                    24345131.113
 11  8 26  2 46  0.0000000  0 10G15G21G12G26G05G25G29G02G30G18
 118527079.193 7  92358951.536 7  22554971.273                    22554978.867
 128994436.770 6 100515202.45443  24546823.094                    24546831.477
 121379385.652 7  94581436.741 6  23097736.844                    23097744.133
 115010723.556 7  89618762.94845  21885783.844                    21885791.797
 112680611.612 8  87803216.829 7  21442375.445                    21442382.738
 116755751.452 8  90978564.928 7  22217879.492                    22217889.762
 110964158.419 7  86465660.463 7  21115780.484                    21115787.480
 118218451.237 7  92118479.86245  22496212.602                    22496219.078
 118493796.402 7  92332900.07445  22548620.102                    22548628.641
 127849056.545 6  99622722.43743  24328871.672                    24328881.113
 11  8 26  2 46 30.0000000  0 10G15G21G12G26G05G25G29G02G30G18
 118436988.911 7  92288751.363 7  22537827.297                    22537834.977
 128938102.204 6 100471305.49943  24536103.281                    24536111.375
 121470572.382 7  94652491.332 6  23115088.945                    23115097.188
 114946036.446 7  89568357.45945  21873474.070                    21873482.336
 112751125.728 8  87858162.891 7  21455793.656                    21455800.844
 116810347.659 8  91021107.435 7  22228268.875                    22228279.340
 110902070.169 8  86417280.054 7  21103965.328                    21103972.555
 118264942.838 7  92154707.09745  22505060.383                    22505065.965
 118553746.596 7  92379614.52845  22560027.461                    22560036.285
 127763851.811 6  99556329.31743  24312657.203                    24312666.379
 11  8 26  2 47  0.0000000  0 10G15G21G12G26G05G25G29G02G30G18
 118347095.815 7  92218704.841 7  22520720.977                    22520729.543
 128881737.359 6 100427384.91543  24525377.195                    24525385.488
 121561870.337 7  94723632.568 6  23132461.930                    23132469.371
 114881814.025 7  89518314.03345  21861253.250                    21861261.215
 112821906.222 8  87913316.521 7  21469263.195                    21469270.227
 116865330.234 8  91063951.003 7  22238731.367                    22238741.934
 110840294.931 8  86369143.560 7  21092210.313                    21092217.512
 118311537.944 7  92191014.96945  22513926.992                    22513932.766
 118614049.656 7  92426603.93745  22571502.672                    22571511.844
 127678839.829 6  99490086.41943  24296479.828                    24296489.863
 11  8 26  2 47 30.0000000  0 10G15G21G12G26G05G25G29G02G30G18
 118257402.859 7  92148814.281 7  22503652.594                    22503661.145
 128825341.596 6 100383440.29343  24514645.656                    24514653.590
 121653276.744 7  94794858.317 6  23149855.852                    23149864.492
 114818059.327 7  89468635.08645  21849121.148                    21849128.730
 112892950.339 8  87968675.582 7  21482782.227                    21482789.215
 116920696.310 8  91107093.401 7  22249267.523                    22249278.063
 110778835.039 7  86321252.774 7  21080514.484                    21080521.652
 118358236.780 7  92227403.68745  22522813.383                    22522819.145
 118674702.502 7  92473865.90745  22583044.727                    22583053.473
 127594022.067 6  99423994.82443  24280339.250                    24280348.492
 11  8 26  2 48  0.0000000  0 10G15G21G12G26G05G25G29G02G30G18
 118167912.920 7  92079081.908 7  22486623.734                    22486631.738
 128768914.252 6 100339471.01943  24503907.805                    24503915.523
 121744787.761 7  94866165.632 6  23167270.563                    23167278.164
 114754775.292 7  89419322.88645  21837077.891                    21837086.137
 112964255.137 8  88024237.760 7  21496351.266                    21496358.027
 116976442.645 8  91150532.107 7  22259875.398                    22259886.352
 110717692.177 7  86273609.036 7  21068879.508                    21068886.816
 118405039.570 7  92263873.39845  22531719.789                    22531725.398
 118735701.631 7  92521397.69545  22594653.258                    22594661.211
 127509398.816 7  99358054.74343  24264236.047                    24264245.293
 11  8 26  2 48 30.0000000  0 10G15G21G12G26G05G25G29G02G30G18
 118078629.708 7  92009510.616 7  22469633.711                    22469641.723
 128712455.225 6 100295477.08043  24493164.086                    24493171.977
 121836400.827 7  94937552.361 6  23184704.227                    23184711.727
 114691965.627 7  89370380.32745  21825125.813                    21825133.711
 113035818.853 8  88080001.695 7  21509969.023                    21509976.375
 117032567.056 8  91194265.415 7  22270555.672                    22270566.102
 110656869.723 8  86226214.951 7  21057305.133                    21057312.711
 118451947.209 7  92300424.80445  22540646.047                    22540651.785
 118797044.527 7  92569197.37045  22606326.227                    22606334.297
 127424971.820 6  99292267.63043  24248170.516                    24248179.676
 11  8 26  2 49  0.0000000  0 10G15G21G12G26G05G25G29G02G30G18
 117989556.134 7  91940102.684 7  22452683.383                    22452691.156
 128655964.024 6 100251458.07143  24482413.320                    24482421.988
 121928113.455 7  95009016.742 6  23202156.305                    23202164.164
 114629633.508 7  89321809.87445  21813264.688                    21813272.625
 113107639.001 8  88135965.457 7  21523636.188                    21523642.805
 117089066.798 7  91238291.188 7  22281307.328                    22281317.586
 110596369.966 8  86179072.336 7  21045792.625                    21045799.797
 118498960.102 8  92337058.22945  22549592.102                    22549597.941
 118858728.139 7  92617262.53745  22618064.195                    22618072.855
 127340742.083 6  99226634.26643  24232140.977                    24232150.934
 11  8 26  2 49 30.0000000  0 10G15G21G12G26G05G25G29G02G30G18
 117900695.345 7  91870860.563 7  22435773.945                    22435781.324
 128599440.274 6 100207413.68943  24471657.438                    24471665.590
 122019922.130 7  95080555.950 6  23219626.375                    23219634.809
 114567782.280 7  89273614.15545  21801494.617                    21801502.352
 113179713.347 8  88192127.297 7  21537351.469                    21537358.438
 117145939.191 7  91282607.334 7  22292129.844                    22292140.125
 110536195.065 8  86132182.847 7  21034341.539                    21034348.840
 118546078.783 7  92373774.08545  22558558.234                    22558564.148
 118920749.600 7  92665590.97245  22629866.070                    22629874.734
 127256710.618 6  99161155.38943  24216151.070                    24216160.379
 11  8 26  2 50  0.0000000  0 10G15G21G12G26G05G25G29G02G30G18
 117812050.452 7  91801786.669 7  22418905.484                    22418912.672
 128542883.458 6 100163343.52543  24460895.133                    24460903.039
 122111823.556 7  95152167.451 6  23237115.102                    23237123.152
 114506414.745 7  89225795.33445  21789816.680                    21789824.547
 113252038.956 8  88248484.919 7  21551114.148                    21551121.348
 117203181.322 7  91327211.583 7  22303022.875                    22303032.664
 110476347.397 8  86085548.351 7  21022952.922                    21022960.629
 118593303.607 7  92410572.64045  22567545.125                    22567551.258
 118983105.680 7  92714180.13445  22641732.086                    22641740.133
 127172878.643 7  99095831.94643  24200198.242                    24200206.871
 11  8 26  2 50 30.0000000  0 10G15G21G12G26G05G25G29G02G30G18
 117723624.928 7  91732883.709 7  22402078.531                    22402085.691
 128486293.503 6 100119247.57043  24450126.719                    24450133.656
 122203815.354 7  95223849.300 6  23254620.805                    23254628.297
 114445534.860 7  89178356.49245  21778231.086                    21778239.883
 113324613.964 8  88305036.872 7  21564925.328                    21564931.906
 117260790.648 7  91372101.979 7  22313985.289                    22313995.469
 110416829.730 7  86039170.985 7  21011627.008                    21011634.082
 118640634.990 7  92447454.21945  22576552.063                    22576557.551
 119045793.687 7  92763027.92345  22653661.305                    22653669.414
 127089247.497 7  99030664.90643  24184283.805                    24184292.078
 11  8 26  2 51  0.0000000  0 10G15G21G12G26G05G25G29G02G30G18
 117635421.330 7  91664153.679 7  22385293.688                    22385301.379
 128429669.247 6 100075124.87343  24439351.781                    24439359.023
 122295893.835 7  95295598.762 6  23272141.844                    23272151.191
 114385144.739 7  89131299.28645  21766739.469                    21766746.992
 113397434.908 8  88361780.473 7  21578782.414                    21578789.383
 117318763.674 7  91417275.758 7  22325017.172                    22325027.598
 110357643.278 7  85993051.717 7  21000364.148                    21000371.531
 118688073.227 7  92484419.06145  22585579.125                    22585584.930
 119108809.711 7  92812131.32945  22665652.758                    22665661.039
 127005817.416 6  98965654.64943  24168406.648                    24168415.832
 11  8 26  2 51 30.0000000  0 10G15G21G12G26G05G25G29G02G30G18
 117547442.719 7  91595598.969 7  22368551.867                    22368559.781
 128373010.634 7 100030975.39543  24428569.219                    24428576.750
 122388056.184 7  95367413.554 6  23289680.117                    23289687.949
 114325247.704 7  89084626.31945  21755341.523                    21755349.188
 113470499.876 8  88418714.211 7  21592686.086                    21592693.438
 117377097.878 7  91462731.002 7  22336117.305                    22336127.805
 110298791.146 8  85947192.951 7  20989165.117                    20989172.461
 118735619.218 7  92521467.87845  22594627.227                    22594632.379
 119172151.105 7  92861488.26245  22677706.070                    22677715.230
 126922589.690 6  98900802.09743  24152568.648                    24152578.137
 11  8 26  2 52  0.0000000  0 10G15G21G12G26G05G25G29G02G30G18
 117459692.573 7  91527222.278 7  22351853.469                    22351861.672
 128316317.266 6  99986798.85643  24417780.891                    24417788.594
 122480299.438 7  95439291.368 6  23307234.305                    23307242.578
 114265847.547 7  89038340.50645  21744038.180                    21744045.742
 113543806.465 8  88475836.239 7  21606635.859                    21606642.844
 117435790.771 7  91508465.727 7  22347286.648                    22347296.480
 110240275.816 8  85901596.622 7  20978029.859                    20978037.512
 118783273.151 7  92558600.81544  22603695.305                    22603700.875
 119235815.121 7  92911096.58845  22689820.859                    22689829.840
 126839565.988 6  98836108.45643  24136770.164                    24136778.879
 11  8 26  2 52 30.0000000  0 10G15G21G12G26G05G25G29G02G30G18
 117372173.958 7  91459025.987 7  22335199.133                    22335206.926
 128259588.921 6  99942595.01443  24406985.859                    24406992.867
 122572620.803 7  95511230.101 6  23324801.070                    23324809.754
 114206947.265 7  88992444.22245  21732829.367                    21732837.512
 113617352.575 8  88533144.893 7  21620631.563                    21620638.328
 117494839.519 7  91554477.746 7  22358523.070                    22358532.969
 110182099.651 8  85856264.577 7  20966958.930                    20966966.777
 118831035.660 7  92595818.33745  22612783.898                    22612789.332
 119299798.605 7  92960953.84544  22701996.734                    22702005.434
 126756746.855 6  98771574.26743  24121009.742                    24121018.145
 11  8 26  2 53  0.0000000  0 10G15G21G12G26G05G25G29G02G30G18
 117284890.334 7  91391012.814 7  22318589.570                    22318597.996
 128202825.317 7  99898363.70543  24396183.719                    24396191.695
 122665017.516 7  95583227.474 6  23342384.156                    23342393.664
 114148550.163 7  88946940.01845  21721717.219                    21721725.031
 113691135.928 8  88590638.431 7  21634671.750                    21634678.766
 117554241.477 7  91600764.970 7  22369826.805                    22369836.578
 110124265.448 8  85811199.002 7  20955953.789                    20955961.148
 118878907.240 7  92633120.84945  22621893.727                    22621899.363
 119364098.658 7  93011057.77644  22714232.570                    22714241.430
 126674133.777 6  98707200.54042  24105287.961                    24105297.250
 11  8 26  2 53 30.0000000  0 10G15G21G12G26G05G25G29G02G30G18
 117197844.888 7  91323185.234 7  22302025.609                    22302033.574
 128146026.391 6  99854104.91143  24385375.164                    24385383.000
 122757486.670 7  95655281.345 6  23359980.820                    23359987.918
 114090659.254 7  88901830.25645  21710700.867                    21710708.445
 113765154.151 8  88648314.967 7  21648757.094                    21648764.406
 117613993.880 7  91647325.287 7  22381197.398                    22381207.891
 110066775.728 8  85766401.845 7  20945013.852                    20945021.527
 118926888.460 7  92670508.79845  22631023.938                    22631029.910
 119428712.415 7  93061406.16045  22726528.266                    22726536.664
 126591727.969 6  98642988.37243  24089607.320                    24089615.953
 11  8 26  2 54  0.0000000  0 10G15G21G12G26G05G25G29G02G30G18
 117111039.734 7  91255544.904 7  22285507.063                    22285514.848
 128089190.452 6  99809817.23343  24374559.633                    24374567.316
 122850024.087 7  95727388.355 6  23377589.695                    23377598.547
 114033276.774 7  88857116.66545  21699781.555                    21699789.070
 113839403.631 8  88706171.711 7  21662886.125                    21662892.949
 117674092.876 7  91694155.690 7  22392633.883                    22392644.793
 110009631.446 8  85721873.856 7  20934139.773                    20934147.121
 118974979.427 7  92707982.26045  22640175.859                    22640181.574
 119493635.600 7  93111995.64945  22738882.805                    22738891.805
 126509529.553 7  98578937.79943  24073965.953                    24073973.996
 11  8 26  2 54 30.0000000  0 10G15G21G12G26G05G25G29G02G30G18
 117024478.200 7  91188094.395 7  22269034.898                    22269042.551
 128032317.571 6  99765500.77943  24363737.367                    24363744.645
 122942627.000 7  95799546.519 6  23395211.602                    23395219.270
 113976406.052 7  88812801.83745  21688959.266                    21688966.629
 113913882.396 8  88764207.111 7  21677058.969                    21677066.258
 117734535.898 7  91741254.143 7  22404135.852                    22404145.980
 109952835.337 8  85677617.173 7  20923331.906                    20923339.563
 119023180.908 7  92745541.82445  22649348.250                    22649353.793
 119558865.529 7  93162824.14445  22751295.539                    22751304.164
 126427539.539 6  98515049.65043  24058362.883                    24058372.078
 11  8 26  2 55  0.0000000  0 10G15G21G12G26G05G25G29G02G30G18
 116938163.705 7  91120836.396 7  22252609.508                    22252617.445
 127975407.543 6  99721155.35443  24352907.570                    24352914.859
 123035293.085 7  95871753.760 6  23412845.711                    23412854.410
 113920050.423 7  88768888.42245  21678235.109                    21678242.367
 113988588.334 8  88822419.522 7  21691275.078                    21691282.191
 117795320.327 7  91788618.641 7  22415702.539                    22415712.965
 109896390.164 8  85633633.940 7  20912590.227                    20912597.711
 119071493.242 7  92783187.76545  22658541.750                    22658547.449
 119624399.338 7  93213889.45044  22763765.977                    22763774.891
 126345759.281 6  98451324.94643  24042801.266                    24042809.270
 11  8 26  2 55 30.0000000  0 10G15G21G12G26G05G25G29G02G30G18
 116852099.537 7  91053773.460 7  22236232.516                    22236240.094
 127918460.295 6  99676780.95743  24342070.445                    24342078.391
 123128019.359 7  95944008.011 6  23430490.625                    23430498.559
 113864213.129 7  88725378.86645  21667609.633                    21667616.867
 114063519.153 8  88880807.187 7  21705534.219                    21705540.945
 117856443.593 7  91836247.152 7  22427334.188                    22427344.555
 109840298.440 8  85589926.134 7  20901916.180                    20901923.801
 119119916.955 7  92820920.50945  22667756.703                    22667762.273
 119690234.240 7  93265189.38545  22776294.164                    22776302.773
 126264190.194 7  98387764.67643  24027279.656                    24027286.828
 11  8 26  2 56  0.0000000  0 10G15G21G12G26G05G25G29G02G30G18
 116766288.623 7  90986907.857 7  22219902.875                    22219910.656
 127861475.296 6  99632377.14243  24331226.453                    24331234.863
 123220802.516 7  96016306.541 6  23448146.813                    23448155.363
 113808897.016 7  88682275.45045  21657083.086                    21657090.582
 114138672.270 8  88939368.057 7  21719835.242                    21719842.164
 117917902.434 7  91884137.155 7  22439029.398                    22439039.699
 109784562.366 8  85546495.441 7  20891310.398                    20891317.172
 119168452.629 7  92858740.49445  22676992.953                    22676998.379
 119756366.720 7  93316721.18345  22788878.867                    22788887.344
 126182832.771 7  98324369.39743  24011797.500                    24011805.871
 11  8 26  2 56 30.0000000  0 10G15G21G12G26G05G25G29G02G30G18
 116680734.157 7  90920242.081 7  22203622.109                    22203629.660
 127804452.201 6  99587943.66143  24320375.313                    24320382.824
 123313639.915 7  96088647.373 6  23465813.438                    23465821.711
 113754104.870 7  88639580.29245  21646656.781                    21646664.082
 114214045.360 8  88998100.341 7  21734178.188                    21734185.012
 117979693.989 7  91932286.423 7  22450787.641                    22450798.449
 109729184.226 8  85503343.666 7  20880772.297                    20880779.695
 119217100.709 7  92896648.07445  22686250.336                    22686255.508
 119822793.741 7  93368482.49545  22801519.320                    22801527.652
 126101687.912 6  98261139.79643  23996355.508                    23996364.102
 11  8 26  2 57  0.0000000  0 10G15G21G12G26G05G25G29G02G30G18
 116595438.955 7  90853778.340 7  22187390.859                    22187399.008
 127747390.456 6  99543480.04443  24309516.398                    24309524.418
 123406527.987 6  96161027.615 6  23483489.031                    23483497.660
 113699839.596 8  88597295.70245  21636330.180                    21636337.543
 114289635.986 8  89057002.125 7  21748562.523                    21748569.613
 118041815.310 7  91980692.648 7  22462609.195                    22462619.797
 109674166.180 8  85460472.486 7  20870302.570                    20870309.879
 119265861.575 7  92934643.53845  22695529.250                    22695534.824
 119889512.119 7  93420470.84145  22814215.828                    22814223.945
 126020756.707 6  98198076.69743  23980954.195                    23980963.637
 11  8 26  2 57 30.0000000  0 10G15G21G12G26G05G25G29G02G30G18
 116510406.466 7  90787519.308 7  22171209.859                    22171217.363
 127690290.033 6  99498986.30443  24298650.398                    24298658.508
 123499464.142 7  96233445.409 6  23501173.828                    23501182.742
 113646104.554 7  88555424.27345  21626104.969                    21626112.074
 114365441.806 8  89116071.592 7  21762988.148                    21762995.023
 118104263.773 7  92029353.779 7  22474492.797                    22474502.984
 109619510.808 8  85417883.907 7  20859901.664                    20859909.172
 119314735.877 7  92972727.39345  22704829.164                    22704835.121
 119956518.935 7  93472683.92845  22826966.492                    22826975.402
 125940040.349 7  98135180.92643  23965595.195                    23965602.727
 11  8 26  2 58  0.0000000  0 10G15G21G12G26G05G25G29G02G30G18
 116425639.360 7  90721467.067 7  22155079.234                    22155086.957
 127633150.007 6  99454461.68843  24287777.195                    24287785.457
 123592445.345 7  96305898.197 6  23518868.477                    23518877.012
 113592902.278 7  88513967.99345  21615980.531                    21615988.184
 114441460.180 8  89175306.682 7  21777453.898                    21777461.219
 118167036.054 7  92078267.243 7  22486437.648                    22486448.129
 109565220.056 8  85375579.446 7  20849570.586                    20849578.359
 119363723.991 7  93010899.95145  22714151.625                    22714157.012
 120023810.773 7  93525119.13145  22839771.539                    22839779.996
 125859539.498 6  98072453.08843  23950276.008                    23950284.051
 11  8 26  2 58 30.0000000  0 10G15G21G12G26G05G25G29G02G30G18
 116341141.384 7  90655624.540 7  22138999.813                    22139007.867
 127575970.558 6  99409906.40044  24276896.953                    24276904.168
 123685468.971 6  96378384.153 6  23536569.375                    23536578.074
 113540236.029 7  88472929.39145  21605958.656                    21605965.727
 114517689.060 8  89234705.808 7  21791960.172                    21791966.531
 118230129.664 7  92127431.096 7  22498444.070                    22498454.977
 109511296.847 7  85333561.398 7  20839309.422                    20839316.773
 119412826.726 7  93049161.83044  22723495.273                    22723501.277
 120091384.854 7  93577774.26645  22852630.492                    22852639.629
 125779255.230 6  98009894.08543  23934998.070                    23935006.637
 11  8 26  2 59  0.0000000  0 10G15G21G12G26G05G25G29G02G30G18
 116256915.321 7  90589993.889 7  22122972.234                    22122979.898
 127518751.360 6  99365320.09243  24266008.070                    24266015.730
 123778531.701 7  96450900.509 6  23554279.523                    23554287.961
 113488108.475 8  88432310.54845  21596038.594                    21596046.559
 114594125.849 8  89294266.949 7  21806505.117                    21806512.176
 118293541.419 7  92176842.838 7  22510511.063                    22510521.813
 109457743.389 8  85291831.457 7  20829118.266                    20829125.629
 119462044.252 7  93087513.15145  22732861.078                    22732866.703
 120159237.894 7  93630646.74545  22865543.086                    22865551.004
 125699188.657 6  97947504.72043  23919762.289                    23919770.711
 11  8 26  2 59 30.0000000  0 10G15G21G12G26G05G25G29G02G30G18
 116172963.855 7  90524577.218 7  22106996.500                    22107004.457
 127461491.873 6  99320702.45343  24255112.383                    24255119.652
 123871630.619 7  96523445.087 6  23571995.352                    23572003.781
 113436522.414 7  88392113.64845  21586222.609                    21586230.039
 114670768.238 8  89353988.294 7  21821089.539                    21821096.863
 118357268.313 7  92226500.162 7  22522637.609                    22522648.500
 109404561.788 8  85250391.277 7  20818998.281                    20819005.613
 119511377.302 7  93125954.48045  22742249.383                    22742254.520
 120227366.514 7  93683733.98144  22878507.055                    22878514.973
 125619340.364 6  97885285.40943  23904567.313                    23904575.957
 11  8 26  3  0  0.0000000  0 10G15G21G12G26G05G25G29G02G30G18
 116089290.427 7  90459377.194 7  22091073.984                    22091081.613
 127404191.576 6  99276052.97044  24244207.781                    24244215.078
 123964762.791 7  96596015.569 6  23589717.367                    23589726.656
 113385480.918 8  88352341.09245  21576509.234                    21576517.285
 114747613.962 8  89413868.081 7  21835712.977                    21835719.934
 118421307.391 7  92276400.746 7  22534824.055                    22534834.637
 109351754.121 8  85209242.475 7  20808949.242                    20808956.895
 119560826.119 7  93164486.02544  22751659.328                    22751664.652
 120295767.695 7  93737033.59744  22891523.203                    22891531.652
 125539711.267 6  97823236.80943  23889413.531                    23889422.090
 11  8 26  3  0 30.0000000  0 10G15G21G12G26G05G25G29G02G30G18
 116005897.928 7  90394396.071 7  22075205.094                    22075212.402
 127346850.292 6  99231371.56643  24233296.555                    24233303.730
 124057925.397 7  96668609.761 6  23607446.773                    23607454.023
 113334986.564 7  88312994.86445  21566900.805                    21566908.586
 114824660.488 8  89473904.339 7  21850374.742                    21850381.250
 118485655.787 7  92326542.348 7  22547069.078                    22547079.727
 109299322.911 8  85168387.012 7  20798971.930                    20798979.105
 119610391.494 7  93203108.40545  22761090.359                    22761096.574
 120364438.314 7  93790543.16144  22904590.563                    22904599.313
 125460302.484 6  97761360.02643  23874302.914                    23874311.020
 11  8 26  3  1  0.0000000  0 10G15G21G12G26G05G25G29G02G30G18
 115922789.509 7  90329636.311 7  22059390.281                    22059397.645
 127289467.892 6  99186658.12843  24222377.070                    24222384.348
 124151115.596 7  96741225.427 6  23625179.156                    23625188.777
 113285042.373 7  88274077.34345  21557396.555                    21557404.051
 114901905.434 8  89534095.204 7  21865073.742                    21865080.414
 118550310.515 7  92376922.661 7  22559372.664                    22559382.551
 109247270.566 7  85127826.765 7  20789066.922                    20789073.770
 119660073.826 7  93241821.90644  22770545.141                    22770550.145
 120433375.189 7  93844260.20744  22917708.898                    22917717.371
 125381114.702 7  97699655.40143  23859234.313                    23859243.547
 11  8 26  3  1 30.0000000  0 10G15G21G12G26G05G25G29G02G30G18
 115839968.509 7  90265100.505 7  22043629.594                    22043637.301
 127232044.232 6  99141912.52643  24211448.484                    24211456.676
 124244330.376 7  96813860.345 6  23642918.109                    23642925.785
 113235651.272 7  88235590.79645  21547997.898                    21548005.777
 114979346.519 8  89594438.911 7  21879810.453                    21879817.387
 118615268.748 7  92427539.485 7  22571733.875                    22571743.910
 109195599.375 7  85087563.524 7  20779234.063                    20779241.141
 119709873.630 7  93280626.94444  22780021.438                    22780026.516
 120502575.365 7  93898182.42044  22930877.211                    22930885.660
 125302149.021 6  97638123.83243  23844206.859                    23844216.012
 11  8 26  3  2  0.0000000  0 10G15G21G12G26G05G25G29G02G30G18
 115757437.734 7  90200790.854 7  22027924.531                    22027932.184
 127174578.622 6  99097134.26243  24200513.305                    24200520.684
 124337566.797 7  96886512.031 6  23660659.961                    23660669.285
 113186815.816 7  88197537.22345  21538704.867                    21538712.578
 115056981.838 8  89654933.971 7  21894583.328                    21894590.883
 118680527.421 7  92478390.394 7  22584152.352                    22584162.461
 109144311.497 7  85047598.959 7  20769474.398                    20769481.500
 119759791.336 7  93319523.86645  22789520.156                    22789525.973
 120572035.594 7  93952307.27444  22944095.406                    22944104.004
 125223406.060 6  97576765.76843  23829222.547                    23829230.949
 11  8 26  3  2 30.0000000  0 10G15G21G12G26G05G25G29G02G30G18
 115675200.139 7  90136709.662 7  22012275.023                    22012282.574
 127117071.043 7  99052323.28843  24189570.258                    24189577.734
 124430821.640 7  96959178.110 6  23678405.547                    23678413.867
 113138538.460 7  88159918.53745  21529517.742                    21529525.676
 115134808.355 8  89715578.007 7  21909393.352                    21909400.625
 118746083.244 7  92529472.870 7  22596627.133                    22596637.273
 109093409.081 8  85007934.776 7  20759788.016                    20759795.188
 119809827.480 7  93358513.05844  22799041.844                    22799047.289
 120641752.386 7  94006632.02744  22957362.188                    22957369.926
 125144886.739 6  97515581.99443  23814281.359                    23814289.734
 11  8 26  3  3  0.0000000  0 10G15G21G12G26G05G25G29G02G30G18
 115593258.771 7  90072859.280 7  21996682.156                    21996689.438
 127059521.038 7  99007479.24943  24178618.430                    24178625.770
 124524092.195 7  97031856.416 6  23696155.469                    23696163.539
 113090822.202 7  88122737.07445  21520437.930                    21520445.516
 115212823.989 8  89776369.416 7  21924239.234                    21924246.219
 118811933.287 7  92580784.611 7  22609157.750                    22609168.199
 109042894.448 7  84968572.751 7  20750175.297                    20750182.773
 119859982.510 7  93397594.91044  22808586.273                    22808592.027
 120711722.594 7  94061154.26944  22970676.617                    22970684.734
 125066591.909 6  97454573.14443  23799382.359                    23799390.234
 11  8 26  3  3 30.0000000  0 10G15G21G12G26G05G25G29G02G30G18
 115511617.151 7  90009242.467 7  21981146.391                    21981153.742
 127001928.596 7  98962602.13043  24167659.508                    24167666.863
 124617375.993 7  97104545.083 6  23713906.336                    23713914.551
 113043670.143 8  88085995.24745  21511464.852                    21511472.508
 115291026.657 8  89837306.559 7  21939121.117                    21939128.063
 118878075.061 7  92632323.659 7  22621744.234                    22621754.121
 108992770.334 8  84929515.024 7  20740637.094                    20740644.148
 119910257.078 7  93436769.88944  22818153.102                    22818159.188
 120781943.514 7  94115871.86144  22984039.422                    22984047.949
 124988522.687 6  97393740.13043  23784526.227                    23784533.766
 11  8 26  3  4  0.0000000  0 10G15G21G12G26G05G25G29G02G30G18
 115430277.955 7  89945861.315 7  21965667.609                    21965675.289
 126944293.108 7  98917691.47344  24156691.961                    24156698.820
 124710669.740 7  97177241.529 6  23731659.813                    23731668.125
 112997084.545 8  88049694.81245  21502599.695                    21502607.680
 115369413.662 8  89898387.346 7  21954037.461                    21954044.453
 118944505.333 7  92684087.510 7  22634385.195                    22634395.176
 108943038.681 8  84890763.102 7  20731173.281                    20731180.266
 119960651.788 7  93476038.48545  22827742.961                    22827748.766
 120852411.901 7  94170782.27444  22997449.367                    22997457.484
 124910679.747 7  97333083.36643  23769712.773                    23769719.418
 11  8 26  3  4 30.0000000  0 10G15G21G12G26G05G25G29G02G30G18
 115349243.777 7  89882717.840 7  21950247.063                    21950255.191
 126886613.984 7  98872746.79644  24145715.109                    24145722.449
 124803970.521 6  97249943.329 6  23749412.906                    23749422.941
 112951067.994 8  88013837.79545  21493843.031                    21493850.738
 115447982.974 8  89959610.192 7  21968988.969                    21968996.066
 119011220.833 7  92736073.623 7  22647080.859                    22647091.363
 108893701.419 8  84852318.508 7  20721784.453                    20721791.832
 120011166.866 7  93515400.87444  22837355.633                    22837361.805
 120923124.136 7  94225882.72744  23010905.266                    23010913.840
 124833063.651 7  97272603.36443  23754942.984                    23754950.488
 11  8 26  3  5  0.0000000  0 10G15G21G12G26G05G25G29G02G30G18
 115268518.378 7  89819814.971 7  21934886.266                    21934893.383
 126828891.264 7  98827768.16743  24134730.789                    24134738.375
 124897275.455 7  97322648.484 6  23767169.953                    23767177.461
 112905623.053 7  87978426.18145  21485195.352                    21485202.805
 115526732.041 8  90020973.105 7  21983974.242                    21983981.371
 119078218.527 7  92788279.632 7  22659829.844                    22659840.270
 108844760.721 8  84814182.918 7  20712471.555                    20712478.703
 120061802.938 7  93554857.54744  22846991.469                    22846997.137
 120994077.125 7  94281170.76044  23024407.148                    23024415.813
 124755675.230 6  97212300.84343  23740216.180                    23740224.344
 11  8 26  3  5 30.0000000  0 10G15G21G12G26G05G25G29G02G30G18
 115188104.097 7  89757154.533 7  21919583.578                    21919590.797
 126771124.884 7  98782755.51344  24123738.016                    24123745.395
 124990581.539 7  97395354.416 6  23784924.992                    23784934.211
 112860752.307 8  87943461.99245  21476656.766                    21476664.477
 115605658.774 8  90082474.451 7  21998993.445                    21999000.418
 119145495.401 7  92840703.173 7  22672632.188                    22672642.992
 108796219.153 8  84776358.339 7  20703234.391                    20703241.543
 120112560.562 7  93594408.91344  22856650.602                    22856656.047
 121065267.673 7  94336643.92044  23037954.305                    23037962.441
 124678515.469 6  97152176.44043  23725533.477                    23725541.129
 11  8 26  3  6  0.0000000  0 10G15G21G12G26G05G25G29G02G30G18
 115108004.645 7  89694739.419 7  21904341.406                    21904348.656
 126713314.403 7  98737708.47943  24112737.352                    24112744.449
 125083886.253 7  97468059.421 6  23802680.563                    23802688.145
 112816458.966 8  87908947.73745  21468227.930                    21468235.664
 115684760.713 7  90144112.311 7  22014046.086                    22014053.363
 119213048.796 7  92893342.192 7  22685487.195                    22685497.703
 108748079.073 8  84738846.605 7  20694073.805                    20694080.352
 120163440.363 7  93634055.51044  22866332.797                    22866338.078
 121136692.913 7  94392299.95844  23051546.289                    23051554.434
 124601585.328 6  97092230.90743  23710894.352                    23710901.746
 11  8 26  3  6 30.0000000  0 10G15G21G12G26G05G25G29G02G30G18
 115028222.943 7  89632571.897 7  21889159.023                    21889166.652
 126655459.695 7  98692626.98744  24101728.133                    24101734.863
 125177186.970 7  97540761.210 6  23820434.148                    23820443.500
 112772745.364 7  87874885.21745  21459909.531                    21459917.406
 115764035.780 8  90205885.091 7  22029131.953                    22029138.648
 119280875.789 7  92946194.392 7  22698394.289                    22698404.504
 108700342.915 8  84701649.619 8  20684989.695                    20684997.266
 120214442.908 7  93673797.74644  22876038.109                    22876043.598
 121208349.821 7  94448136.49244  23065181.969                    23065190.984
 124524885.697 6  97032465.07444  23696297.578                    23696306.234
 11  8 26  3  7  0.0000000  0 10G15G21G12G26G05G25G29G02G30G18
 114948761.906 7  89570654.252 7  21874038.141                    21874045.898
 126597560.683 7  98647510.94743  24090709.898                    24090717.156
 125270480.371 7  97613457.316 6  23838187.484                    23838196.969
 112729613.862 8  87841276.28945  21451701.797                    21451709.730
 115843481.551 8  90267790.893 7  22044249.734                    22044256.895
 119348973.052 7  92999257.189 7  22711352.453                    22711363.340
 108653012.635 8  84664768.905 7  20675983.008                    20675990.402
 120265568.541 7  93713635.90444  22885767.445                    22885772.223
 121280234.956 7  94504150.88144  23078861.406                    23078869.887
 124448417.122 7  96972879.27243  23681746.789                    23681755.426
 11  8 26  3  7 30.0000000  0 10G15G21G12G26G05G25G29G02G30G18
 114869624.333 7  89508988.637 7  21858978.563                    21858986.332
 126539616.815 7  98602359.96643  24079683.414                    24079690.410
 125363763.814 7  97686145.663 6  23855939.391                    23855948.246
 112687067.047 8  87808122.96245  21443605.336                    21443612.938
 115923095.519 8  90329827.750 7  22059399.797                    22059406.453
 119417337.412 7  93052528.100 7  22724362.531                    22724372.660
 108606090.212 8  84628206.000 7  20667054.148                    20667060.855
 120316817.825 7  93753570.40444  22895519.383                    22895524.758
 121352344.909 7  94560340.45344  23092583.008                    23092591.613
 124372180.347 7  96913474.05343  23667239.742                    23667246.977
 11  8 26  3  8  0.0000000  0 10G15G21G12G26G05G25G29G02G30G18
 114790813.177 7  89447577.386 7  21843981.484                    21843989.039
 126481627.818 7  98557173.81043  24068648.594                    24068655.656
 125457034.054 7  97758823.704 6  23873688.203                    23873697.273
 112645107.072 8  87775426.90345  21435620.523                    21435628.535
 116002875.787 8  90391994.197 7  22074581.445                    22074588.285
 119485965.874 7  93106004.811 7  22737421.914                    22737432.332
 108559577.802 8  84591962.571 7  20658202.867                    20658209.828
 120368191.123 7  93793601.54944  22905295.172                    22905301.082
 121424676.568 7  94616702.77344  23106347.461                    23106356.297
 124296175.924 6  96854249.93943  23652775.719                    23652783.270
 11  8 26  3  8 30.0000000  0 10G15G21G12G26G05G25G29G02G30G18
 114712331.892 7  89386423.183 7  21829046.891                    21829054.207
 126423593.981 7  98511952.74343  24057604.852                    24057612.508
 125550288.733 6  97831489.646 6  23891433.617                    23891442.508
 112603736.910 8  87743190.44345  21427748.109                    21427755.906
 116082820.279 8  90454288.611 7  22089793.984                    22089801.234
 119554855.516 7  93159685.047 7  22750530.813                    22750541.563
 108513477.875 8  84556040.565 7  20649430.625                    20649437.254
 120419689.047 7  93833729.78444  22915094.383                    22915100.832
 121497226.898 7  94673235.49944  23120153.203                    23120162.180
 124220404.841 7  96795207.64544  23638356.938                    23638365.301
 11  8 26  3  9  0.0000000  0 10G15G21G12G26G05G25G29G02G30G18
 114634183.079 8  89325528.031 7  21814176.031                    21814182.930
 126365514.848 7  98466696.35143  24046552.859                    24046559.688
 125643524.895 6  97904141.167 6  23909175.828                    23909185.109
 112562958.956 8  87711415.43845  21419988.594                    21419996.137
 116162926.314 8  90516708.896 7  22105038.008                    22105045.098
 119624003.416 7  93213566.519 7  22763689.383                    22763699.867
 108467792.810 8  84520441.840 7  20640737.063                    20640744.113
 120471312.295 7  93873955.69244  22924918.047                    22924924.484
 121569992.683 7  94729936.09944  23134000.898                    23134008.887
 124144867.969 7  96736347.86843  23623982.836                    23623990.891
 11  8 26  3  9 30.0000000  0 10G15G21G12G26G05G25G29G02G30G18
 114556369.796 8  89264894.346 7  21799368.445                    21799376.004
 126307389.726 6  98421404.14143  24035491.656                    24035498.762
 125736739.512 7  97976775.839 6  23926914.820                    23926923.211
 112522775.402 8  87680103.61545  21412341.648                    21412349.305
 116243191.822 8  90579253.456 7  22120311.891                    22120318.914
 119693406.246 7  93267646.647 7  22776896.531                    22776906.453
 108422524.322 8  84485167.712 8  20632122.633                    20632129.629
 120523061.284 7  93914279.54844  22934766.531                    22934771.992
 121642970.621 7  94786802.03944  23147887.320                    23147896.527
 124069565.885 7  96677671.01243  23609653.305                    23609661.590
 11  8 26  3 10  0.0000000  0 10G15G21G12G26G05G25G29G02G30G18
 114478894.935 7  89204524.370 7  21784625.438                    21784633.043
 126249219.041 7  98376076.41143  24024422.242                    24024429.184
 125829929.830 7  98049391.686 6  23944647.992                    23944656.324
 112483188.627 8  87649256.79745  21404808.578                    21404816.215
 116323614.455 8  90641920.448 7  22135615.797                    22135622.859
 119763061.047 7  93321923.113 7  22790151.266                    22790161.691
 108377674.864 8  84450220.102 8  20623588.094                    20623595.109
 120574936.598 7  93954701.85545  22944637.789                    22944643.766
 121716157.590 6  94843830.83144  23161814.492                    23161823.207
 123994499.283 7  96619177.61343  23595368.742                    23595377.098
 11  8 26  3 10 30.0000000  0 10G15G21G12G26G05G25G29G02G30G18
 114401761.317 8  89144420.290 7  21769947.453                    21769954.832
 126191002.094 7  98330712.63143  24013343.844                    24013351.266
 125923093.234 6  98121986.450 6  23962376.234                    23962385.570
 112444201.175 8  87618876.99145  21397389.602                    21397397.008
 116404191.833 8  90704708.018 7  22150949.164                    22150955.969
 119832964.718 7  93376393.492 7  22803453.813                    22803463.605
 108333246.020 8  84415600.240 7  20615133.422                    20615140.285
 120626938.353 7  93995222.70444  22954533.211                    22954539.254
 121789550.280 7  94901019.92044  23175781.000                    23175788.977
 123919668.593 7  96560868.08344  23581129.016                    23581137.574
 11  8 26  3 11  0.0000000  0 10G15G21G12G26G05G25G29G02G30G18
 114324972.360 7  89084584.770 7  21755334.914                    21755342.324
 126132739.025 7  98285312.92844  24002256.664                    24002263.996
 126016226.991 7  98194558.152 6  23980099.000                    23980107.340
 112405815.393 8  87588966.02645  21390085.109                    21390092.535
 116484922.178 8  90767614.785 7  22166311.375                    22166318.652
 119903114.374 7  93431055.552 7  22816802.664                    22816812.660
 108289240.628 8  84381310.347 7  20606759.500                    20606766.785
 120679067.403 7  94035842.74445  22964453.125                    22964458.875
 121863145.808 7  94958367.09944  23189786.102                    23189793.145
 123845074.935 7  96502743.28743  23566933.648                    23566942.000
 11  8 26  3 11 30.0000000  0 10G15G21G12G26G05G25G29G02G30G18
 114248530.237 8  89025019.530 7  21740788.297                    21740795.582
 126074429.323 6  98239876.86644  23991160.477                    23991168.180
 126109327.797 6  98267104.206 6  23997816.406                    23997824.078
 112368033.124 8  87559525.32345  21382895.031                    21382902.719
 116565802.691 7  90830638.564 7  22181702.766                    22181709.703
 119973506.334 8  93485906.412 7  22830197.523                    22830208.031
 108245660.077 8  84347351.495 8  20598466.586                    20598473.211
 120731324.088 7  94076562.22645  22974397.078                    22974402.867
 121936940.316 7  95015869.27944  23203827.984                    23203836.547
 123770718.564 7  96444803.31843  23552784.188                    23552792.180
 11  8 26  3 12  0.0000000  0 10G15G21G12G26G05G25G29G02G30G18
 114172438.198 7  88965727.067 7  21726308.664                    21726316.254
 126016072.812 7  98194404.36544  23980056.078                    23980063.609
 126202392.992 7  98339622.477 6  24015526.125                    24015534.422
 112330856.689 8  87530556.69445  21375820.445                    21375828.277
 116646831.166 8  90893777.641 7  22197121.820                    22197128.824
 120044137.783 7  93540943.892 7  22843638.695                    22843649.148
 108202506.680 8  84313725.493 8  20590254.469                    20590261.598
 120783709.130 7  94117381.71644  22984365.461                    22984371.855
 122010930.754 7  95073524.15344  23217908.281                    23217916.301
 123696600.225 6  96387048.87044  23538679.805                    23538688.238
 11  8 26  3 12 30.0000000  0 10G15G21G12G26G05G25G29G02G30G18
 114096699.624 7  88906710.034 7  21711895.781                    21711903.414
 125957669.804 7  98148895.60844  23968942.055                    23968949.145
 126295420.223 6  98412111.213 5  24033227.930                    24033235.773
 112294288.871 8  87502062.32045  21368862.008                    21368869.887
 116728005.764 7  90957030.588 7  22212568.758                    22212575.613
 120115006.059 7  93596165.928 7  22857124.203                    22857134.641
 108159782.966 8  84280434.304 7  20582124.633                    20582131.500
 120836222.846 7  94158301.50845  22994358.898                    22994364.332
 122085114.407 6  95131329.62144  23232025.086                    23232033.289
 123622721.037 6  96329480.77544  23524621.281                    23524628.793
 11  8 26  3 13  0.0000000  0 10G15G21G12G26G05G25G29G02G30G18
 114021317.112 7  88847970.453 7  21697551.125                    21697558.641
 125899219.872 7  98103350.28844  23957819.477                    23957826.594
 126388406.453 6  98484568.013 6  24050922.727                    24050931.121
 112258331.730 8  87474043.78845  21362020.219                    21362027.227
 116809324.090 7  91020395.517 7  22228043.359                    22228050.320
 120186107.881 7  93651569.943 7  22870654.461                    22870665.398
 108117490.931 8  84247479.483 8  20574076.414                    20574083.637
 120888865.926 7  94199322.07244  23004376.625                    23004382.172
 122159487.861 7  95189282.95044  23246177.289                    23246186.352
 123549081.476 7  96272099.36044  23510608.289                    23510615.207
 11  8 26  3 13 30.0000000  0 10G15G21G12G26G05G25G29G02G30G18
 113946294.021 8  88789510.942 7  21683274.586                    21683282.289
 125840722.983 7  98057768.37644  23946687.727                    23946694.566
 126481349.309 6  98556990.898 6  24068608.430                    24068618.379
 112222987.913 8  87446503.18145  21355294.203                    21355301.234
 116890784.543 7  91083871.194 7  22243544.305                    22243551.758
 120257440.390 7  93707153.697 7  22884228.703                    22884239.113
 108075632.994 8  84214862.924 7  20566111.203                    20566118.281
 120941639.037 7  94240443.97444  23014418.516                    23014424.590
 122234048.155 7  95247381.85344  23260366.422                    23260374.969
 123475682.288 7  96214905.29144  23496640.414                    23496648.684
 11  8 26  3 14  0.0000000  0 10G15G21G12G26G05G25G29G02G30G18
 113871632.249 8  88731332.978 7  21669067.023                    21669074.258
 125782178.872 7  98012149.68544  23935546.852                    23935554.074
 126574245.309 6  98629377.310 6  24086286.930                    24086295.355
 112188258.562 8  87419441.37545  21348684.969                    21348692.809
 116972384.016 7  91147455.207 7  22259072.867                    22259079.535
 120328999.741 7  93762914.220 7  22897845.938                    22897856.082
 108034210.324 8  84182585.541 8  20558228.875                    20558235.195
 120994542.079 7  94281667.08944  23024485.313                    23024491.449
 122308791.414 7  95305623.33944  23274589.094                    23274597.719
 123402523.551 7  96157898.57844  23482719.297                    23482726.484
 11  8 26  3 14 30.0000000  0 10G15G21G12G26G05G25G29G02G30G18
 113797335.062 8  88673439.106 7  21654928.805                    21654935.938
 125723587.419 7  97966494.08544  23924397.336                    23924404.207
 126667091.800 6  98701725.225 6  24103955.109                    24103963.234
 112154146.386 8  87392860.47645  21342193.852                    21342201.527
 117054120.676 7  91211146.115 7  22274626.641                    22274633.895
 120400783.352 7  93818849.508 6  22911506.094                    22911515.680
 107993225.334 8  84150649.189 8  20550429.914                    20550436.395
 121047575.985 7  94322992.17744  23034577.773                    23034583.375
 122383714.885 7  95364005.26144  23288846.305                    23288854.602
 123329606.054 7  96101079.86543  23468843.070                    23468850.574
